<?xml version="1.0" encoding="UTF-8" standalone="no" ?>
<gpx xmlns="http://www.topografix.com/GPX/1/1" xmlns:xsi="http://www.w3.org/2001/XMLSchema-instance" xsi:schemaLocation="http://www.topografix.com/GPX/1/1 http://www.topografix.com/GPX/1/1/gpx.xsd" version="1.1" creator="VisuGPX - https://www.visugpx.com">
  <metadata>
    <name>Sortie VTT La Baffe 2024</name>
    <desc><![CDATA[Rando organisée par la Baffe
Singles très sympa]]></desc>
  </metadata>
  <trk>
    <name><![CDATA[Sortie VTT La Baffe 2024]]></name>
    <trkseg>
      <trkpt lat="48.16149" lon="6.57527">
        <ele>452.661112</ele>
        <time>2024-04-07T06:28:36.563Z</time>
      </trkpt>
      <trkpt lat="48.16136" lon="6.57536">
        <ele>452.661112</ele>
        <time>2024-04-07T06:29:55.083Z</time>
      </trkpt>
      <trkpt lat="48.16127" lon="6.57539">
        <ele>452.661112</ele>
        <time>2024-04-07T06:30:03.082Z</time>
      </trkpt>
      <trkpt lat="48.16118" lon="6.57545">
        <ele>452.661112</ele>
        <time>2024-04-07T06:30:14.081Z</time>
      </trkpt>
      <trkpt lat="48.16111" lon="6.57555">
        <ele>452.661112</ele>
        <time>2024-04-07T06:30:19.083Z</time>
      </trkpt>
      <trkpt lat="48.16107" lon="6.57576">
        <ele>452.661112</ele>
        <time>2024-04-07T06:31:01.065Z</time>
      </trkpt>
      <trkpt lat="48.16113" lon="6.57589">
        <ele>452.661112</ele>
        <time>2024-04-07T06:31:05.059Z</time>
      </trkpt>
      <trkpt lat="48.16119" lon="6.57604">
        <ele>452.661112</ele>
        <time>2024-04-07T06:31:09.069Z</time>
      </trkpt>
      <trkpt lat="48.16128" lon="6.57612">
        <ele>452.663873</ele>
        <time>2024-04-07T06:31:12.070Z</time>
      </trkpt>
      <trkpt lat="48.16137" lon="6.57612">
        <ele>452.901067</ele>
        <time>2024-04-07T06:31:15.067Z</time>
      </trkpt>
      <trkpt lat="48.16146" lon="6.57607">
        <ele>453.143318</ele>
        <time>2024-04-07T06:31:18.071Z</time>
      </trkpt>
      <trkpt lat="48.16153" lon="6.57598">
        <ele>453.386016</ele>
        <time>2024-04-07T06:31:21.066Z</time>
      </trkpt>
      <trkpt lat="48.16161" lon="6.5759">
        <ele>453.62056</ele>
        <time>2024-04-07T06:31:24.047Z</time>
      </trkpt>
      <trkpt lat="48.16169" lon="6.57582">
        <ele>453.869343</ele>
        <time>2024-04-07T06:31:28.051Z</time>
      </trkpt>
      <trkpt lat="48.16179" lon="6.57573">
        <ele>454.167481</ele>
        <time>2024-04-07T06:31:32.075Z</time>
      </trkpt>
      <trkpt lat="48.16189" lon="6.57564">
        <ele>454.460407</ele>
        <time>2024-04-07T06:31:35.072Z</time>
      </trkpt>
      <trkpt lat="48.16197" lon="6.57555">
        <ele>454.725644</ele>
        <time>2024-04-07T06:31:38.069Z</time>
      </trkpt>
      <trkpt lat="48.16204" lon="6.57544">
        <ele>454.98045</ele>
        <time>2024-04-07T06:31:41.077Z</time>
      </trkpt>
      <trkpt lat="48.16211" lon="6.57533">
        <ele>455.225247</ele>
        <time>2024-04-07T06:31:44.069Z</time>
      </trkpt>
      <trkpt lat="48.16217" lon="6.57521">
        <ele>455.492946</ele>
        <time>2024-04-07T06:31:47.065Z</time>
      </trkpt>
      <trkpt lat="48.16225" lon="6.57509">
        <ele>455.767355</ele>
        <time>2024-04-07T06:31:50.074Z</time>
      </trkpt>
      <trkpt lat="48.16232" lon="6.575">
        <ele>456.020452</ele>
        <time>2024-04-07T06:31:53.067Z</time>
      </trkpt>
      <trkpt lat="48.16238" lon="6.57486">
        <ele>456.301911</ele>
        <time>2024-04-07T06:31:57.048Z</time>
      </trkpt>
      <trkpt lat="48.16245" lon="6.57474">
        <ele>456.564076</ele>
        <time>2024-04-07T06:32:00.062Z</time>
      </trkpt>
      <trkpt lat="48.16252" lon="6.57462">
        <ele>456.845482</ele>
        <time>2024-04-07T06:32:04.058Z</time>
      </trkpt>
      <trkpt lat="48.16259" lon="6.5745">
        <ele>457.097881</ele>
        <time>2024-04-07T06:32:07.062Z</time>
      </trkpt>
      <trkpt lat="48.16264" lon="6.57437">
        <ele>457.46031</ele>
        <time>2024-04-07T06:32:10.070Z</time>
      </trkpt>
      <trkpt lat="48.1627" lon="6.57423">
        <ele>458.010153</ele>
        <time>2024-04-07T06:32:14.054Z</time>
      </trkpt>
      <trkpt lat="48.16276" lon="6.57412">
        <ele>458.455144</ele>
        <time>2024-04-07T06:32:17.064Z</time>
      </trkpt>
      <trkpt lat="48.16283" lon="6.57401">
        <ele>458.914527</ele>
        <time>2024-04-07T06:32:20.063Z</time>
      </trkpt>
      <trkpt lat="48.1629" lon="6.57392">
        <ele>459.346545</ele>
        <time>2024-04-07T06:32:23.069Z</time>
      </trkpt>
      <trkpt lat="48.16297" lon="6.57383">
        <ele>459.783615</ele>
        <time>2024-04-07T06:32:26.057Z</time>
      </trkpt>
      <trkpt lat="48.16305" lon="6.57375">
        <ele>460.240604</ele>
        <time>2024-04-07T06:32:29.063Z</time>
      </trkpt>
      <trkpt lat="48.16314" lon="6.57365">
        <ele>460.776638</ele>
        <time>2024-04-07T06:32:33.075Z</time>
      </trkpt>
      <trkpt lat="48.1632" lon="6.57356">
        <ele>461.202395</ele>
        <time>2024-04-07T06:32:36.068Z</time>
      </trkpt>
      <trkpt lat="48.16329" lon="6.57348">
        <ele>461.664374</ele>
        <time>2024-04-07T06:32:39.052Z</time>
      </trkpt>
      <trkpt lat="48.16337" lon="6.57341">
        <ele>462.112671</ele>
        <time>2024-04-07T06:32:42.051Z</time>
      </trkpt>
      <trkpt lat="48.16344" lon="6.57333">
        <ele>462.545299</ele>
        <time>2024-04-07T06:32:45.065Z</time>
      </trkpt>
      <trkpt lat="48.16354" lon="6.57324">
        <ele>463.074766</ele>
        <time>2024-04-07T06:32:49.063Z</time>
      </trkpt>
      <trkpt lat="48.16364" lon="6.57319">
        <ele>463.583395</ele>
        <time>2024-04-07T06:32:53.068Z</time>
      </trkpt>
      <trkpt lat="48.16375" lon="6.57316">
        <ele>464.117976</ele>
        <time>2024-04-07T06:32:57.061Z</time>
      </trkpt>
      <trkpt lat="48.16386" lon="6.57315">
        <ele>464.639576</ele>
        <time>2024-04-07T06:33:01.072Z</time>
      </trkpt>
      <trkpt lat="48.16397" lon="6.57319">
        <ele>465.193089</ele>
        <time>2024-04-07T06:33:05.067Z</time>
      </trkpt>
      <trkpt lat="48.16406" lon="6.57325">
        <ele>465.640041</ele>
        <time>2024-04-07T06:33:08.043Z</time>
      </trkpt>
      <trkpt lat="48.16416" lon="6.57329">
        <ele>465.750702</ele>
        <time>2024-04-07T06:33:11.075Z</time>
      </trkpt>
      <trkpt lat="48.16426" lon="6.57327">
        <ele>465.724741</ele>
        <time>2024-04-07T06:33:14.048Z</time>
      </trkpt>
      <trkpt lat="48.16435" lon="6.57316">
        <ele>465.695887</ele>
        <time>2024-04-07T06:33:17.043Z</time>
      </trkpt>
      <trkpt lat="48.16445" lon="6.57303">
        <ele>465.661853</ele>
        <time>2024-04-07T06:33:20.064Z</time>
      </trkpt>
      <trkpt lat="48.16453" lon="6.57297">
        <ele>465.638992</ele>
        <time>2024-04-07T06:33:22.068Z</time>
      </trkpt>
      <trkpt lat="48.16465" lon="6.5729">
        <ele>465.60674</ele>
        <time>2024-04-07T06:33:25.074Z</time>
      </trkpt>
      <trkpt lat="48.16474" lon="6.57284">
        <ele>465.581842</ele>
        <time>2024-04-07T06:33:27.064Z</time>
      </trkpt>
      <trkpt lat="48.16483" lon="6.5728">
        <ele>465.557751</ele>
        <time>2024-04-07T06:33:29.071Z</time>
      </trkpt>
      <trkpt lat="48.16492" lon="6.57275">
        <ele>465.534888</ele>
        <time>2024-04-07T06:33:31.064Z</time>
      </trkpt>
      <trkpt lat="48.16501" lon="6.57272">
        <ele>465.510895</ele>
        <time>2024-04-07T06:33:33.075Z</time>
      </trkpt>
      <trkpt lat="48.1651" lon="6.57268">
        <ele>465.486438</ele>
        <time>2024-04-07T06:33:35.055Z</time>
      </trkpt>
      <trkpt lat="48.16519" lon="6.57263">
        <ele>465.462696</ele>
        <time>2024-04-07T06:33:37.067Z</time>
      </trkpt>
      <trkpt lat="48.1653" lon="6.57257">
        <ele>465.433402</ele>
        <time>2024-04-07T06:33:40.071Z</time>
      </trkpt>
      <trkpt lat="48.1654" lon="6.5725">
        <ele>465.405505</ele>
        <time>2024-04-07T06:33:44.066Z</time>
      </trkpt>
      <trkpt lat="48.16549" lon="6.57243">
        <ele>465.3792</ele>
        <time>2024-04-07T06:33:48.087Z</time>
      </trkpt>
      <trkpt lat="48.16559" lon="6.57232">
        <ele>465.347849</ele>
        <time>2024-04-07T06:33:52.069Z</time>
      </trkpt>
      <trkpt lat="48.16567" lon="6.57223">
        <ele>465.322459</ele>
        <time>2024-04-07T06:33:55.061Z</time>
      </trkpt>
      <trkpt lat="48.16575" lon="6.57213">
        <ele>465.358664</ele>
        <time>2024-04-07T06:33:58.055Z</time>
      </trkpt>
      <trkpt lat="48.16584" lon="6.57207">
        <ele>465.417186</ele>
        <time>2024-04-07T06:34:01.062Z</time>
      </trkpt>
      <trkpt lat="48.16593" lon="6.57201">
        <ele>465.473266</ele>
        <time>2024-04-07T06:34:04.065Z</time>
      </trkpt>
      <trkpt lat="48.16605" lon="6.57197">
        <ele>465.543074</ele>
        <time>2024-04-07T06:34:07.063Z</time>
      </trkpt>
      <trkpt lat="48.16616" lon="6.57193">
        <ele>465.608387</ele>
        <time>2024-04-07T06:34:10.070Z</time>
      </trkpt>
      <trkpt lat="48.16626" lon="6.57189">
        <ele>465.669782</ele>
        <time>2024-04-07T06:34:13.072Z</time>
      </trkpt>
      <trkpt lat="48.16638" lon="6.57186">
        <ele>465.739756</ele>
        <time>2024-04-07T06:34:16.061Z</time>
      </trkpt>
      <trkpt lat="48.16651" lon="6.57184">
        <ele>465.81394</ele>
        <time>2024-04-07T06:34:19.067Z</time>
      </trkpt>
      <trkpt lat="48.16662" lon="6.57181">
        <ele>465.877319</ele>
        <time>2024-04-07T06:34:22.082Z</time>
      </trkpt>
      <trkpt lat="48.16672" lon="6.57178">
        <ele>465.938658</ele>
        <time>2024-04-07T06:34:25.073Z</time>
      </trkpt>
      <trkpt lat="48.16684" lon="6.57173">
        <ele>466.008821</ele>
        <time>2024-04-07T06:34:28.062Z</time>
      </trkpt>
      <trkpt lat="48.16695" lon="6.57168">
        <ele>466.073845</ele>
        <time>2024-04-07T06:34:31.061Z</time>
      </trkpt>
      <trkpt lat="48.16705" lon="6.57163">
        <ele>466.138024</ele>
        <time>2024-04-07T06:34:34.063Z</time>
      </trkpt>
      <trkpt lat="48.16717" lon="6.57158">
        <ele>466.207115</ele>
        <time>2024-04-07T06:34:37.066Z</time>
      </trkpt>
      <trkpt lat="48.16729" lon="6.57152">
        <ele>466.279192</ele>
        <time>2024-04-07T06:34:40.062Z</time>
      </trkpt>
      <trkpt lat="48.1674" lon="6.57148">
        <ele>466.348629</ele>
        <time>2024-04-07T06:34:43.073Z</time>
      </trkpt>
      <trkpt lat="48.16752" lon="6.5714">
        <ele>466.57189</ele>
        <time>2024-04-07T06:34:46.071Z</time>
      </trkpt>
      <trkpt lat="48.16762" lon="6.57132">
        <ele>466.797322</ele>
        <time>2024-04-07T06:34:49.070Z</time>
      </trkpt>
      <trkpt lat="48.16772" lon="6.57127">
        <ele>466.984746</ele>
        <time>2024-04-07T06:34:52.058Z</time>
      </trkpt>
      <trkpt lat="48.16781" lon="6.57122">
        <ele>467.171221</ele>
        <time>2024-04-07T06:34:55.059Z</time>
      </trkpt>
      <trkpt lat="48.16792" lon="6.5712">
        <ele>467.370115</ele>
        <time>2024-04-07T06:34:58.060Z</time>
      </trkpt>
      <trkpt lat="48.16802" lon="6.57115">
        <ele>467.579693</ele>
        <time>2024-04-07T06:35:01.062Z</time>
      </trkpt>
      <trkpt lat="48.16813" lon="6.5711">
        <ele>467.787485</ele>
        <time>2024-04-07T06:35:04.052Z</time>
      </trkpt>
      <trkpt lat="48.16823" lon="6.57107">
        <ele>467.976351</ele>
        <time>2024-04-07T06:35:07.069Z</time>
      </trkpt>
      <trkpt lat="48.16833" lon="6.57106">
        <ele>468.176675</ele>
        <time>2024-04-07T06:35:11.056Z</time>
      </trkpt>
      <trkpt lat="48.16843" lon="6.57102">
        <ele>468.369345</ele>
        <time>2024-04-07T06:35:15.066Z</time>
      </trkpt>
      <trkpt lat="48.16851" lon="6.57094">
        <ele>468.539256</ele>
        <time>2024-04-07T06:35:19.071Z</time>
      </trkpt>
      <trkpt lat="48.16853" lon="6.5708">
        <ele>468.712571</ele>
        <time>2024-04-07T06:35:22.056Z</time>
      </trkpt>
      <trkpt lat="48.16852" lon="6.57064">
        <ele>468.910668</ele>
        <time>2024-04-07T06:35:25.053Z</time>
      </trkpt>
      <trkpt lat="48.1685" lon="6.57049">
        <ele>469.104439</ele>
        <time>2024-04-07T06:35:28.073Z</time>
      </trkpt>
      <trkpt lat="48.16848" lon="6.57036">
        <ele>469.275962</ele>
        <time>2024-04-07T06:35:31.060Z</time>
      </trkpt>
      <trkpt lat="48.16847" lon="6.57018">
        <ele>469.495845</ele>
        <time>2024-04-07T06:35:35.073Z</time>
      </trkpt>
      <trkpt lat="48.16845" lon="6.57004">
        <ele>469.678961</ele>
        <time>2024-04-07T06:35:38.066Z</time>
      </trkpt>
      <trkpt lat="48.16842" lon="6.56989">
        <ele>469.815718</ele>
        <time>2024-04-07T06:35:42.062Z</time>
      </trkpt>
      <trkpt lat="48.16841" lon="6.56975">
        <ele>469.925499</ele>
        <time>2024-04-07T06:35:46.065Z</time>
      </trkpt>
      <trkpt lat="48.1684" lon="6.56961">
        <ele>470.029139</ele>
        <time>2024-04-07T06:35:50.070Z</time>
      </trkpt>
      <trkpt lat="48.16837" lon="6.56946">
        <ele>470.14888</ele>
        <time>2024-04-07T06:35:55.052Z</time>
      </trkpt>
      <trkpt lat="48.16842" lon="6.56931">
        <ele>470.274756</ele>
        <time>2024-04-07T06:35:59.065Z</time>
      </trkpt>
      <trkpt lat="48.16848" lon="6.5692">
        <ele>470.381336</ele>
        <time>2024-04-07T06:36:03.064Z</time>
      </trkpt>
      <trkpt lat="48.16858" lon="6.5692">
        <ele>470.494702</ele>
        <time>2024-04-07T06:36:09.056Z</time>
      </trkpt>
      <trkpt lat="48.16868" lon="6.56915">
        <ele>470.612457</ele>
        <time>2024-04-07T06:36:16.062Z</time>
      </trkpt>
      <trkpt lat="48.16874" lon="6.56902">
        <ele>470.728732</ele>
        <time>2024-04-07T06:36:21.070Z</time>
      </trkpt>
      <trkpt lat="48.16881" lon="6.56891">
        <ele>470.842042</ele>
        <time>2024-04-07T06:36:25.061Z</time>
      </trkpt>
      <trkpt lat="48.16887" lon="6.56881">
        <ele>470.945418</ele>
        <time>2024-04-07T06:36:28.072Z</time>
      </trkpt>
      <trkpt lat="48.16893" lon="6.56869">
        <ele>471.060321</ele>
        <time>2024-04-07T06:36:31.060Z</time>
      </trkpt>
      <trkpt lat="48.169" lon="6.56857">
        <ele>471.180066</ele>
        <time>2024-04-07T06:36:35.066Z</time>
      </trkpt>
      <trkpt lat="48.16905" lon="6.56843">
        <ele>471.297113</ele>
        <time>2024-04-07T06:36:40.068Z</time>
      </trkpt>
      <trkpt lat="48.16912" lon="6.5683">
        <ele>471.420634</ele>
        <time>2024-04-07T06:36:45.065Z</time>
      </trkpt>
      <trkpt lat="48.16919" lon="6.56818">
        <ele>471.541644</ele>
        <time>2024-04-07T06:36:48.061Z</time>
      </trkpt>
      <trkpt lat="48.16924" lon="6.56805">
        <ele>471.658043</ele>
        <time>2024-04-07T06:36:51.065Z</time>
      </trkpt>
      <trkpt lat="48.16931" lon="6.56792">
        <ele>471.81355</ele>
        <time>2024-04-07T06:36:54.053Z</time>
      </trkpt>
      <trkpt lat="48.16939" lon="6.56782">
        <ele>472.07403</ele>
        <time>2024-04-07T06:36:56.071Z</time>
      </trkpt>
      <trkpt lat="48.16949" lon="6.56773">
        <ele>472.398232</ele>
        <time>2024-04-07T06:36:58.070Z</time>
      </trkpt>
      <trkpt lat="48.16959" lon="6.56763">
        <ele>472.737422</ele>
        <time>2024-04-07T06:37:01.067Z</time>
      </trkpt>
      <trkpt lat="48.16968" lon="6.56753">
        <ele>473.031401</ele>
        <time>2024-04-07T06:37:04.063Z</time>
      </trkpt>
      <trkpt lat="48.16977" lon="6.56753">
        <ele>473.277668</ele>
        <time>2024-04-07T06:37:09.059Z</time>
      </trkpt>
      <trkpt lat="48.16987" lon="6.56757">
        <ele>473.563011</ele>
        <time>2024-04-07T06:37:15.072Z</time>
      </trkpt>
      <trkpt lat="48.16996" lon="6.56765">
        <ele>473.848654</ele>
        <time>2024-04-07T06:37:19.058Z</time>
      </trkpt>
      <trkpt lat="48.17006" lon="6.56773">
        <ele>474.157378</ele>
        <time>2024-04-07T06:37:22.072Z</time>
      </trkpt>
      <trkpt lat="48.17014" lon="6.56781">
        <ele>474.43576</ele>
        <time>2024-04-07T06:37:25.065Z</time>
      </trkpt>
      <trkpt lat="48.17025" lon="6.56792">
        <ele>474.788729</ele>
        <time>2024-04-07T06:37:28.059Z</time>
      </trkpt>
      <trkpt lat="48.1703" lon="6.56804">
        <ele>475.052444</ele>
        <time>2024-04-07T06:37:31.058Z</time>
      </trkpt>
      <trkpt lat="48.17036" lon="6.56815">
        <ele>475.309908</ele>
        <time>2024-04-07T06:37:34.062Z</time>
      </trkpt>
      <trkpt lat="48.17045" lon="6.56828">
        <ele>475.640299</ele>
        <time>2024-04-07T06:37:37.064Z</time>
      </trkpt>
      <trkpt lat="48.17052" lon="6.56842">
        <ele>475.966527</ele>
        <time>2024-04-07T06:37:40.062Z</time>
      </trkpt>
      <trkpt lat="48.17058" lon="6.56855">
        <ele>476.254488</ele>
        <time>2024-04-07T06:37:43.059Z</time>
      </trkpt>
      <trkpt lat="48.17065" lon="6.56864">
        <ele>476.511286</ele>
        <time>2024-04-07T06:37:46.051Z</time>
      </trkpt>
      <trkpt lat="48.17076" lon="6.56869">
        <ele>476.522614</ele>
        <time>2024-04-07T06:37:50.059Z</time>
      </trkpt>
      <trkpt lat="48.17086" lon="6.56871">
        <ele>476.210046</ele>
        <time>2024-04-07T06:37:55.068Z</time>
      </trkpt>
      <trkpt lat="48.17097" lon="6.5687">
        <ele>475.87243</ele>
        <time>2024-04-07T06:38:00.059Z</time>
      </trkpt>
      <trkpt lat="48.17106" lon="6.56871">
        <ele>475.584764</ele>
        <time>2024-04-07T06:38:04.068Z</time>
      </trkpt>
      <trkpt lat="48.17116" lon="6.56874">
        <ele>475.264979</ele>
        <time>2024-04-07T06:38:09.072Z</time>
      </trkpt>
      <trkpt lat="48.17126" lon="6.56872">
        <ele>474.941894</ele>
        <time>2024-04-07T06:38:13.063Z</time>
      </trkpt>
      <trkpt lat="48.17137" lon="6.56871">
        <ele>474.587985</ele>
        <time>2024-04-07T06:38:16.062Z</time>
      </trkpt>
      <trkpt lat="48.17147" lon="6.56871">
        <ele>474.28806</ele>
        <time>2024-04-07T06:38:19.041Z</time>
      </trkpt>
      <trkpt lat="48.17157" lon="6.56867">
        <ele>473.947835</ele>
        <time>2024-04-07T06:38:22.064Z</time>
      </trkpt>
      <trkpt lat="48.17168" lon="6.56862">
        <ele>473.584014</ele>
        <time>2024-04-07T06:38:25.066Z</time>
      </trkpt>
      <trkpt lat="48.1718" lon="6.56858">
        <ele>473.212171</ele>
        <time>2024-04-07T06:38:29.067Z</time>
      </trkpt>
      <trkpt lat="48.1719" lon="6.56853">
        <ele>472.876007</ele>
        <time>2024-04-07T06:38:33.066Z</time>
      </trkpt>
      <trkpt lat="48.17201" lon="6.56847">
        <ele>472.511879</ele>
        <time>2024-04-07T06:38:37.061Z</time>
      </trkpt>
      <trkpt lat="48.1721" lon="6.56843">
        <ele>472.217514</ele>
        <time>2024-04-07T06:38:40.062Z</time>
      </trkpt>
      <trkpt lat="48.17219" lon="6.5684">
        <ele>471.905878</ele>
        <time>2024-04-07T06:38:43.063Z</time>
      </trkpt>
      <trkpt lat="48.17229" lon="6.56835">
        <ele>471.577683</ele>
        <time>2024-04-07T06:38:46.064Z</time>
      </trkpt>
      <trkpt lat="48.17239" lon="6.5683">
        <ele>471.258682</ele>
        <time>2024-04-07T06:38:49.061Z</time>
      </trkpt>
      <trkpt lat="48.17249" lon="6.56825">
        <ele>470.959556</ele>
        <time>2024-04-07T06:38:52.054Z</time>
      </trkpt>
      <trkpt lat="48.17257" lon="6.5682">
        <ele>470.764212</ele>
        <time>2024-04-07T06:38:55.050Z</time>
      </trkpt>
      <trkpt lat="48.17267" lon="6.56818">
        <ele>470.558972</ele>
        <time>2024-04-07T06:38:58.067Z</time>
      </trkpt>
      <trkpt lat="48.17278" lon="6.56814">
        <ele>470.304334</ele>
        <time>2024-04-07T06:39:02.052Z</time>
      </trkpt>
      <trkpt lat="48.17288" lon="6.56812">
        <ele>470.095397</ele>
        <time>2024-04-07T06:39:05.069Z</time>
      </trkpt>
      <trkpt lat="48.17299" lon="6.56809">
        <ele>469.852726</ele>
        <time>2024-04-07T06:39:08.073Z</time>
      </trkpt>
      <trkpt lat="48.17308" lon="6.56805">
        <ele>469.644098</ele>
        <time>2024-04-07T06:39:11.065Z</time>
      </trkpt>
      <trkpt lat="48.17318" lon="6.56798">
        <ele>469.408698</ele>
        <time>2024-04-07T06:39:15.058Z</time>
      </trkpt>
      <trkpt lat="48.17326" lon="6.56787">
        <ele>469.182714</ele>
        <time>2024-04-07T06:39:19.075Z</time>
      </trkpt>
      <trkpt lat="48.17331" lon="6.56773">
        <ele>468.956129</ele>
        <time>2024-04-07T06:39:23.061Z</time>
      </trkpt>
      <trkpt lat="48.17335" lon="6.56756">
        <ele>468.705058</ele>
        <time>2024-04-07T06:39:27.064Z</time>
      </trkpt>
      <trkpt lat="48.17335" lon="6.5674">
        <ele>468.465279</ele>
        <time>2024-04-07T06:39:31.071Z</time>
      </trkpt>
      <trkpt lat="48.17333" lon="6.56724">
        <ele>468.234546</ele>
        <time>2024-04-07T06:39:35.046Z</time>
      </trkpt>
      <trkpt lat="48.17332" lon="6.56708">
        <ele>468.005776</ele>
        <time>2024-04-07T06:39:39.072Z</time>
      </trkpt>
      <trkpt lat="48.17329" lon="6.5669">
        <ele>467.746234</ele>
        <time>2024-04-07T06:39:43.062Z</time>
      </trkpt>
      <trkpt lat="48.17326" lon="6.56676">
        <ele>467.529629</ele>
        <time>2024-04-07T06:39:46.060Z</time>
      </trkpt>
      <trkpt lat="48.17323" lon="6.5666">
        <ele>467.299358</ele>
        <time>2024-04-07T06:39:49.068Z</time>
      </trkpt>
      <trkpt lat="48.17319" lon="6.56643">
        <ele>467.801081</ele>
        <time>2024-04-07T06:39:53.046Z</time>
      </trkpt>
      <trkpt lat="48.17319" lon="6.56627">
        <ele>469.126397</ele>
        <time>2024-04-07T06:39:57.061Z</time>
      </trkpt>
      <trkpt lat="48.17322" lon="6.56613">
        <ele>470.238785</ele>
        <time>2024-04-07T06:40:00.076Z</time>
      </trkpt>
      <trkpt lat="48.17324" lon="6.56597">
        <ele>471.559394</ele>
        <time>2024-04-07T06:40:03.060Z</time>
      </trkpt>
      <trkpt lat="48.17327" lon="6.56581">
        <ele>472.910242</ele>
        <time>2024-04-07T06:40:06.053Z</time>
      </trkpt>
      <trkpt lat="48.1733" lon="6.56563">
        <ele>474.412889</ele>
        <time>2024-04-07T06:40:09.066Z</time>
      </trkpt>
      <trkpt lat="48.17336" lon="6.56549">
        <ele>475.754578</ele>
        <time>2024-04-07T06:40:12.063Z</time>
      </trkpt>
      <trkpt lat="48.17343" lon="6.56536">
        <ele>477.046292</ele>
        <time>2024-04-07T06:40:15.061Z</time>
      </trkpt>
      <trkpt lat="48.17348" lon="6.56522">
        <ele>478.279122</ele>
        <time>2024-04-07T06:40:18.062Z</time>
      </trkpt>
      <trkpt lat="48.17355" lon="6.5651">
        <ele>479.568432</ele>
        <time>2024-04-07T06:40:21.066Z</time>
      </trkpt>
      <trkpt lat="48.17361" lon="6.565">
        <ele>480.708803</ele>
        <time>2024-04-07T06:40:25.062Z</time>
      </trkpt>
      <trkpt lat="48.17368" lon="6.56488">
        <ele>481.877023</ele>
        <time>2024-04-07T06:40:29.068Z</time>
      </trkpt>
      <trkpt lat="48.17373" lon="6.56477">
        <ele>483.006812</ele>
        <time>2024-04-07T06:40:32.068Z</time>
      </trkpt>
      <trkpt lat="48.17378" lon="6.5646">
        <ele>484.492698</ele>
        <time>2024-04-07T06:40:36.045Z</time>
      </trkpt>
      <trkpt lat="48.17382" lon="6.56442">
        <ele>486.007612</ele>
        <time>2024-04-07T06:40:39.088Z</time>
      </trkpt>
      <trkpt lat="48.17384" lon="6.56428">
        <ele>487.150955</ele>
        <time>2024-04-07T06:40:41.090Z</time>
      </trkpt>
      <trkpt lat="48.1739" lon="6.56414">
        <ele>488.442119</ele>
        <time>2024-04-07T06:40:44.090Z</time>
      </trkpt>
      <trkpt lat="48.17393" lon="6.56394">
        <ele>488.257974</ele>
        <time>2024-04-07T06:40:47.091Z</time>
      </trkpt>
      <trkpt lat="48.17394" lon="6.56376">
        <ele>487.786827</ele>
        <time>2024-04-07T06:40:51.091Z</time>
      </trkpt>
      <trkpt lat="48.17394" lon="6.56361">
        <ele>487.383174</ele>
        <time>2024-04-07T06:40:54.092Z</time>
      </trkpt>
      <trkpt lat="48.17397" lon="6.56344">
        <ele>486.922533</ele>
        <time>2024-04-07T06:40:57.091Z</time>
      </trkpt>
      <trkpt lat="48.17399" lon="6.56327">
        <ele>486.471135</ele>
        <time>2024-04-07T06:41:00.089Z</time>
      </trkpt>
      <trkpt lat="48.17401" lon="6.56313">
        <ele>486.117071</ele>
        <time>2024-04-07T06:41:02.091Z</time>
      </trkpt>
      <trkpt lat="48.17405" lon="6.56297">
        <ele>485.675092</ele>
        <time>2024-04-07T06:41:05.089Z</time>
      </trkpt>
      <trkpt lat="48.17406" lon="6.56283">
        <ele>485.300034</ele>
        <time>2024-04-07T06:41:08.071Z</time>
      </trkpt>
      <trkpt lat="48.17407" lon="6.56269">
        <ele>484.92198</ele>
        <time>2024-04-07T06:41:11.092Z</time>
      </trkpt>
      <trkpt lat="48.1741" lon="6.56253">
        <ele>484.48379</ele>
        <time>2024-04-07T06:41:15.088Z</time>
      </trkpt>
      <trkpt lat="48.17415" lon="6.56238">
        <ele>484.059565</ele>
        <time>2024-04-07T06:41:20.090Z</time>
      </trkpt>
      <trkpt lat="48.17419" lon="6.56222">
        <ele>483.607589</ele>
        <time>2024-04-07T06:41:24.091Z</time>
      </trkpt>
      <trkpt lat="48.17422" lon="6.56208">
        <ele>483.237293</ele>
        <time>2024-04-07T06:41:26.093Z</time>
      </trkpt>
      <trkpt lat="48.17427" lon="6.56189">
        <ele>482.71006</ele>
        <time>2024-04-07T06:41:29.089Z</time>
      </trkpt>
      <trkpt lat="48.17432" lon="6.56175">
        <ele>482.286784</ele>
        <time>2024-04-07T06:41:32.093Z</time>
      </trkpt>
      <trkpt lat="48.17439" lon="6.56162">
        <ele>481.865997</ele>
        <time>2024-04-07T06:41:35.089Z</time>
      </trkpt>
      <trkpt lat="48.17448" lon="6.56159">
        <ele>481.34396</ele>
        <time>2024-04-07T06:41:38.080Z</time>
      </trkpt>
      <trkpt lat="48.17459" lon="6.56157">
        <ele>480.635062</ele>
        <time>2024-04-07T06:41:41.091Z</time>
      </trkpt>
      <trkpt lat="48.1747" lon="6.56157">
        <ele>479.896359</ele>
        <time>2024-04-07T06:41:45.077Z</time>
      </trkpt>
      <trkpt lat="48.1748" lon="6.56156">
        <ele>479.222601</ele>
        <time>2024-04-07T06:41:48.093Z</time>
      </trkpt>
      <trkpt lat="48.1749" lon="6.56155">
        <ele>478.507926</ele>
        <time>2024-04-07T06:41:51.089Z</time>
      </trkpt>
      <trkpt lat="48.17502" lon="6.56152">
        <ele>477.692746</ele>
        <time>2024-04-07T06:41:54.089Z</time>
      </trkpt>
      <trkpt lat="48.17516" lon="6.5615">
        <ele>476.802637</ele>
        <time>2024-04-07T06:41:57.089Z</time>
      </trkpt>
      <trkpt lat="48.17525" lon="6.56147">
        <ele>476.155214</ele>
        <time>2024-04-07T06:41:59.090Z</time>
      </trkpt>
      <trkpt lat="48.17536" lon="6.56146">
        <ele>475.446783</ele>
        <time>2024-04-07T06:42:01.088Z</time>
      </trkpt>
      <trkpt lat="48.17547" lon="6.56143">
        <ele>474.686711</ele>
        <time>2024-04-07T06:42:03.089Z</time>
      </trkpt>
      <trkpt lat="48.17558" lon="6.5614">
        <ele>473.916415</ele>
        <time>2024-04-07T06:42:05.089Z</time>
      </trkpt>
      <trkpt lat="48.17567" lon="6.56137">
        <ele>473.310652</ele>
        <time>2024-04-07T06:42:07.088Z</time>
      </trkpt>
      <trkpt lat="48.17577" lon="6.56133">
        <ele>472.602964</ele>
        <time>2024-04-07T06:42:10.090Z</time>
      </trkpt>
      <trkpt lat="48.17587" lon="6.56129">
        <ele>471.927692</ele>
        <time>2024-04-07T06:42:12.091Z</time>
      </trkpt>
      <trkpt lat="48.17596" lon="6.56126">
        <ele>471.281843</ele>
        <time>2024-04-07T06:42:15.091Z</time>
      </trkpt>
      <trkpt lat="48.17607" lon="6.56117">
        <ele>470.447079</ele>
        <time>2024-04-07T06:42:20.091Z</time>
      </trkpt>
      <trkpt lat="48.17618" lon="6.56113">
        <ele>469.716468</ele>
        <time>2024-04-07T06:42:23.072Z</time>
      </trkpt>
      <trkpt lat="48.17629" lon="6.56109">
        <ele>470.70017</ele>
        <time>2024-04-07T06:42:26.087Z</time>
      </trkpt>
      <trkpt lat="48.17642" lon="6.56108">
        <ele>472.17579</ele>
        <time>2024-04-07T06:42:29.089Z</time>
      </trkpt>
      <trkpt lat="48.17651" lon="6.56107">
        <ele>473.227199</ele>
        <time>2024-04-07T06:42:31.092Z</time>
      </trkpt>
      <trkpt lat="48.17661" lon="6.56108">
        <ele>474.392003</ele>
        <time>2024-04-07T06:42:33.089Z</time>
      </trkpt>
      <trkpt lat="48.17673" lon="6.5611">
        <ele>475.72575</ele>
        <time>2024-04-07T06:42:37.088Z</time>
      </trkpt>
      <trkpt lat="48.17685" lon="6.56109">
        <ele>477.06053</ele>
        <time>2024-04-07T06:42:40.089Z</time>
      </trkpt>
      <trkpt lat="48.17697" lon="6.56108">
        <ele>478.421576</ele>
        <time>2024-04-07T06:42:43.073Z</time>
      </trkpt>
      <trkpt lat="48.17711" lon="6.56106">
        <ele>480.008009</ele>
        <time>2024-04-07T06:42:46.086Z</time>
      </trkpt>
      <trkpt lat="48.17722" lon="6.56106">
        <ele>481.308624</ele>
        <time>2024-04-07T06:42:48.064Z</time>
      </trkpt>
      <trkpt lat="48.17734" lon="6.56106">
        <ele>482.66505</ele>
        <time>2024-04-07T06:42:51.092Z</time>
      </trkpt>
      <trkpt lat="48.17748" lon="6.56107">
        <ele>484.18233</ele>
        <time>2024-04-07T06:42:54.092Z</time>
      </trkpt>
      <trkpt lat="48.17761" lon="6.5611">
        <ele>485.733937</ele>
        <time>2024-04-07T06:42:57.093Z</time>
      </trkpt>
      <trkpt lat="48.17772" lon="6.56113">
        <ele>486.920076</ele>
        <time>2024-04-07T06:42:59.088Z</time>
      </trkpt>
      <trkpt lat="48.1778" lon="6.56117">
        <ele>487.955141</ele>
        <time>2024-04-07T06:43:01.094Z</time>
      </trkpt>
      <trkpt lat="48.17791" lon="6.56123">
        <ele>489.255021</ele>
        <time>2024-04-07T06:43:04.092Z</time>
      </trkpt>
      <trkpt lat="48.17801" lon="6.56128">
        <ele>490.017736</ele>
        <time>2024-04-07T06:43:08.070Z</time>
      </trkpt>
      <trkpt lat="48.17811" lon="6.56134">
        <ele>490.2148</ele>
        <time>2024-04-07T06:43:13.089Z</time>
      </trkpt>
      <trkpt lat="48.1782" lon="6.5614">
        <ele>490.398678</ele>
        <time>2024-04-07T06:43:17.091Z</time>
      </trkpt>
      <trkpt lat="48.17829" lon="6.56143">
        <ele>490.581301</ele>
        <time>2024-04-07T06:43:19.092Z</time>
      </trkpt>
      <trkpt lat="48.17839" lon="6.56147">
        <ele>490.77505</ele>
        <time>2024-04-07T06:43:21.091Z</time>
      </trkpt>
      <trkpt lat="48.17849" lon="6.56153">
        <ele>490.971006</ele>
        <time>2024-04-07T06:43:24.093Z</time>
      </trkpt>
      <trkpt lat="48.17861" lon="6.5616">
        <ele>491.203348</ele>
        <time>2024-04-07T06:43:27.087Z</time>
      </trkpt>
      <trkpt lat="48.1787" lon="6.56166">
        <ele>491.393732</ele>
        <time>2024-04-07T06:43:30.091Z</time>
      </trkpt>
      <trkpt lat="48.17879" lon="6.56175">
        <ele>491.602767</ele>
        <time>2024-04-07T06:43:33.091Z</time>
      </trkpt>
      <trkpt lat="48.1789" lon="6.56182">
        <ele>491.827953</ele>
        <time>2024-04-07T06:43:36.090Z</time>
      </trkpt>
      <trkpt lat="48.179" lon="6.56191">
        <ele>492.041314</ele>
        <time>2024-04-07T06:43:39.091Z</time>
      </trkpt>
      <trkpt lat="48.1791" lon="6.56199">
        <ele>492.250193</ele>
        <time>2024-04-07T06:43:42.074Z</time>
      </trkpt>
      <trkpt lat="48.17919" lon="6.56204">
        <ele>492.423496</ele>
        <time>2024-04-07T06:43:44.092Z</time>
      </trkpt>
      <trkpt lat="48.17928" lon="6.56211">
        <ele>492.612154</ele>
        <time>2024-04-07T06:43:46.091Z</time>
      </trkpt>
      <trkpt lat="48.17937" lon="6.56218">
        <ele>492.803111</ele>
        <time>2024-04-07T06:43:48.071Z</time>
      </trkpt>
      <trkpt lat="48.17944" lon="6.56225">
        <ele>492.973278</ele>
        <time>2024-04-07T06:43:50.091Z</time>
      </trkpt>
      <trkpt lat="48.17956" lon="6.56237">
        <ele>493.230479</ele>
        <time>2024-04-07T06:43:53.091Z</time>
      </trkpt>
      <trkpt lat="48.17964" lon="6.56244">
        <ele>492.891264</ele>
        <time>2024-04-07T06:43:55.094Z</time>
      </trkpt>
      <trkpt lat="48.17973" lon="6.56251">
        <ele>492.188163</ele>
        <time>2024-04-07T06:43:57.093Z</time>
      </trkpt>
      <trkpt lat="48.17982" lon="6.56257">
        <ele>491.558374</ele>
        <time>2024-04-07T06:43:59.093Z</time>
      </trkpt>
      <trkpt lat="48.1799" lon="6.56265">
        <ele>490.904012</ele>
        <time>2024-04-07T06:44:01.092Z</time>
      </trkpt>
      <trkpt lat="48.18001" lon="6.56275">
        <ele>490.007476</ele>
        <time>2024-04-07T06:44:04.091Z</time>
      </trkpt>
      <trkpt lat="48.18009" lon="6.56284">
        <ele>489.330926</ele>
        <time>2024-04-07T06:44:06.091Z</time>
      </trkpt>
      <trkpt lat="48.18021" lon="6.56293">
        <ele>488.416326</ele>
        <time>2024-04-07T06:44:08.089Z</time>
      </trkpt>
      <trkpt lat="48.18031" lon="6.56301">
        <ele>487.620024</ele>
        <time>2024-04-07T06:44:10.092Z</time>
      </trkpt>
      <trkpt lat="48.18041" lon="6.56308">
        <ele>486.91718</ele>
        <time>2024-04-07T06:44:12.090Z</time>
      </trkpt>
      <trkpt lat="48.1805" lon="6.56317">
        <ele>486.151783</ele>
        <time>2024-04-07T06:44:14.092Z</time>
      </trkpt>
      <trkpt lat="48.1806" lon="6.56325">
        <ele>485.40502</ele>
        <time>2024-04-07T06:44:16.092Z</time>
      </trkpt>
      <trkpt lat="48.1807" lon="6.56333">
        <ele>484.590467</ele>
        <time>2024-04-07T06:44:18.075Z</time>
      </trkpt>
      <trkpt lat="48.1808" lon="6.5634">
        <ele>483.839876</ele>
        <time>2024-04-07T06:44:20.087Z</time>
      </trkpt>
      <trkpt lat="48.18092" lon="6.56348">
        <ele>482.984689</ele>
        <time>2024-04-07T06:44:22.091Z</time>
      </trkpt>
      <trkpt lat="48.18101" lon="6.56358">
        <ele>482.206774</ele>
        <time>2024-04-07T06:44:24.091Z</time>
      </trkpt>
      <trkpt lat="48.18109" lon="6.56366">
        <ele>481.537032</ele>
        <time>2024-04-07T06:44:26.090Z</time>
      </trkpt>
      <trkpt lat="48.18117" lon="6.56374">
        <ele>480.735749</ele>
        <time>2024-04-07T06:44:28.072Z</time>
      </trkpt>
      <trkpt lat="48.18128" lon="6.56384">
        <ele>478.855542</ele>
        <time>2024-04-07T06:44:31.089Z</time>
      </trkpt>
      <trkpt lat="48.18136" lon="6.56391">
        <ele>477.498725</ele>
        <time>2024-04-07T06:44:33.089Z</time>
      </trkpt>
      <trkpt lat="48.18146" lon="6.56402">
        <ele>475.703759</ele>
        <time>2024-04-07T06:44:36.091Z</time>
      </trkpt>
      <trkpt lat="48.18157" lon="6.56412">
        <ele>473.967441</ele>
        <time>2024-04-07T06:44:38.074Z</time>
      </trkpt>
      <trkpt lat="48.18166" lon="6.56421">
        <ele>472.373694</ele>
        <time>2024-04-07T06:44:40.088Z</time>
      </trkpt>
      <trkpt lat="48.18174" lon="6.56432">
        <ele>470.824524</ele>
        <time>2024-04-07T06:44:42.087Z</time>
      </trkpt>
      <trkpt lat="48.18182" lon="6.56442">
        <ele>469.3489</ele>
        <time>2024-04-07T06:44:44.089Z</time>
      </trkpt>
      <trkpt lat="48.18189" lon="6.5645">
        <ele>468.053714</ele>
        <time>2024-04-07T06:44:46.090Z</time>
      </trkpt>
      <trkpt lat="48.18196" lon="6.56459">
        <ele>466.758529</ele>
        <time>2024-04-07T06:44:48.073Z</time>
      </trkpt>
      <trkpt lat="48.18203" lon="6.56467">
        <ele>465.418151</ele>
        <time>2024-04-07T06:44:50.089Z</time>
      </trkpt>
      <trkpt lat="48.18212" lon="6.56474">
        <ele>463.934119</ele>
        <time>2024-04-07T06:44:52.078Z</time>
      </trkpt>
      <trkpt lat="48.18222" lon="6.56489">
        <ele>461.950486</ele>
        <time>2024-04-07T06:44:55.090Z</time>
      </trkpt>
      <trkpt lat="48.18232" lon="6.56503">
        <ele>460.054054</ele>
        <time>2024-04-07T06:44:58.071Z</time>
      </trkpt>
      <trkpt lat="48.1824" lon="6.56515">
        <ele>458.367259</ele>
        <time>2024-04-07T06:45:01.090Z</time>
      </trkpt>
      <trkpt lat="48.18249" lon="6.56524">
        <ele>456.772853</ele>
        <time>2024-04-07T06:45:04.090Z</time>
      </trkpt>
      <trkpt lat="48.18259" lon="6.56537">
        <ele>455.052169</ele>
        <time>2024-04-07T06:45:07.089Z</time>
      </trkpt>
      <trkpt lat="48.1827" lon="6.56548">
        <ele>454.27762</ele>
        <time>2024-04-07T06:45:10.089Z</time>
      </trkpt>
      <trkpt lat="48.18279" lon="6.56556">
        <ele>453.58997</ele>
        <time>2024-04-07T06:45:12.089Z</time>
      </trkpt>
      <trkpt lat="48.18293" lon="6.56566">
        <ele>452.641774</ele>
        <time>2024-04-07T06:45:14.086Z</time>
      </trkpt>
      <trkpt lat="48.18304" lon="6.56575">
        <ele>451.862665</ele>
        <time>2024-04-07T06:45:16.090Z</time>
      </trkpt>
      <trkpt lat="48.18319" lon="6.56583">
        <ele>450.882865</ele>
        <time>2024-04-07T06:45:18.068Z</time>
      </trkpt>
      <trkpt lat="48.18336" lon="6.56588">
        <ele>449.818781</ele>
        <time>2024-04-07T06:45:20.091Z</time>
      </trkpt>
      <trkpt lat="48.18345" lon="6.5659">
        <ele>449.260691</ele>
        <time>2024-04-07T06:45:21.088Z</time>
      </trkpt>
      <trkpt lat="48.18361" lon="6.56593">
        <ele>448.276364</ele>
        <time>2024-04-07T06:45:23.090Z</time>
      </trkpt>
      <trkpt lat="48.18377" lon="6.56596">
        <ele>447.314185</ele>
        <time>2024-04-07T06:45:25.092Z</time>
      </trkpt>
      <trkpt lat="48.18391" lon="6.566">
        <ele>446.387361</ele>
        <time>2024-04-07T06:45:27.094Z</time>
      </trkpt>
      <trkpt lat="48.18406" lon="6.56606">
        <ele>445.481405</ele>
        <time>2024-04-07T06:45:29.088Z</time>
      </trkpt>
      <trkpt lat="48.18421" lon="6.56616">
        <ele>444.461217</ele>
        <time>2024-04-07T06:45:31.092Z</time>
      </trkpt>
      <trkpt lat="48.18431" lon="6.56632">
        <ele>444.599869</ele>
        <time>2024-04-07T06:45:33.092Z</time>
      </trkpt>
      <trkpt lat="48.18437" lon="6.56653">
        <ele>445.471585</ele>
        <time>2024-04-07T06:45:35.067Z</time>
      </trkpt>
      <trkpt lat="48.18435" lon="6.5667">
        <ele>446.125111</ele>
        <time>2024-04-07T06:45:36.055Z</time>
      </trkpt>
      <trkpt lat="48.18433" lon="6.56687">
        <ele>446.749079</ele>
        <time>2024-04-07T06:45:37.048Z</time>
      </trkpt>
      <trkpt lat="48.18431" lon="6.56701">
        <ele>447.298242</ele>
        <time>2024-04-07T06:45:38.067Z</time>
      </trkpt>
      <trkpt lat="48.18428" lon="6.56725">
        <ele>448.23289</ele>
        <time>2024-04-07T06:45:40.084Z</time>
      </trkpt>
      <trkpt lat="48.18424" lon="6.56748">
        <ele>449.114847</ele>
        <time>2024-04-07T06:45:42.090Z</time>
      </trkpt>
      <trkpt lat="48.18422" lon="6.56773">
        <ele>450.074547</ele>
        <time>2024-04-07T06:45:44.088Z</time>
      </trkpt>
      <trkpt lat="48.18422" lon="6.56787">
        <ele>450.589586</ele>
        <time>2024-04-07T06:45:45.083Z</time>
      </trkpt>
      <trkpt lat="48.18424" lon="6.56812">
        <ele>451.527203</ele>
        <time>2024-04-07T06:45:47.094Z</time>
      </trkpt>
      <trkpt lat="48.18425" lon="6.56835">
        <ele>452.401796</ele>
        <time>2024-04-07T06:45:49.084Z</time>
      </trkpt>
      <trkpt lat="48.18425" lon="6.56853">
        <ele>453.078914</ele>
        <time>2024-04-07T06:45:51.092Z</time>
      </trkpt>
      <trkpt lat="48.18421" lon="6.5687">
        <ele>453.74045</ele>
        <time>2024-04-07T06:45:54.091Z</time>
      </trkpt>
      <trkpt lat="48.18412" lon="6.56868">
        <ele>454.302903</ele>
        <time>2024-04-07T06:46:00.084Z</time>
      </trkpt>
      <trkpt lat="48.18402" lon="6.56868">
        <ele>455.559635</ele>
        <time>2024-04-07T06:46:04.089Z</time>
      </trkpt>
      <trkpt lat="48.18389" lon="6.56867">
        <ele>457.31038</ele>
        <time>2024-04-07T06:46:07.091Z</time>
      </trkpt>
      <trkpt lat="48.18376" lon="6.56869">
        <ele>459.021259</ele>
        <time>2024-04-07T06:46:10.071Z</time>
      </trkpt>
      <trkpt lat="48.18363" lon="6.56878">
        <ele>460.795845</ele>
        <time>2024-04-07T06:46:13.091Z</time>
      </trkpt>
      <trkpt lat="48.18354" lon="6.56885">
        <ele>462.089898</ele>
        <time>2024-04-07T06:46:15.059Z</time>
      </trkpt>
      <trkpt lat="48.18344" lon="6.56895">
        <ele>463.721549</ele>
        <time>2024-04-07T06:46:18.074Z</time>
      </trkpt>
      <trkpt lat="48.18338" lon="6.56906">
        <ele>464.944076</ele>
        <time>2024-04-07T06:46:21.092Z</time>
      </trkpt>
      <trkpt lat="48.18335" lon="6.56919">
        <ele>466.133373</ele>
        <time>2024-04-07T06:46:24.080Z</time>
      </trkpt>
      <trkpt lat="48.18327" lon="6.56935">
        <ele>467.838551</ele>
        <time>2024-04-07T06:46:27.089Z</time>
      </trkpt>
      <trkpt lat="48.18319" lon="6.56951">
        <ele>469.56416</ele>
        <time>2024-04-07T06:46:29.088Z</time>
      </trkpt>
      <trkpt lat="48.18313" lon="6.56966">
        <ele>471.070593</ele>
        <time>2024-04-07T06:46:32.092Z</time>
      </trkpt>
      <trkpt lat="48.18316" lon="6.56984">
        <ele>472.608919</ele>
        <time>2024-04-07T06:46:35.090Z</time>
      </trkpt>
      <trkpt lat="48.18319" lon="6.57">
        <ele>474.096312</ele>
        <time>2024-04-07T06:46:38.075Z</time>
      </trkpt>
      <trkpt lat="48.18322" lon="6.57015">
        <ele>475.436369</ele>
        <time>2024-04-07T06:46:41.089Z</time>
      </trkpt>
      <trkpt lat="48.18322" lon="6.5703">
        <ele>476.775857</ele>
        <time>2024-04-07T06:46:43.090Z</time>
      </trkpt>
      <trkpt lat="48.18318" lon="6.57049">
        <ele>477.441569</ele>
        <time>2024-04-07T06:46:45.090Z</time>
      </trkpt>
      <trkpt lat="48.18318" lon="6.57064">
        <ele>477.296282</ele>
        <time>2024-04-07T06:46:47.089Z</time>
      </trkpt>
      <trkpt lat="48.18317" lon="6.57086">
        <ele>477.098722</ele>
        <time>2024-04-07T06:46:50.084Z</time>
      </trkpt>
      <trkpt lat="48.18311" lon="6.57105">
        <ele>476.905893</ele>
        <time>2024-04-07T06:46:53.094Z</time>
      </trkpt>
      <trkpt lat="48.18304" lon="6.57119">
        <ele>476.745198</ele>
        <time>2024-04-07T06:46:57.093Z</time>
      </trkpt>
      <trkpt lat="48.18296" lon="6.57132">
        <ele>476.58366</ele>
        <time>2024-04-07T06:47:00.091Z</time>
      </trkpt>
      <trkpt lat="48.18289" lon="6.57144">
        <ele>476.432266</ele>
        <time>2024-04-07T06:47:03.090Z</time>
      </trkpt>
      <trkpt lat="48.18281" lon="6.57155">
        <ele>476.284463</ele>
        <time>2024-04-07T06:47:07.089Z</time>
      </trkpt>
      <trkpt lat="48.18273" lon="6.57164">
        <ele>476.14159</ele>
        <time>2024-04-07T06:47:11.091Z</time>
      </trkpt>
      <trkpt lat="48.18263" lon="6.57171">
        <ele>475.997609</ele>
        <time>2024-04-07T06:47:17.093Z</time>
      </trkpt>
      <trkpt lat="48.18254" lon="6.57179">
        <ele>475.850972</ele>
        <time>2024-04-07T06:47:21.092Z</time>
      </trkpt>
      <trkpt lat="48.18249" lon="6.57194">
        <ele>475.697175</ele>
        <time>2024-04-07T06:47:25.090Z</time>
      </trkpt>
      <trkpt lat="48.18251" lon="6.57211">
        <ele>475.540397</ele>
        <time>2024-04-07T06:47:29.089Z</time>
      </trkpt>
      <trkpt lat="48.18248" lon="6.57227">
        <ele>475.385146</ele>
        <time>2024-04-07T06:47:32.090Z</time>
      </trkpt>
      <trkpt lat="48.18246" lon="6.57244">
        <ele>475.224625</ele>
        <time>2024-04-07T06:47:35.093Z</time>
      </trkpt>
      <trkpt lat="48.18245" lon="6.57258">
        <ele>475.092116</ele>
        <time>2024-04-07T06:47:38.071Z</time>
      </trkpt>
      <trkpt lat="48.18243" lon="6.57273">
        <ele>475.409879</ele>
        <time>2024-04-07T06:47:42.094Z</time>
      </trkpt>
      <trkpt lat="48.18241" lon="6.57287">
        <ele>475.883594</ele>
        <time>2024-04-07T06:47:45.095Z</time>
      </trkpt>
      <trkpt lat="48.18237" lon="6.573">
        <ele>476.351886</ele>
        <time>2024-04-07T06:47:48.078Z</time>
      </trkpt>
      <trkpt lat="48.18233" lon="6.57314">
        <ele>476.831505</ele>
        <time>2024-04-07T06:47:52.091Z</time>
      </trkpt>
      <trkpt lat="48.18228" lon="6.57327">
        <ele>477.299054</ele>
        <time>2024-04-07T06:47:56.094Z</time>
      </trkpt>
      <trkpt lat="48.18224" lon="6.57341">
        <ele>477.789352</ele>
        <time>2024-04-07T06:48:00.093Z</time>
      </trkpt>
      <trkpt lat="48.18219" lon="6.57357">
        <ele>478.337869</ele>
        <time>2024-04-07T06:48:04.091Z</time>
      </trkpt>
      <trkpt lat="48.18214" lon="6.5737">
        <ele>478.83736</ele>
        <time>2024-04-07T06:48:08.073Z</time>
      </trkpt>
      <trkpt lat="48.1821" lon="6.57383">
        <ele>479.279038</ele>
        <time>2024-04-07T06:48:12.091Z</time>
      </trkpt>
      <trkpt lat="48.18204" lon="6.57392">
        <ele>479.713609</ele>
        <time>2024-04-07T06:48:16.090Z</time>
      </trkpt>
      <trkpt lat="48.18195" lon="6.574">
        <ele>480.20561</ele>
        <time>2024-04-07T06:48:21.091Z</time>
      </trkpt>
      <trkpt lat="48.18186" lon="6.57401">
        <ele>480.652291</ele>
        <time>2024-04-07T06:48:28.070Z</time>
      </trkpt>
      <trkpt lat="48.18177" lon="6.57395">
        <ele>481.106271</ele>
        <time>2024-04-07T06:48:34.090Z</time>
      </trkpt>
      <trkpt lat="48.1817" lon="6.57385">
        <ele>481.580311</ele>
        <time>2024-04-07T06:48:39.091Z</time>
      </trkpt>
      <trkpt lat="48.18166" lon="6.57372">
        <ele>482.025946</ele>
        <time>2024-04-07T06:48:44.091Z</time>
      </trkpt>
      <trkpt lat="48.18164" lon="6.57358">
        <ele>482.500723</ele>
        <time>2024-04-07T06:48:48.089Z</time>
      </trkpt>
      <trkpt lat="48.18164" lon="6.57343">
        <ele>482.981143</ele>
        <time>2024-04-07T06:48:52.091Z</time>
      </trkpt>
      <trkpt lat="48.18159" lon="6.5733">
        <ele>483.433736</ele>
        <time>2024-04-07T06:48:55.092Z</time>
      </trkpt>
      <trkpt lat="48.18156" lon="6.57317">
        <ele>483.595589</ele>
        <time>2024-04-07T06:48:59.091Z</time>
      </trkpt>
      <trkpt lat="48.18153" lon="6.57302">
        <ele>483.419768</ele>
        <time>2024-04-07T06:49:03.090Z</time>
      </trkpt>
      <trkpt lat="48.18151" lon="6.57287">
        <ele>483.24881</ele>
        <time>2024-04-07T06:49:07.088Z</time>
      </trkpt>
      <trkpt lat="48.18149" lon="6.57272">
        <ele>483.078201</ele>
        <time>2024-04-07T06:49:10.088Z</time>
      </trkpt>
      <trkpt lat="48.18147" lon="6.57258">
        <ele>482.920366</ele>
        <time>2024-04-07T06:49:13.088Z</time>
      </trkpt>
      <trkpt lat="48.18145" lon="6.57244">
        <ele>482.764407</ele>
        <time>2024-04-07T06:49:15.090Z</time>
      </trkpt>
      <trkpt lat="48.18142" lon="6.5723">
        <ele>482.599097</ele>
        <time>2024-04-07T06:49:18.093Z</time>
      </trkpt>
      <trkpt lat="48.1814" lon="6.57216">
        <ele>482.4386</ele>
        <time>2024-04-07T06:49:21.089Z</time>
      </trkpt>
      <trkpt lat="48.18135" lon="6.57197">
        <ele>482.214161</ele>
        <time>2024-04-07T06:49:24.088Z</time>
      </trkpt>
      <trkpt lat="48.18131" lon="6.5718">
        <ele>482.019333</ele>
        <time>2024-04-07T06:49:27.090Z</time>
      </trkpt>
      <trkpt lat="48.18128" lon="6.57162">
        <ele>481.810625</ele>
        <time>2024-04-07T06:49:30.091Z</time>
      </trkpt>
      <trkpt lat="48.18124" lon="6.57147">
        <ele>481.631626</ele>
        <time>2024-04-07T06:49:33.086Z</time>
      </trkpt>
      <trkpt lat="48.18119" lon="6.57132">
        <ele>481.439962</ele>
        <time>2024-04-07T06:49:36.092Z</time>
      </trkpt>
      <trkpt lat="48.1811" lon="6.57118">
        <ele>481.219319</ele>
        <time>2024-04-07T06:49:38.077Z</time>
      </trkpt>
      <trkpt lat="48.18096" lon="6.57103">
        <ele>480.932087</ele>
        <time>2024-04-07T06:49:40.087Z</time>
      </trkpt>
      <trkpt lat="48.18085" lon="6.57091">
        <ele>480.705022</ele>
        <time>2024-04-07T06:49:42.091Z</time>
      </trkpt>
      <trkpt lat="48.18075" lon="6.57081">
        <ele>480.370899</ele>
        <time>2024-04-07T06:49:44.089Z</time>
      </trkpt>
      <trkpt lat="48.18064" lon="6.57074">
        <ele>479.994237</ele>
        <time>2024-04-07T06:49:46.095Z</time>
      </trkpt>
      <trkpt lat="48.18047" lon="6.5707">
        <ele>479.48083</ele>
        <time>2024-04-07T06:49:48.083Z</time>
      </trkpt>
      <trkpt lat="48.18037" lon="6.57073">
        <ele>479.163651</ele>
        <time>2024-04-07T06:49:50.087Z</time>
      </trkpt>
      <trkpt lat="48.1803" lon="6.57083">
        <ele>478.856866</ele>
        <time>2024-04-07T06:49:52.092Z</time>
      </trkpt>
      <trkpt lat="48.18022" lon="6.57094">
        <ele>478.523438</ele>
        <time>2024-04-07T06:49:54.088Z</time>
      </trkpt>
      <trkpt lat="48.18016" lon="6.57105">
        <ele>478.226994</ele>
        <time>2024-04-07T06:49:56.092Z</time>
      </trkpt>
      <trkpt lat="48.18011" lon="6.57122">
        <ele>477.840378</ele>
        <time>2024-04-07T06:49:59.092Z</time>
      </trkpt>
      <trkpt lat="48.18007" lon="6.57138">
        <ele>477.500932</ele>
        <time>2024-04-07T06:50:02.091Z</time>
      </trkpt>
      <trkpt lat="48.18004" lon="6.5715">
        <ele>477.212772</ele>
        <time>2024-04-07T06:50:04.093Z</time>
      </trkpt>
      <trkpt lat="48.17998" lon="6.57164">
        <ele>476.88625</ele>
        <time>2024-04-07T06:50:06.092Z</time>
      </trkpt>
      <trkpt lat="48.17991" lon="6.57176">
        <ele>476.562969</ele>
        <time>2024-04-07T06:50:08.074Z</time>
      </trkpt>
      <trkpt lat="48.17984" lon="6.57186">
        <ele>476.249645</ele>
        <time>2024-04-07T06:50:10.091Z</time>
      </trkpt>
      <trkpt lat="48.17975" lon="6.57197">
        <ele>475.885172</ele>
        <time>2024-04-07T06:50:12.089Z</time>
      </trkpt>
      <trkpt lat="48.17965" lon="6.57209">
        <ele>475.496395</ele>
        <time>2024-04-07T06:50:14.094Z</time>
      </trkpt>
      <trkpt lat="48.17956" lon="6.57222">
        <ele>475.104907</ele>
        <time>2024-04-07T06:50:16.091Z</time>
      </trkpt>
      <trkpt lat="48.17948" lon="6.57235">
        <ele>474.789079</ele>
        <time>2024-04-07T06:50:18.071Z</time>
      </trkpt>
      <trkpt lat="48.17937" lon="6.57252">
        <ele>474.371448</ele>
        <time>2024-04-07T06:50:20.091Z</time>
      </trkpt>
      <trkpt lat="48.17931" lon="6.57263">
        <ele>474.116931</ele>
        <time>2024-04-07T06:50:21.093Z</time>
      </trkpt>
      <trkpt lat="48.17926" lon="6.57285">
        <ele>473.697216</ele>
        <time>2024-04-07T06:50:23.089Z</time>
      </trkpt>
      <trkpt lat="48.17924" lon="6.57308">
        <ele>473.279885</ele>
        <time>2024-04-07T06:50:25.089Z</time>
      </trkpt>
      <trkpt lat="48.17924" lon="6.57322">
        <ele>473.02417</ele>
        <time>2024-04-07T06:50:26.092Z</time>
      </trkpt>
      <trkpt lat="48.17923" lon="6.57347">
        <ele>472.572061</ele>
        <time>2024-04-07T06:50:28.073Z</time>
      </trkpt>
      <trkpt lat="48.17924" lon="6.57372">
        <ele>472.123285</ele>
        <time>2024-04-07T06:50:30.092Z</time>
      </trkpt>
      <trkpt lat="48.17928" lon="6.57394">
        <ele>471.703971</ele>
        <time>2024-04-07T06:50:32.094Z</time>
      </trkpt>
      <trkpt lat="48.17937" lon="6.57414">
        <ele>471.267996</ele>
        <time>2024-04-07T06:50:34.092Z</time>
      </trkpt>
      <trkpt lat="48.17948" lon="6.57433">
        <ele>470.820166</ele>
        <time>2024-04-07T06:50:36.071Z</time>
      </trkpt>
      <trkpt lat="48.17955" lon="6.57447">
        <ele>470.503391</ele>
        <time>2024-04-07T06:50:37.090Z</time>
      </trkpt>
      <trkpt lat="48.17965" lon="6.57465">
        <ele>469.347334</ele>
        <time>2024-04-07T06:50:39.092Z</time>
      </trkpt>
      <trkpt lat="48.17972" lon="6.57484">
        <ele>466.888666</ele>
        <time>2024-04-07T06:50:41.090Z</time>
      </trkpt>
      <trkpt lat="48.17977" lon="6.575">
        <ele>464.923856</ele>
        <time>2024-04-07T06:50:43.089Z</time>
      </trkpt>
      <trkpt lat="48.17981" lon="6.57518">
        <ele>462.795683</ele>
        <time>2024-04-07T06:50:46.087Z</time>
      </trkpt>
      <trkpt lat="48.17984" lon="6.57532">
        <ele>461.179183</ele>
        <time>2024-04-07T06:50:50.087Z</time>
      </trkpt>
      <trkpt lat="48.17977" lon="6.57544">
        <ele>459.326829</ele>
        <time>2024-04-07T06:50:54.087Z</time>
      </trkpt>
      <trkpt lat="48.17967" lon="6.5755">
        <ele>457.564615</ele>
        <time>2024-04-07T06:50:57.090Z</time>
      </trkpt>
      <trkpt lat="48.17956" lon="6.57546">
        <ele>455.728779</ele>
        <time>2024-04-07T06:51:01.068Z</time>
      </trkpt>
      <trkpt lat="48.17947" lon="6.57542">
        <ele>454.213873</ele>
        <time>2024-04-07T06:51:04.083Z</time>
      </trkpt>
      <trkpt lat="48.17936" lon="6.57541">
        <ele>452.332134</ele>
        <time>2024-04-07T06:51:07.089Z</time>
      </trkpt>
      <trkpt lat="48.17926" lon="6.57546">
        <ele>450.546116</ele>
        <time>2024-04-07T06:51:09.089Z</time>
      </trkpt>
      <trkpt lat="48.17917" lon="6.57556">
        <ele>448.701365</ele>
        <time>2024-04-07T06:51:11.075Z</time>
      </trkpt>
      <trkpt lat="48.17913" lon="6.57568">
        <ele>447.174853</ele>
        <time>2024-04-07T06:51:13.089Z</time>
      </trkpt>
      <trkpt lat="48.17911" lon="6.57586">
        <ele>445.184695</ele>
        <time>2024-04-07T06:51:16.066Z</time>
      </trkpt>
      <trkpt lat="48.1791" lon="6.57599">
        <ele>443.683762</ele>
        <time>2024-04-07T06:51:18.071Z</time>
      </trkpt>
      <trkpt lat="48.17908" lon="6.57617">
        <ele>441.69702</ele>
        <time>2024-04-07T06:51:21.082Z</time>
      </trkpt>
      <trkpt lat="48.17901" lon="6.5763">
        <ele>440.55229</ele>
        <time>2024-04-07T06:51:24.090Z</time>
      </trkpt>
      <trkpt lat="48.17891" lon="6.57635">
        <ele>441.430683</ele>
        <time>2024-04-07T06:51:27.056Z</time>
      </trkpt>
      <trkpt lat="48.1788" lon="6.57635">
        <ele>442.468563</ele>
        <time>2024-04-07T06:51:30.088Z</time>
      </trkpt>
      <trkpt lat="48.17871" lon="6.57632">
        <ele>443.269093</ele>
        <time>2024-04-07T06:51:33.088Z</time>
      </trkpt>
      <trkpt lat="48.1786" lon="6.57631">
        <ele>444.193173</ele>
        <time>2024-04-07T06:51:37.091Z</time>
      </trkpt>
      <trkpt lat="48.17851" lon="6.57628">
        <ele>445.066838</ele>
        <time>2024-04-07T06:51:42.089Z</time>
      </trkpt>
      <trkpt lat="48.1784" lon="6.57629">
        <ele>446.066037</ele>
        <time>2024-04-07T06:51:46.045Z</time>
      </trkpt>
      <trkpt lat="48.1783" lon="6.57632">
        <ele>446.901204</ele>
        <time>2024-04-07T06:51:49.051Z</time>
      </trkpt>
      <trkpt lat="48.17818" lon="6.57634">
        <ele>447.97925</ele>
        <time>2024-04-07T06:51:53.086Z</time>
      </trkpt>
      <trkpt lat="48.17807" lon="6.57636">
        <ele>448.962164</ele>
        <time>2024-04-07T06:51:56.086Z</time>
      </trkpt>
      <trkpt lat="48.17799" lon="6.5764">
        <ele>449.77291</ele>
        <time>2024-04-07T06:51:59.088Z</time>
      </trkpt>
      <trkpt lat="48.17789" lon="6.57644">
        <ele>450.612027</ele>
        <time>2024-04-07T06:52:02.087Z</time>
      </trkpt>
      <trkpt lat="48.17781" lon="6.57647">
        <ele>451.412558</ele>
        <time>2024-04-07T06:52:05.083Z</time>
      </trkpt>
      <trkpt lat="48.17771" lon="6.57652">
        <ele>452.351435</ele>
        <time>2024-04-07T06:52:08.083Z</time>
      </trkpt>
      <trkpt lat="48.17762" lon="6.57659">
        <ele>453.226268</ele>
        <time>2024-04-07T06:52:12.096Z</time>
      </trkpt>
      <trkpt lat="48.17752" lon="6.57665">
        <ele>454.22301</ele>
        <time>2024-04-07T06:52:16.090Z</time>
      </trkpt>
      <trkpt lat="48.17743" lon="6.57671">
        <ele>455.07569</ele>
        <time>2024-04-07T06:52:19.090Z</time>
      </trkpt>
      <trkpt lat="48.17734" lon="6.57677">
        <ele>455.936499</ele>
        <time>2024-04-07T06:52:24.092Z</time>
      </trkpt>
      <trkpt lat="48.17725" lon="6.57684">
        <ele>456.800297</ele>
        <time>2024-04-07T06:52:29.092Z</time>
      </trkpt>
      <trkpt lat="48.17713" lon="6.57692">
        <ele>457.981375</ele>
        <time>2024-04-07T06:52:33.091Z</time>
      </trkpt>
      <trkpt lat="48.17703" lon="6.577">
        <ele>459.055322</ele>
        <time>2024-04-07T06:52:36.088Z</time>
      </trkpt>
      <trkpt lat="48.17694" lon="6.57707">
        <ele>459.907606</ele>
        <time>2024-04-07T06:52:39.089Z</time>
      </trkpt>
      <trkpt lat="48.17687" lon="6.57718">
        <ele>460.831176</ele>
        <time>2024-04-07T06:52:43.091Z</time>
      </trkpt>
      <trkpt lat="48.17678" lon="6.57726">
        <ele>461.787694</ele>
        <time>2024-04-07T06:52:47.091Z</time>
      </trkpt>
      <trkpt lat="48.1767" lon="6.57737">
        <ele>462.719167</ele>
        <time>2024-04-07T06:52:53.090Z</time>
      </trkpt>
      <trkpt lat="48.17666" lon="6.5775">
        <ele>463.529403</ele>
        <time>2024-04-07T06:52:58.071Z</time>
      </trkpt>
      <trkpt lat="48.17657" lon="6.57759">
        <ele>464.535105</ele>
        <time>2024-04-07T06:53:03.092Z</time>
      </trkpt>
      <trkpt lat="48.1765" lon="6.57768">
        <ele>465.380524</ele>
        <time>2024-04-07T06:53:07.090Z</time>
      </trkpt>
      <trkpt lat="48.17643" lon="6.57778">
        <ele>466.251081</ele>
        <time>2024-04-07T06:53:14.092Z</time>
      </trkpt>
      <trkpt lat="48.17635" lon="6.57786">
        <ele>467.077135</ele>
        <time>2024-04-07T06:53:19.088Z</time>
      </trkpt>
      <trkpt lat="48.17628" lon="6.57798">
        <ele>467.985908</ele>
        <time>2024-04-07T06:53:23.090Z</time>
      </trkpt>
      <trkpt lat="48.17621" lon="6.57807">
        <ele>468.84835</ele>
        <time>2024-04-07T06:53:29.090Z</time>
      </trkpt>
      <trkpt lat="48.17615" lon="6.57818">
        <ele>469.702224</ele>
        <time>2024-04-07T06:53:34.093Z</time>
      </trkpt>
      <trkpt lat="48.17611" lon="6.57832">
        <ele>470.621956</ele>
        <time>2024-04-07T06:53:40.090Z</time>
      </trkpt>
      <trkpt lat="48.17606" lon="6.57843">
        <ele>471.43186</ele>
        <time>2024-04-07T06:53:45.092Z</time>
      </trkpt>
      <trkpt lat="48.17599" lon="6.57854">
        <ele>472.273676</ele>
        <time>2024-04-07T06:53:50.081Z</time>
      </trkpt>
      <trkpt lat="48.1759" lon="6.57861">
        <ele>472.494302</ele>
        <time>2024-04-07T06:53:55.091Z</time>
      </trkpt>
      <trkpt lat="48.17583" lon="6.5787">
        <ele>472.664656</ele>
        <time>2024-04-07T06:54:00.087Z</time>
      </trkpt>
      <trkpt lat="48.17576" lon="6.57879">
        <ele>472.833257</ele>
        <time>2024-04-07T06:54:05.094Z</time>
      </trkpt>
      <trkpt lat="48.17568" lon="6.57887">
        <ele>472.998286</ele>
        <time>2024-04-07T06:54:09.090Z</time>
      </trkpt>
      <trkpt lat="48.1756" lon="6.57897">
        <ele>473.181744</ele>
        <time>2024-04-07T06:54:13.089Z</time>
      </trkpt>
      <trkpt lat="48.17551" lon="6.57906">
        <ele>473.37167</ele>
        <time>2024-04-07T06:54:17.091Z</time>
      </trkpt>
      <trkpt lat="48.1754" lon="6.57914">
        <ele>473.583351</ele>
        <time>2024-04-07T06:54:21.093Z</time>
      </trkpt>
      <trkpt lat="48.17533" lon="6.57923">
        <ele>473.757021</ele>
        <time>2024-04-07T06:54:25.094Z</time>
      </trkpt>
      <trkpt lat="48.17535" lon="6.57938">
        <ele>473.929995</ele>
        <time>2024-04-07T06:54:30.092Z</time>
      </trkpt>
      <trkpt lat="48.17541" lon="6.57949">
        <ele>474.098692</ele>
        <time>2024-04-07T06:54:34.090Z</time>
      </trkpt>
      <trkpt lat="48.17549" lon="6.57957">
        <ele>474.278762</ele>
        <time>2024-04-07T06:54:38.077Z</time>
      </trkpt>
      <trkpt lat="48.17558" lon="6.57964">
        <ele>474.456813</ele>
        <time>2024-04-07T06:54:42.090Z</time>
      </trkpt>
      <trkpt lat="48.17567" lon="6.57971">
        <ele>474.631545</ele>
        <time>2024-04-07T06:54:46.088Z</time>
      </trkpt>
      <trkpt lat="48.17576" lon="6.57973">
        <ele>474.80231</ele>
        <time>2024-04-07T06:54:50.089Z</time>
      </trkpt>
      <trkpt lat="48.17586" lon="6.57974">
        <ele>474.974191</ele>
        <time>2024-04-07T06:54:53.091Z</time>
      </trkpt>
      <trkpt lat="48.17598" lon="6.57973">
        <ele>475.186858</ele>
        <time>2024-04-07T06:54:57.093Z</time>
      </trkpt>
      <trkpt lat="48.17608" lon="6.57971">
        <ele>475.361521</ele>
        <time>2024-04-07T06:55:00.092Z</time>
      </trkpt>
      <trkpt lat="48.17618" lon="6.57969">
        <ele>475.501092</ele>
        <time>2024-04-07T06:55:03.090Z</time>
      </trkpt>
      <trkpt lat="48.17628" lon="6.57968">
        <ele>475.451584</ele>
        <time>2024-04-07T06:55:06.089Z</time>
      </trkpt>
      <trkpt lat="48.17637" lon="6.57962">
        <ele>475.40471</ele>
        <time>2024-04-07T06:55:09.089Z</time>
      </trkpt>
      <trkpt lat="48.17646" lon="6.57955">
        <ele>475.352157</ele>
        <time>2024-04-07T06:55:12.093Z</time>
      </trkpt>
      <trkpt lat="48.17656" lon="6.57956">
        <ele>475.30318</ele>
        <time>2024-04-07T06:55:16.093Z</time>
      </trkpt>
      <trkpt lat="48.17667" lon="6.57957">
        <ele>475.251699</ele>
        <time>2024-04-07T06:55:21.090Z</time>
      </trkpt>
      <trkpt lat="48.17677" lon="6.57962">
        <ele>475.198603</ele>
        <time>2024-04-07T06:55:26.091Z</time>
      </trkpt>
      <trkpt lat="48.17687" lon="6.57962">
        <ele>475.152101</ele>
        <time>2024-04-07T06:55:30.089Z</time>
      </trkpt>
      <trkpt lat="48.17698" lon="6.57963">
        <ele>475.096599</ele>
        <time>2024-04-07T06:55:34.090Z</time>
      </trkpt>
      <trkpt lat="48.17709" lon="6.57964">
        <ele>475.040192</ele>
        <time>2024-04-07T06:55:38.069Z</time>
      </trkpt>
      <trkpt lat="48.17721" lon="6.57962">
        <ele>474.98255</ele>
        <time>2024-04-07T06:55:42.092Z</time>
      </trkpt>
      <trkpt lat="48.17732" lon="6.5796">
        <ele>474.927299</ele>
        <time>2024-04-07T06:55:45.094Z</time>
      </trkpt>
      <trkpt lat="48.17744" lon="6.57962">
        <ele>474.871769</ele>
        <time>2024-04-07T06:55:49.080Z</time>
      </trkpt>
      <trkpt lat="48.17753" lon="6.57962">
        <ele>474.826246</ele>
        <time>2024-04-07T06:55:52.091Z</time>
      </trkpt>
      <trkpt lat="48.17764" lon="6.57961">
        <ele>474.772841</ele>
        <time>2024-04-07T06:55:55.088Z</time>
      </trkpt>
      <trkpt lat="48.17774" lon="6.57963">
        <ele>474.72046</ele>
        <time>2024-04-07T06:55:59.088Z</time>
      </trkpt>
      <trkpt lat="48.17784" lon="6.57964">
        <ele>474.671401</ele>
        <time>2024-04-07T06:56:02.089Z</time>
      </trkpt>
      <trkpt lat="48.17794" lon="6.57964">
        <ele>474.653546</ele>
        <time>2024-04-07T06:56:06.093Z</time>
      </trkpt>
      <trkpt lat="48.17803" lon="6.57966">
        <ele>475.103968</ele>
        <time>2024-04-07T06:56:08.086Z</time>
      </trkpt>
      <trkpt lat="48.17817" lon="6.5797">
        <ele>475.797709</ele>
        <time>2024-04-07T06:56:11.087Z</time>
      </trkpt>
      <trkpt lat="48.17828" lon="6.57976">
        <ele>476.37042</ele>
        <time>2024-04-07T06:56:14.092Z</time>
      </trkpt>
      <trkpt lat="48.17837" lon="6.57977">
        <ele>476.824363</ele>
        <time>2024-04-07T06:56:17.076Z</time>
      </trkpt>
      <trkpt lat="48.17848" lon="6.57974">
        <ele>477.336906</ele>
        <time>2024-04-07T06:56:20.091Z</time>
      </trkpt>
      <trkpt lat="48.17857" lon="6.57974">
        <ele>477.787514</ele>
        <time>2024-04-07T06:56:23.089Z</time>
      </trkpt>
      <trkpt lat="48.17865" lon="6.57981">
        <ele>478.232465</ele>
        <time>2024-04-07T06:56:27.090Z</time>
      </trkpt>
      <trkpt lat="48.17875" lon="6.5799">
        <ele>478.801706</ele>
        <time>2024-04-07T06:56:30.089Z</time>
      </trkpt>
      <trkpt lat="48.17883" lon="6.57998">
        <ele>479.245687</ele>
        <time>2024-04-07T06:56:33.087Z</time>
      </trkpt>
      <trkpt lat="48.17887" lon="6.5801">
        <ele>479.695323</ele>
        <time>2024-04-07T06:56:37.086Z</time>
      </trkpt>
      <trkpt lat="48.17893" lon="6.58023">
        <ele>480.187618</ele>
        <time>2024-04-07T06:56:41.063Z</time>
      </trkpt>
      <trkpt lat="48.17899" lon="6.58038">
        <ele>480.779003</ele>
        <time>2024-04-07T06:56:45.090Z</time>
      </trkpt>
      <trkpt lat="48.17903" lon="6.58052">
        <ele>481.271094</ele>
        <time>2024-04-07T06:56:50.089Z</time>
      </trkpt>
      <trkpt lat="48.17908" lon="6.58064">
        <ele>481.709273</ele>
        <time>2024-04-07T06:56:55.091Z</time>
      </trkpt>
      <trkpt lat="48.17913" lon="6.5808">
        <ele>482.277415</ele>
        <time>2024-04-07T06:57:02.093Z</time>
      </trkpt>
      <trkpt lat="48.17918" lon="6.58091">
        <ele>482.734884</ele>
        <time>2024-04-07T06:57:06.086Z</time>
      </trkpt>
      <trkpt lat="48.17924" lon="6.58102">
        <ele>483.174838</ele>
        <time>2024-04-07T06:57:09.092Z</time>
      </trkpt>
      <trkpt lat="48.1793" lon="6.58117">
        <ele>482.888371</ele>
        <time>2024-04-07T06:57:12.090Z</time>
      </trkpt>
      <trkpt lat="48.17937" lon="6.58128">
        <ele>482.336668</ele>
        <time>2024-04-07T06:57:14.088Z</time>
      </trkpt>
      <trkpt lat="48.17942" lon="6.58142">
        <ele>481.748706</ele>
        <time>2024-04-07T06:57:18.081Z</time>
      </trkpt>
      <trkpt lat="48.17949" lon="6.58158">
        <ele>481.096084</ele>
        <time>2024-04-07T06:57:23.093Z</time>
      </trkpt>
      <trkpt lat="48.17955" lon="6.58169">
        <ele>480.555922</ele>
        <time>2024-04-07T06:57:27.091Z</time>
      </trkpt>
      <trkpt lat="48.17961" lon="6.58182">
        <ele>479.969937</ele>
        <time>2024-04-07T06:57:31.088Z</time>
      </trkpt>
      <trkpt lat="48.17962" lon="6.58196">
        <ele>479.475651</ele>
        <time>2024-04-07T06:57:35.090Z</time>
      </trkpt>
      <trkpt lat="48.17962" lon="6.58209">
        <ele>478.985699</ele>
        <time>2024-04-07T06:57:39.092Z</time>
      </trkpt>
      <trkpt lat="48.17963" lon="6.58226">
        <ele>478.393903</ele>
        <time>2024-04-07T06:57:44.095Z</time>
      </trkpt>
      <trkpt lat="48.17966" lon="6.58238">
        <ele>477.90418</ele>
        <time>2024-04-07T06:57:48.075Z</time>
      </trkpt>
      <trkpt lat="48.17971" lon="6.58251">
        <ele>477.366136</ele>
        <time>2024-04-07T06:57:51.093Z</time>
      </trkpt>
      <trkpt lat="48.17977" lon="6.58271">
        <ele>476.56461</ele>
        <time>2024-04-07T06:57:58.088Z</time>
      </trkpt>
      <trkpt lat="48.17985" lon="6.58282">
        <ele>475.965234</ele>
        <time>2024-04-07T06:58:04.090Z</time>
      </trkpt>
      <trkpt lat="48.17993" lon="6.58294">
        <ele>475.339038</ele>
        <time>2024-04-07T06:58:08.066Z</time>
      </trkpt>
      <trkpt lat="48.17998" lon="6.58308">
        <ele>474.754259</ele>
        <time>2024-04-07T06:58:12.088Z</time>
      </trkpt>
      <trkpt lat="48.17999" lon="6.58325">
        <ele>474.147296</ele>
        <time>2024-04-07T06:58:17.091Z</time>
      </trkpt>
      <trkpt lat="48.17999" lon="6.58339">
        <ele>473.639173</ele>
        <time>2024-04-07T06:58:22.090Z</time>
      </trkpt>
      <trkpt lat="48.18013" lon="6.58364">
        <ele>473.434316</ele>
        <time>2024-04-07T06:58:46.094Z</time>
      </trkpt>
      <trkpt lat="48.1802" lon="6.58373">
        <ele>473.37848</ele>
        <time>2024-04-07T06:58:50.091Z</time>
      </trkpt>
      <trkpt lat="48.18025" lon="6.58385">
        <ele>473.322231</ele>
        <time>2024-04-07T06:58:54.090Z</time>
      </trkpt>
      <trkpt lat="48.18032" lon="6.58395">
        <ele>473.264472</ele>
        <time>2024-04-07T06:58:57.090Z</time>
      </trkpt>
      <trkpt lat="48.18038" lon="6.58406">
        <ele>473.208897</ele>
        <time>2024-04-07T06:59:00.083Z</time>
      </trkpt>
      <trkpt lat="48.18042" lon="6.58421">
        <ele>473.141695</ele>
        <time>2024-04-07T06:59:04.088Z</time>
      </trkpt>
      <trkpt lat="48.18044" lon="6.58435">
        <ele>473.086579</ele>
        <time>2024-04-07T06:59:08.076Z</time>
      </trkpt>
      <trkpt lat="48.18049" lon="6.5845">
        <ele>473.019724</ele>
        <time>2024-04-07T06:59:12.090Z</time>
      </trkpt>
      <trkpt lat="48.18054" lon="6.58462">
        <ele>472.965086</ele>
        <time>2024-04-07T06:59:15.091Z</time>
      </trkpt>
      <trkpt lat="48.1806" lon="6.58478">
        <ele>472.891565</ele>
        <time>2024-04-07T06:59:19.083Z</time>
      </trkpt>
      <trkpt lat="48.18063" lon="6.58494">
        <ele>472.824811</ele>
        <time>2024-04-07T06:59:23.086Z</time>
      </trkpt>
      <trkpt lat="48.18067" lon="6.5851">
        <ele>472.756886</ele>
        <time>2024-04-07T06:59:28.084Z</time>
      </trkpt>
      <trkpt lat="48.18071" lon="6.58526">
        <ele>472.690704</ele>
        <time>2024-04-07T06:59:32.088Z</time>
      </trkpt>
      <trkpt lat="48.18074" lon="6.5854">
        <ele>472.632603</ele>
        <time>2024-04-07T06:59:37.088Z</time>
      </trkpt>
      <trkpt lat="48.18077" lon="6.58554">
        <ele>472.572518</ele>
        <time>2024-04-07T06:59:41.089Z</time>
      </trkpt>
      <trkpt lat="48.18084" lon="6.58569">
        <ele>472.499094</ele>
        <time>2024-04-07T06:59:44.094Z</time>
      </trkpt>
      <trkpt lat="48.18089" lon="6.58581">
        <ele>472.463853</ele>
        <time>2024-04-07T06:59:46.088Z</time>
      </trkpt>
      <trkpt lat="48.18098" lon="6.58594">
        <ele>472.429059</ele>
        <time>2024-04-07T06:59:49.094Z</time>
      </trkpt>
      <trkpt lat="48.18104" lon="6.58605">
        <ele>472.403069</ele>
        <time>2024-04-07T06:59:51.090Z</time>
      </trkpt>
      <trkpt lat="48.18112" lon="6.58618">
        <ele>472.37184</ele>
        <time>2024-04-07T06:59:54.089Z</time>
      </trkpt>
      <trkpt lat="48.18119" lon="6.58629">
        <ele>472.342063</ele>
        <time>2024-04-07T06:59:57.088Z</time>
      </trkpt>
      <trkpt lat="48.18129" lon="6.58641">
        <ele>472.308154</ele>
        <time>2024-04-07T07:00:00.089Z</time>
      </trkpt>
      <trkpt lat="48.18135" lon="6.5865">
        <ele>472.282841</ele>
        <time>2024-04-07T07:00:02.090Z</time>
      </trkpt>
      <trkpt lat="48.18142" lon="6.58663">
        <ele>472.252506</ele>
        <time>2024-04-07T07:00:05.088Z</time>
      </trkpt>
      <trkpt lat="48.18149" lon="6.58675">
        <ele>472.224542</ele>
        <time>2024-04-07T07:00:08.084Z</time>
      </trkpt>
      <trkpt lat="48.18156" lon="6.58687">
        <ele>472.194418</ele>
        <time>2024-04-07T07:00:11.087Z</time>
      </trkpt>
      <trkpt lat="48.18163" lon="6.58696">
        <ele>472.169074</ele>
        <time>2024-04-07T07:00:13.080Z</time>
      </trkpt>
      <trkpt lat="48.18171" lon="6.58709">
        <ele>472.135193</ele>
        <time>2024-04-07T07:00:16.090Z</time>
      </trkpt>
      <trkpt lat="48.18178" lon="6.5872">
        <ele>472.109756</ele>
        <time>2024-04-07T07:00:18.091Z</time>
      </trkpt>
      <trkpt lat="48.18183" lon="6.58731">
        <ele>472.083911</ele>
        <time>2024-04-07T07:00:21.086Z</time>
      </trkpt>
      <trkpt lat="48.18189" lon="6.58741">
        <ele>472.058866</ele>
        <time>2024-04-07T07:00:25.087Z</time>
      </trkpt>
      <trkpt lat="48.18198" lon="6.58738">
        <ele>472.033611</ele>
        <time>2024-04-07T07:00:29.090Z</time>
      </trkpt>
      <trkpt lat="48.18208" lon="6.5874">
        <ele>472.004356</ele>
        <time>2024-04-07T07:00:33.089Z</time>
      </trkpt>
      <trkpt lat="48.18218" lon="6.58747">
        <ele>472.258753</ele>
        <time>2024-04-07T07:00:37.086Z</time>
      </trkpt>
      <trkpt lat="48.18227" lon="6.58754">
        <ele>473.119848</ele>
        <time>2024-04-07T07:00:41.068Z</time>
      </trkpt>
      <trkpt lat="48.18237" lon="6.58762">
        <ele>474.005512</ele>
        <time>2024-04-07T07:00:45.050Z</time>
      </trkpt>
      <trkpt lat="48.18246" lon="6.58767">
        <ele>474.780606</ele>
        <time>2024-04-07T07:00:48.055Z</time>
      </trkpt>
      <trkpt lat="48.18254" lon="6.58773">
        <ele>475.538085</ele>
        <time>2024-04-07T07:00:51.056Z</time>
      </trkpt>
      <trkpt lat="48.18263" lon="6.5878">
        <ele>476.361511</ele>
        <time>2024-04-07T07:00:55.056Z</time>
      </trkpt>
      <trkpt lat="48.18272" lon="6.5879">
        <ele>477.27953</ele>
        <time>2024-04-07T07:00:59.090Z</time>
      </trkpt>
      <trkpt lat="48.18281" lon="6.58799">
        <ele>478.146047</ele>
        <time>2024-04-07T07:01:04.086Z</time>
      </trkpt>
      <trkpt lat="48.1829" lon="6.58807">
        <ele>478.990751</ele>
        <time>2024-04-07T07:01:10.081Z</time>
      </trkpt>
      <trkpt lat="48.18296" lon="6.58818">
        <ele>479.756955</ele>
        <time>2024-04-07T07:01:14.087Z</time>
      </trkpt>
      <trkpt lat="48.18303" lon="6.58827">
        <ele>480.507048</ele>
        <time>2024-04-07T07:01:18.070Z</time>
      </trkpt>
      <trkpt lat="48.18311" lon="6.58839">
        <ele>481.412208</ele>
        <time>2024-04-07T07:01:23.073Z</time>
      </trkpt>
      <trkpt lat="48.18319" lon="6.58849">
        <ele>482.235646</ele>
        <time>2024-04-07T07:01:27.079Z</time>
      </trkpt>
      <trkpt lat="48.18327" lon="6.58859">
        <ele>483.143759</ele>
        <time>2024-04-07T07:01:31.085Z</time>
      </trkpt>
      <trkpt lat="48.18335" lon="6.58867">
        <ele>483.91923</ele>
        <time>2024-04-07T07:01:35.090Z</time>
      </trkpt>
      <trkpt lat="48.18345" lon="6.58872">
        <ele>484.721144</ele>
        <time>2024-04-07T07:01:38.069Z</time>
      </trkpt>
      <trkpt lat="48.18355" lon="6.58881">
        <ele>485.683898</ele>
        <time>2024-04-07T07:01:42.089Z</time>
      </trkpt>
      <trkpt lat="48.18366" lon="6.58886">
        <ele>486.637688</ele>
        <time>2024-04-07T07:01:46.086Z</time>
      </trkpt>
      <trkpt lat="48.18376" lon="6.58886">
        <ele>487.243686</ele>
        <time>2024-04-07T07:01:49.089Z</time>
      </trkpt>
      <trkpt lat="48.18385" lon="6.58886">
        <ele>487.812246</ele>
        <time>2024-04-07T07:01:53.090Z</time>
      </trkpt>
      <trkpt lat="48.18395" lon="6.58886">
        <ele>488.43684</ele>
        <time>2024-04-07T07:01:58.069Z</time>
      </trkpt>
      <trkpt lat="48.18405" lon="6.5889">
        <ele>489.091095</ele>
        <time>2024-04-07T07:02:03.084Z</time>
      </trkpt>
      <trkpt lat="48.18415" lon="6.58893">
        <ele>489.720087</ele>
        <time>2024-04-07T07:02:09.091Z</time>
      </trkpt>
      <trkpt lat="48.18423" lon="6.58899">
        <ele>490.284387</ele>
        <time>2024-04-07T07:02:13.091Z</time>
      </trkpt>
      <trkpt lat="48.18432" lon="6.58905">
        <ele>490.876368</ele>
        <time>2024-04-07T07:02:17.086Z</time>
      </trkpt>
      <trkpt lat="48.18445" lon="6.58919">
        <ele>491.861256</ele>
        <time>2024-04-07T07:02:29.089Z</time>
      </trkpt>
      <trkpt lat="48.18454" lon="6.5893">
        <ele>492.590704</ele>
        <time>2024-04-07T07:02:36.087Z</time>
      </trkpt>
      <trkpt lat="48.18463" lon="6.58937">
        <ele>493.262736</ele>
        <time>2024-04-07T07:02:40.089Z</time>
      </trkpt>
      <trkpt lat="48.18472" lon="6.58947">
        <ele>493.947109</ele>
        <time>2024-04-07T07:02:44.088Z</time>
      </trkpt>
      <trkpt lat="48.1848" lon="6.58956">
        <ele>494.576533</ele>
        <time>2024-04-07T07:02:50.087Z</time>
      </trkpt>
      <trkpt lat="48.18489" lon="6.58965">
        <ele>495.234606</ele>
        <time>2024-04-07T07:02:55.088Z</time>
      </trkpt>
      <trkpt lat="48.18497" lon="6.58973">
        <ele>495.85812</ele>
        <time>2024-04-07T07:03:01.090Z</time>
      </trkpt>
      <trkpt lat="48.18505" lon="6.58982">
        <ele>496.475099</ele>
        <time>2024-04-07T07:03:06.090Z</time>
      </trkpt>
      <trkpt lat="48.18512" lon="6.5899">
        <ele>497.04538</ele>
        <time>2024-04-07T07:03:11.088Z</time>
      </trkpt>
      <trkpt lat="48.18521" lon="6.58995">
        <ele>497.646302</ele>
        <time>2024-04-07T07:03:15.087Z</time>
      </trkpt>
      <trkpt lat="48.18533" lon="6.59">
        <ele>497.927531</ele>
        <time>2024-04-07T07:03:19.088Z</time>
      </trkpt>
      <trkpt lat="48.1854" lon="6.59008">
        <ele>498.016043</ele>
        <time>2024-04-07T07:03:23.084Z</time>
      </trkpt>
      <trkpt lat="48.18547" lon="6.59028">
        <ele>498.154425</ele>
        <time>2024-04-07T07:03:28.066Z</time>
      </trkpt>
      <trkpt lat="48.18555" lon="6.5904">
        <ele>498.260165</ele>
        <time>2024-04-07T07:03:30.079Z</time>
      </trkpt>
      <trkpt lat="48.1856" lon="6.59053">
        <ele>498.353048</ele>
        <time>2024-04-07T07:03:33.086Z</time>
      </trkpt>
      <trkpt lat="48.18565" lon="6.59066">
        <ele>498.451893</ele>
        <time>2024-04-07T07:03:37.074Z</time>
      </trkpt>
      <trkpt lat="48.18567" lon="6.59081">
        <ele>498.548073</ele>
        <time>2024-04-07T07:03:41.088Z</time>
      </trkpt>
      <trkpt lat="48.1857" lon="6.59096">
        <ele>498.64198</ele>
        <time>2024-04-07T07:03:45.089Z</time>
      </trkpt>
      <trkpt lat="48.18574" lon="6.59111">
        <ele>498.741531</ele>
        <time>2024-04-07T07:03:48.071Z</time>
      </trkpt>
      <trkpt lat="48.18577" lon="6.59125">
        <ele>498.837708</ele>
        <time>2024-04-07T07:03:51.088Z</time>
      </trkpt>
      <trkpt lat="48.18579" lon="6.59142">
        <ele>498.945329</ele>
        <time>2024-04-07T07:03:54.086Z</time>
      </trkpt>
      <trkpt lat="48.18579" lon="6.59158">
        <ele>499.045866</ele>
        <time>2024-04-07T07:03:57.088Z</time>
      </trkpt>
      <trkpt lat="48.18589" lon="6.5916">
        <ele>499.147521</ele>
        <time>2024-04-07T07:04:06.089Z</time>
      </trkpt>
      <trkpt lat="48.18596" lon="6.59151">
        <ele>499.233644</ele>
        <time>2024-04-07T07:04:10.088Z</time>
      </trkpt>
      <trkpt lat="48.18605" lon="6.59145">
        <ele>499.323697</ele>
        <time>2024-04-07T07:04:14.085Z</time>
      </trkpt>
      <trkpt lat="48.18614" lon="6.59141">
        <ele>499.412046</ele>
        <time>2024-04-07T07:04:19.087Z</time>
      </trkpt>
      <trkpt lat="48.18625" lon="6.59137">
        <ele>499.51864</ele>
        <time>2024-04-07T07:04:24.086Z</time>
      </trkpt>
      <trkpt lat="48.18635" lon="6.59131">
        <ele>500.343219</ele>
        <time>2024-04-07T07:04:28.071Z</time>
      </trkpt>
      <trkpt lat="48.18644" lon="6.59125">
        <ele>501.165811</ele>
        <time>2024-04-07T07:04:31.081Z</time>
      </trkpt>
      <trkpt lat="48.18653" lon="6.59118">
        <ele>502.069729</ele>
        <time>2024-04-07T07:04:34.090Z</time>
      </trkpt>
      <trkpt lat="48.18662" lon="6.59111">
        <ele>502.966413</ele>
        <time>2024-04-07T07:04:37.085Z</time>
      </trkpt>
      <trkpt lat="48.18672" lon="6.59103">
        <ele>503.907062</ele>
        <time>2024-04-07T07:04:40.088Z</time>
      </trkpt>
      <trkpt lat="48.18682" lon="6.59098">
        <ele>504.827983</ele>
        <time>2024-04-07T07:04:43.086Z</time>
      </trkpt>
      <trkpt lat="48.18692" lon="6.59094">
        <ele>505.785301</ele>
        <time>2024-04-07T07:04:46.086Z</time>
      </trkpt>
      <trkpt lat="48.18701" lon="6.59089">
        <ele>506.628057</ele>
        <time>2024-04-07T07:04:49.085Z</time>
      </trkpt>
      <trkpt lat="48.1871" lon="6.59084">
        <ele>507.415565</ele>
        <time>2024-04-07T07:04:52.086Z</time>
      </trkpt>
      <trkpt lat="48.1872" lon="6.59079">
        <ele>508.378025</ele>
        <time>2024-04-07T07:04:57.086Z</time>
      </trkpt>
      <trkpt lat="48.18729" lon="6.59072">
        <ele>509.239597</ele>
        <time>2024-04-07T07:05:02.086Z</time>
      </trkpt>
      <trkpt lat="48.18739" lon="6.59066">
        <ele>510.209361</ele>
        <time>2024-04-07T07:05:09.088Z</time>
      </trkpt>
      <trkpt lat="48.18748" lon="6.59061">
        <ele>511.054082</ele>
        <time>2024-04-07T07:05:13.085Z</time>
      </trkpt>
      <trkpt lat="48.18758" lon="6.59051">
        <ele>512.094509</ele>
        <time>2024-04-07T07:05:17.086Z</time>
      </trkpt>
      <trkpt lat="48.18767" lon="6.59045">
        <ele>512.93614</ele>
        <time>2024-04-07T07:05:19.085Z</time>
      </trkpt>
      <trkpt lat="48.18776" lon="6.59039">
        <ele>513.770602</ele>
        <time>2024-04-07T07:05:21.091Z</time>
      </trkpt>
      <trkpt lat="48.18786" lon="6.59035">
        <ele>514.659467</ele>
        <time>2024-04-07T07:05:24.088Z</time>
      </trkpt>
      <trkpt lat="48.18797" lon="6.59033">
        <ele>515.175137</ele>
        <time>2024-04-07T07:05:26.088Z</time>
      </trkpt>
      <trkpt lat="48.18807" lon="6.59032">
        <ele>514.998374</ele>
        <time>2024-04-07T07:05:29.086Z</time>
      </trkpt>
      <trkpt lat="48.18819" lon="6.59032">
        <ele>514.793244</ele>
        <time>2024-04-07T07:05:32.087Z</time>
      </trkpt>
      <trkpt lat="48.18832" lon="6.59031">
        <ele>514.58642</ele>
        <time>2024-04-07T07:05:36.081Z</time>
      </trkpt>
      <trkpt lat="48.1884" lon="6.59034">
        <ele>514.433973</ele>
        <time>2024-04-07T07:05:39.087Z</time>
      </trkpt>
      <trkpt lat="48.18851" lon="6.59037">
        <ele>514.251936</ele>
        <time>2024-04-07T07:05:43.086Z</time>
      </trkpt>
      <trkpt lat="48.18861" lon="6.59037">
        <ele>514.075679</ele>
        <time>2024-04-07T07:05:47.084Z</time>
      </trkpt>
      <trkpt lat="48.1887" lon="6.59041">
        <ele>513.918118</ele>
        <time>2024-04-07T07:05:52.088Z</time>
      </trkpt>
      <trkpt lat="48.18882" lon="6.59039">
        <ele>513.725546</ele>
        <time>2024-04-07T07:05:55.085Z</time>
      </trkpt>
      <trkpt lat="48.18892" lon="6.59037">
        <ele>513.55197</ele>
        <time>2024-04-07T07:05:58.073Z</time>
      </trkpt>
      <trkpt lat="48.18903" lon="6.59037">
        <ele>513.368862</ele>
        <time>2024-04-07T07:06:01.085Z</time>
      </trkpt>
      <trkpt lat="48.18912" lon="6.59038">
        <ele>513.202402</ele>
        <time>2024-04-07T07:06:04.086Z</time>
      </trkpt>
      <trkpt lat="48.18922" lon="6.5904">
        <ele>513.041666</ele>
        <time>2024-04-07T07:06:07.087Z</time>
      </trkpt>
      <trkpt lat="48.18932" lon="6.59039">
        <ele>512.872141</ele>
        <time>2024-04-07T07:06:11.088Z</time>
      </trkpt>
      <trkpt lat="48.18941" lon="6.59036">
        <ele>512.716956</ele>
        <time>2024-04-07T07:06:14.081Z</time>
      </trkpt>
      <trkpt lat="48.18947" lon="6.59022">
        <ele>512.523991</ele>
        <time>2024-04-07T07:06:17.085Z</time>
      </trkpt>
      <trkpt lat="48.18953" lon="6.59008">
        <ele>512.344282</ele>
        <time>2024-04-07T07:06:20.087Z</time>
      </trkpt>
      <trkpt lat="48.18955" lon="6.58992">
        <ele>512.092518</ele>
        <time>2024-04-07T07:06:23.083Z</time>
      </trkpt>
      <trkpt lat="48.18952" lon="6.58976">
        <ele>511.610179</ele>
        <time>2024-04-07T07:06:26.085Z</time>
      </trkpt>
      <trkpt lat="48.18948" lon="6.58964">
        <ele>511.198542</ele>
        <time>2024-04-07T07:06:29.071Z</time>
      </trkpt>
      <trkpt lat="48.1894" lon="6.58957">
        <ele>510.789548</ele>
        <time>2024-04-07T07:06:33.084Z</time>
      </trkpt>
      <trkpt lat="48.18929" lon="6.58947">
        <ele>510.24556</ele>
        <time>2024-04-07T07:06:37.086Z</time>
      </trkpt>
      <trkpt lat="48.18922" lon="6.58935">
        <ele>509.792076</ele>
        <time>2024-04-07T07:06:40.071Z</time>
      </trkpt>
      <trkpt lat="48.18915" lon="6.58924">
        <ele>509.327595</ele>
        <time>2024-04-07T07:06:43.079Z</time>
      </trkpt>
      <trkpt lat="48.18906" lon="6.5891">
        <ele>508.780514</ele>
        <time>2024-04-07T07:06:46.087Z</time>
      </trkpt>
      <trkpt lat="48.18901" lon="6.58893">
        <ele>508.228315</ele>
        <time>2024-04-07T07:06:49.069Z</time>
      </trkpt>
      <trkpt lat="48.18894" lon="6.58877">
        <ele>507.694896</ele>
        <time>2024-04-07T07:06:52.089Z</time>
      </trkpt>
      <trkpt lat="48.18891" lon="6.58859">
        <ele>507.157405</ele>
        <time>2024-04-07T07:06:55.088Z</time>
      </trkpt>
      <trkpt lat="48.18887" lon="6.58845">
        <ele>506.70057</ele>
        <time>2024-04-07T07:06:58.082Z</time>
      </trkpt>
      <trkpt lat="48.18883" lon="6.58831">
        <ele>506.262354</ele>
        <time>2024-04-07T07:07:01.084Z</time>
      </trkpt>
      <trkpt lat="48.18882" lon="6.58814">
        <ele>505.764523</ele>
        <time>2024-04-07T07:07:04.081Z</time>
      </trkpt>
      <trkpt lat="48.18883" lon="6.58799">
        <ele>505.324569</ele>
        <time>2024-04-07T07:07:07.088Z</time>
      </trkpt>
      <trkpt lat="48.18884" lon="6.58784">
        <ele>504.890111</ele>
        <time>2024-04-07T07:07:10.087Z</time>
      </trkpt>
      <trkpt lat="48.18887" lon="6.58769">
        <ele>504.419053</ele>
        <time>2024-04-07T07:07:13.087Z</time>
      </trkpt>
      <trkpt lat="48.18892" lon="6.58757">
        <ele>505.234133</ele>
        <time>2024-04-07T07:07:16.089Z</time>
      </trkpt>
      <trkpt lat="48.18893" lon="6.58739">
        <ele>506.657243</ele>
        <time>2024-04-07T07:07:20.086Z</time>
      </trkpt>
      <trkpt lat="48.18893" lon="6.58721">
        <ele>508.068571</ele>
        <time>2024-04-07T07:07:23.085Z</time>
      </trkpt>
      <trkpt lat="48.18899" lon="6.58703">
        <ele>509.681637</ele>
        <time>2024-04-07T07:07:26.084Z</time>
      </trkpt>
      <trkpt lat="48.18906" lon="6.5869">
        <ele>511.008098</ele>
        <time>2024-04-07T07:07:29.084Z</time>
      </trkpt>
      <trkpt lat="48.18915" lon="6.58684">
        <ele>512.172296</ele>
        <time>2024-04-07T07:07:35.089Z</time>
      </trkpt>
      <trkpt lat="48.18923" lon="6.58676">
        <ele>513.31289</ele>
        <time>2024-04-07T07:07:41.084Z</time>
      </trkpt>
      <trkpt lat="48.18933" lon="6.58671">
        <ele>514.496957</ele>
        <time>2024-04-07T07:07:48.071Z</time>
      </trkpt>
      <trkpt lat="48.18941" lon="6.58665">
        <ele>515.559871</ele>
        <time>2024-04-07T07:07:58.070Z</time>
      </trkpt>
      <trkpt lat="48.18983" lon="6.58635">
        <ele>521.019864</ele>
        <time>2024-04-07T07:10:05.091Z</time>
      </trkpt>
      <trkpt lat="48.19004" lon="6.58623">
        <ele>523.684787</ele>
        <time>2024-04-07T07:10:20.091Z</time>
      </trkpt>
      <trkpt lat="48.19013" lon="6.58618">
        <ele>524.786221</ele>
        <time>2024-04-07T07:10:24.085Z</time>
      </trkpt>
      <trkpt lat="48.19021" lon="6.58612">
        <ele>525.733487</ele>
        <time>2024-04-07T07:10:29.086Z</time>
      </trkpt>
      <trkpt lat="48.1903" lon="6.58607">
        <ele>526.392147</ele>
        <time>2024-04-07T07:10:35.087Z</time>
      </trkpt>
      <trkpt lat="48.19067" lon="6.58589">
        <ele>529.266816</ele>
        <time>2024-04-07T07:11:03.088Z</time>
      </trkpt>
      <trkpt lat="48.19085" lon="6.5858">
        <ele>530.609399</ele>
        <time>2024-04-07T07:11:16.087Z</time>
      </trkpt>
      <trkpt lat="48.19124" lon="6.58565">
        <ele>533.569908</ele>
        <time>2024-04-07T07:12:23.090Z</time>
      </trkpt>
      <trkpt lat="48.19143" lon="6.58541">
        <ele>535.344502</ele>
        <time>2024-04-07T07:12:43.090Z</time>
      </trkpt>
      <trkpt lat="48.19151" lon="6.58535">
        <ele>536.005792</ele>
        <time>2024-04-07T07:12:49.082Z</time>
      </trkpt>
      <trkpt lat="48.19161" lon="6.58528">
        <ele>536.83706</ele>
        <time>2024-04-07T07:12:53.085Z</time>
      </trkpt>
      <trkpt lat="48.1917" lon="6.58522">
        <ele>537.549027</ele>
        <time>2024-04-07T07:12:56.088Z</time>
      </trkpt>
      <trkpt lat="48.19181" lon="6.58517">
        <ele>538.350541</ele>
        <time>2024-04-07T07:12:59.071Z</time>
      </trkpt>
      <trkpt lat="48.19193" lon="6.58511">
        <ele>538.259123</ele>
        <time>2024-04-07T07:13:02.088Z</time>
      </trkpt>
      <trkpt lat="48.19203" lon="6.58504">
        <ele>537.931915</ele>
        <time>2024-04-07T07:13:05.087Z</time>
      </trkpt>
      <trkpt lat="48.19211" lon="6.58499">
        <ele>537.644096</ele>
        <time>2024-04-07T07:13:08.072Z</time>
      </trkpt>
      <trkpt lat="48.1922" lon="6.58494">
        <ele>537.360059</ele>
        <time>2024-04-07T07:13:11.089Z</time>
      </trkpt>
      <trkpt lat="48.19229" lon="6.5849">
        <ele>537.071756</ele>
        <time>2024-04-07T07:13:13.089Z</time>
      </trkpt>
      <trkpt lat="48.19239" lon="6.58486">
        <ele>536.746717</ele>
        <time>2024-04-07T07:13:15.089Z</time>
      </trkpt>
      <trkpt lat="48.1925" lon="6.58482">
        <ele>536.376581</ele>
        <time>2024-04-07T07:13:18.063Z</time>
      </trkpt>
      <trkpt lat="48.19259" lon="6.58487">
        <ele>536.069059</ele>
        <time>2024-04-07T07:13:25.089Z</time>
      </trkpt>
      <trkpt lat="48.19268" lon="6.58497">
        <ele>535.74172</ele>
        <time>2024-04-07T07:13:30.091Z</time>
      </trkpt>
      <trkpt lat="48.19271" lon="6.5851">
        <ele>535.448679</ele>
        <time>2024-04-07T07:13:35.087Z</time>
      </trkpt>
      <trkpt lat="48.19277" lon="6.58524">
        <ele>535.105419</ele>
        <time>2024-04-07T07:13:40.086Z</time>
      </trkpt>
      <trkpt lat="48.19281" lon="6.58536">
        <ele>534.809093</ele>
        <time>2024-04-07T07:13:43.092Z</time>
      </trkpt>
      <trkpt lat="48.19287" lon="6.58549">
        <ele>534.48192</ele>
        <time>2024-04-07T07:13:46.089Z</time>
      </trkpt>
      <trkpt lat="48.19293" lon="6.58563">
        <ele>534.14385</ele>
        <time>2024-04-07T07:13:49.091Z</time>
      </trkpt>
      <trkpt lat="48.19297" lon="6.58579">
        <ele>533.789472</ele>
        <time>2024-04-07T07:13:52.087Z</time>
      </trkpt>
      <trkpt lat="48.19301" lon="6.58591">
        <ele>533.49955</ele>
        <time>2024-04-07T07:13:54.087Z</time>
      </trkpt>
      <trkpt lat="48.19308" lon="6.58613">
        <ele>532.992699</ele>
        <time>2024-04-07T07:13:57.092Z</time>
      </trkpt>
      <trkpt lat="48.19314" lon="6.58633">
        <ele>532.561299</ele>
        <time>2024-04-07T07:13:59.092Z</time>
      </trkpt>
      <trkpt lat="48.19319" lon="6.58651">
        <ele>532.192588</ele>
        <time>2024-04-07T07:14:01.084Z</time>
      </trkpt>
      <trkpt lat="48.19324" lon="6.58669">
        <ele>531.805352</ele>
        <time>2024-04-07T07:14:03.086Z</time>
      </trkpt>
      <trkpt lat="48.19332" lon="6.58682">
        <ele>531.461687</ele>
        <time>2024-04-07T07:14:06.088Z</time>
      </trkpt>
      <trkpt lat="48.19342" lon="6.58693">
        <ele>531.101917</ele>
        <time>2024-04-07T07:14:09.089Z</time>
      </trkpt>
      <trkpt lat="48.19354" lon="6.58697">
        <ele>530.737616</ele>
        <time>2024-04-07T07:14:17.086Z</time>
      </trkpt>
      <trkpt lat="48.19364" lon="6.58695">
        <ele>530.462105</ele>
        <time>2024-04-07T07:14:21.088Z</time>
      </trkpt>
      <trkpt lat="48.19373" lon="6.5869">
        <ele>530.169433</ele>
        <time>2024-04-07T07:14:26.090Z</time>
      </trkpt>
      <trkpt lat="48.19383" lon="6.58686">
        <ele>529.880683</ele>
        <time>2024-04-07T07:14:31.051Z</time>
      </trkpt>
      <trkpt lat="48.19393" lon="6.58681">
        <ele>529.572706</ele>
        <time>2024-04-07T07:14:35.086Z</time>
      </trkpt>
      <trkpt lat="48.19402" lon="6.58676">
        <ele>529.291358</ele>
        <time>2024-04-07T07:14:39.090Z</time>
      </trkpt>
      <trkpt lat="48.1941" lon="6.5867">
        <ele>529.027552</ele>
        <time>2024-04-07T07:14:43.088Z</time>
      </trkpt>
      <trkpt lat="48.1942" lon="6.58662">
        <ele>528.705446</ele>
        <time>2024-04-07T07:14:48.074Z</time>
      </trkpt>
      <trkpt lat="48.1943" lon="6.58657">
        <ele>528.39381</ele>
        <time>2024-04-07T07:14:52.088Z</time>
      </trkpt>
      <trkpt lat="48.19439" lon="6.58653">
        <ele>528.12327</ele>
        <time>2024-04-07T07:14:57.088Z</time>
      </trkpt>
      <trkpt lat="48.19448" lon="6.5865">
        <ele>527.842349</ele>
        <time>2024-04-07T07:15:02.086Z</time>
      </trkpt>
      <trkpt lat="48.19456" lon="6.58642">
        <ele>527.736735</ele>
        <time>2024-04-07T07:15:07.088Z</time>
      </trkpt>
      <trkpt lat="48.19465" lon="6.58637">
        <ele>527.815036</ele>
        <time>2024-04-07T07:15:11.088Z</time>
      </trkpt>
      <trkpt lat="48.19474" lon="6.58631">
        <ele>527.892642</ele>
        <time>2024-04-07T07:15:14.089Z</time>
      </trkpt>
      <trkpt lat="48.19483" lon="6.58623">
        <ele>527.97823</ele>
        <time>2024-04-07T07:15:19.087Z</time>
      </trkpt>
      <trkpt lat="48.19493" lon="6.58617">
        <ele>528.061281</ele>
        <time>2024-04-07T07:15:23.088Z</time>
      </trkpt>
      <trkpt lat="48.19502" lon="6.58614">
        <ele>528.137708</ele>
        <time>2024-04-07T07:15:25.088Z</time>
      </trkpt>
      <trkpt lat="48.19512" lon="6.5861">
        <ele>528.223828</ele>
        <time>2024-04-07T07:15:27.086Z</time>
      </trkpt>
      <trkpt lat="48.19524" lon="6.58602">
        <ele>528.329851</ele>
        <time>2024-04-07T07:15:30.087Z</time>
      </trkpt>
      <trkpt lat="48.19533" lon="6.58598">
        <ele>528.403238</ele>
        <time>2024-04-07T07:15:32.088Z</time>
      </trkpt>
      <trkpt lat="48.19545" lon="6.58589">
        <ele>528.509933</ele>
        <time>2024-04-07T07:15:35.085Z</time>
      </trkpt>
      <trkpt lat="48.19554" lon="6.58585">
        <ele>528.58325</ele>
        <time>2024-04-07T07:15:37.089Z</time>
      </trkpt>
      <trkpt lat="48.19564" lon="6.58581">
        <ele>528.671692</ele>
        <time>2024-04-07T07:15:39.083Z</time>
      </trkpt>
      <trkpt lat="48.19576" lon="6.58574">
        <ele>528.775651</ele>
        <time>2024-04-07T07:15:41.082Z</time>
      </trkpt>
      <trkpt lat="48.19585" lon="6.58569">
        <ele>528.849965</ele>
        <time>2024-04-07T07:15:43.081Z</time>
      </trkpt>
      <trkpt lat="48.19594" lon="6.58565">
        <ele>528.928272</ele>
        <time>2024-04-07T07:15:45.078Z</time>
      </trkpt>
      <trkpt lat="48.19603" lon="6.58561">
        <ele>529.001281</ele>
        <time>2024-04-07T07:15:47.081Z</time>
      </trkpt>
      <trkpt lat="48.19612" lon="6.58557">
        <ele>529.074635</ele>
        <time>2024-04-07T07:15:49.079Z</time>
      </trkpt>
      <trkpt lat="48.19623" lon="6.5855">
        <ele>528.826882</ele>
        <time>2024-04-07T07:15:52.081Z</time>
      </trkpt>
      <trkpt lat="48.19633" lon="6.58541">
        <ele>527.501811</ele>
        <time>2024-04-07T07:15:55.081Z</time>
      </trkpt>
      <trkpt lat="48.19646" lon="6.58536">
        <ele>526.032006</ele>
        <time>2024-04-07T07:15:58.068Z</time>
      </trkpt>
      <trkpt lat="48.19656" lon="6.58532">
        <ele>524.947142</ele>
        <time>2024-04-07T07:16:00.086Z</time>
      </trkpt>
      <trkpt lat="48.19665" lon="6.58526">
        <ele>523.814322</ele>
        <time>2024-04-07T07:16:02.088Z</time>
      </trkpt>
      <trkpt lat="48.19674" lon="6.58521">
        <ele>522.817807</ele>
        <time>2024-04-07T07:16:04.089Z</time>
      </trkpt>
      <trkpt lat="48.19684" lon="6.58517">
        <ele>521.699377</ele>
        <time>2024-04-07T07:16:06.088Z</time>
      </trkpt>
      <trkpt lat="48.19693" lon="6.58511">
        <ele>520.561602</ele>
        <time>2024-04-07T07:16:08.079Z</time>
      </trkpt>
      <trkpt lat="48.19703" lon="6.58502">
        <ele>519.282093</ele>
        <time>2024-04-07T07:16:10.083Z</time>
      </trkpt>
      <trkpt lat="48.19714" lon="6.58496">
        <ele>517.997861</ele>
        <time>2024-04-07T07:16:13.085Z</time>
      </trkpt>
      <trkpt lat="48.19724" lon="6.58503">
        <ele>516.84622</ele>
        <time>2024-04-07T07:16:19.088Z</time>
      </trkpt>
      <trkpt lat="48.19731" lon="6.58515">
        <ele>515.669466</ele>
        <time>2024-04-07T07:16:22.087Z</time>
      </trkpt>
      <trkpt lat="48.19736" lon="6.58527">
        <ele>514.63447</ele>
        <time>2024-04-07T07:16:24.088Z</time>
      </trkpt>
      <trkpt lat="48.19741" lon="6.58538">
        <ele>513.642114</ele>
        <time>2024-04-07T07:16:26.087Z</time>
      </trkpt>
      <trkpt lat="48.19748" lon="6.58554">
        <ele>512.254311</ele>
        <time>2024-04-07T07:16:29.086Z</time>
      </trkpt>
      <trkpt lat="48.19753" lon="6.58569">
        <ele>511.002242</ele>
        <time>2024-04-07T07:16:32.087Z</time>
      </trkpt>
      <trkpt lat="48.19757" lon="6.58583">
        <ele>509.868039</ele>
        <time>2024-04-07T07:16:35.085Z</time>
      </trkpt>
      <trkpt lat="48.19763" lon="6.58598">
        <ele>509.830182</ele>
        <time>2024-04-07T07:16:39.091Z</time>
      </trkpt>
      <trkpt lat="48.19766" lon="6.58611">
        <ele>510.350076</ele>
        <time>2024-04-07T07:16:42.087Z</time>
      </trkpt>
      <trkpt lat="48.19762" lon="6.58628">
        <ele>510.99573</ele>
        <time>2024-04-07T07:16:46.072Z</time>
      </trkpt>
      <trkpt lat="48.19754" lon="6.58636">
        <ele>511.574782</ele>
        <time>2024-04-07T07:16:49.089Z</time>
      </trkpt>
      <trkpt lat="48.19743" lon="6.58645">
        <ele>512.267474</ele>
        <time>2024-04-07T07:16:52.087Z</time>
      </trkpt>
      <trkpt lat="48.19732" lon="6.58651">
        <ele>512.938328</ele>
        <time>2024-04-07T07:16:55.088Z</time>
      </trkpt>
      <trkpt lat="48.19719" lon="6.58656">
        <ele>513.659966</ele>
        <time>2024-04-07T07:16:58.067Z</time>
      </trkpt>
      <trkpt lat="48.19709" lon="6.58661">
        <ele>514.244478</ele>
        <time>2024-04-07T07:17:01.072Z</time>
      </trkpt>
      <trkpt lat="48.197" lon="6.58665">
        <ele>514.77407</ele>
        <time>2024-04-07T07:17:03.083Z</time>
      </trkpt>
      <trkpt lat="48.1969" lon="6.58673">
        <ele>515.413049</ele>
        <time>2024-04-07T07:17:07.083Z</time>
      </trkpt>
      <trkpt lat="48.19683" lon="6.58683">
        <ele>515.962951</ele>
        <time>2024-04-07T07:17:12.082Z</time>
      </trkpt>
      <trkpt lat="48.19675" lon="6.5869">
        <ele>516.472511</ele>
        <time>2024-04-07T07:17:18.074Z</time>
      </trkpt>
      <trkpt lat="48.19664" lon="6.58702">
        <ele>517.258833</ele>
        <time>2024-04-07T07:17:24.088Z</time>
      </trkpt>
      <trkpt lat="48.19655" lon="6.58711">
        <ele>517.850912</ele>
        <time>2024-04-07T07:17:28.072Z</time>
      </trkpt>
      <trkpt lat="48.19643" lon="6.58725">
        <ele>518.685393</ele>
        <time>2024-04-07T07:17:34.085Z</time>
      </trkpt>
      <trkpt lat="48.19634" lon="6.58732">
        <ele>519.282162</ele>
        <time>2024-04-07T07:17:37.089Z</time>
      </trkpt>
      <trkpt lat="48.19621" lon="6.58753">
        <ele>521.162533</ele>
        <time>2024-04-07T07:17:47.085Z</time>
      </trkpt>
      <trkpt lat="48.19615" lon="6.58763">
        <ele>522.224853</ele>
        <time>2024-04-07T07:17:51.086Z</time>
      </trkpt>
      <trkpt lat="48.19611" lon="6.58778">
        <ele>523.474219</ele>
        <time>2024-04-07T07:17:56.091Z</time>
      </trkpt>
      <trkpt lat="48.19603" lon="6.588">
        <ele>525.369212</ele>
        <time>2024-04-07T07:18:08.092Z</time>
      </trkpt>
      <trkpt lat="48.19595" lon="6.58868">
        <ele>530.632365</ele>
        <time>2024-04-07T07:24:47.084Z</time>
      </trkpt>
      <trkpt lat="48.19601" lon="6.58886">
        <ele>532.153713</ele>
        <time>2024-04-07T07:24:57.088Z</time>
      </trkpt>
      <trkpt lat="48.19603" lon="6.589">
        <ele>533.273909</ele>
        <time>2024-04-07T07:25:03.087Z</time>
      </trkpt>
      <trkpt lat="48.19605" lon="6.58913">
        <ele>534.33374</ele>
        <time>2024-04-07T07:25:08.087Z</time>
      </trkpt>
      <trkpt lat="48.19609" lon="6.58926">
        <ele>535.381911</ele>
        <time>2024-04-07T07:25:13.086Z</time>
      </trkpt>
      <trkpt lat="48.19612" lon="6.58939">
        <ele>536.476765</ele>
        <time>2024-04-07T07:25:17.092Z</time>
      </trkpt>
      <trkpt lat="48.19616" lon="6.58954">
        <ele>537.641737</ele>
        <time>2024-04-07T07:25:24.087Z</time>
      </trkpt>
      <trkpt lat="48.19618" lon="6.58968">
        <ele>538.790012</ele>
        <time>2024-04-07T07:25:30.089Z</time>
      </trkpt>
      <trkpt lat="48.1962" lon="6.58985">
        <ele>540.061624</ele>
        <time>2024-04-07T07:25:35.088Z</time>
      </trkpt>
      <trkpt lat="48.19623" lon="6.58999">
        <ele>539.539559</ele>
        <time>2024-04-07T07:25:40.089Z</time>
      </trkpt>
      <trkpt lat="48.19627" lon="6.59015">
        <ele>538.91177</ele>
        <time>2024-04-07T07:25:45.091Z</time>
      </trkpt>
      <trkpt lat="48.19631" lon="6.59032">
        <ele>538.205207</ele>
        <time>2024-04-07T07:25:49.090Z</time>
      </trkpt>
      <trkpt lat="48.19637" lon="6.59048">
        <ele>537.526417</ele>
        <time>2024-04-07T07:25:52.087Z</time>
      </trkpt>
      <trkpt lat="48.19641" lon="6.5906">
        <ele>537.013311</ele>
        <time>2024-04-07T07:25:55.090Z</time>
      </trkpt>
      <trkpt lat="48.19646" lon="6.59072">
        <ele>536.489617</ele>
        <time>2024-04-07T07:25:59.075Z</time>
      </trkpt>
      <trkpt lat="48.1965" lon="6.59087">
        <ele>535.874879</ele>
        <time>2024-04-07T07:26:02.091Z</time>
      </trkpt>
      <trkpt lat="48.19652" lon="6.59104">
        <ele>535.209596</ele>
        <time>2024-04-07T07:26:05.089Z</time>
      </trkpt>
      <trkpt lat="48.19648" lon="6.59118">
        <ele>534.641739</ele>
        <time>2024-04-07T07:26:10.089Z</time>
      </trkpt>
      <trkpt lat="48.19643" lon="6.5913">
        <ele>534.09896</ele>
        <time>2024-04-07T07:26:15.090Z</time>
      </trkpt>
      <trkpt lat="48.19639" lon="6.59146">
        <ele>533.47427</ele>
        <time>2024-04-07T07:26:20.087Z</time>
      </trkpt>
      <trkpt lat="48.19633" lon="6.5916">
        <ele>532.858638</ele>
        <time>2024-04-07T07:26:25.090Z</time>
      </trkpt>
      <trkpt lat="48.19626" lon="6.59171">
        <ele>532.276979</ele>
        <time>2024-04-07T07:26:32.088Z</time>
      </trkpt>
      <trkpt lat="48.1962" lon="6.59181">
        <ele>531.742367</ele>
        <time>2024-04-07T07:26:37.092Z</time>
      </trkpt>
      <trkpt lat="48.19612" lon="6.59189">
        <ele>531.226147</ele>
        <time>2024-04-07T07:26:42.088Z</time>
      </trkpt>
      <trkpt lat="48.19604" lon="6.59199">
        <ele>530.630999</ele>
        <time>2024-04-07T07:26:48.069Z</time>
      </trkpt>
      <trkpt lat="48.19598" lon="6.5921">
        <ele>530.083816</ele>
        <time>2024-04-07T07:26:52.085Z</time>
      </trkpt>
      <trkpt lat="48.19592" lon="6.59221">
        <ele>529.239295</ele>
        <time>2024-04-07T07:26:56.085Z</time>
      </trkpt>
      <trkpt lat="48.19589" lon="6.59238">
        <ele>528.068733</ele>
        <time>2024-04-07T07:27:01.086Z</time>
      </trkpt>
      <trkpt lat="48.19586" lon="6.59254">
        <ele>526.915175</ele>
        <time>2024-04-07T07:27:05.089Z</time>
      </trkpt>
      <trkpt lat="48.19585" lon="6.59268">
        <ele>525.941931</ele>
        <time>2024-04-07T07:27:08.086Z</time>
      </trkpt>
      <trkpt lat="48.19584" lon="6.59285">
        <ele>524.815731</ele>
        <time>2024-04-07T07:27:12.089Z</time>
      </trkpt>
      <trkpt lat="48.19585" lon="6.59302">
        <ele>523.63565</ele>
        <time>2024-04-07T07:27:16.087Z</time>
      </trkpt>
      <trkpt lat="48.19586" lon="6.59318">
        <ele>522.504826</ele>
        <time>2024-04-07T07:27:21.092Z</time>
      </trkpt>
      <trkpt lat="48.19584" lon="6.59334">
        <ele>521.410826</ele>
        <time>2024-04-07T07:27:25.092Z</time>
      </trkpt>
      <trkpt lat="48.1958" lon="6.59347">
        <ele>520.402172</ele>
        <time>2024-04-07T07:27:29.085Z</time>
      </trkpt>
      <trkpt lat="48.19574" lon="6.59359">
        <ele>519.38554</ele>
        <time>2024-04-07T07:27:33.076Z</time>
      </trkpt>
      <trkpt lat="48.19568" lon="6.59371">
        <ele>518.365853</ele>
        <time>2024-04-07T07:27:36.090Z</time>
      </trkpt>
      <trkpt lat="48.19562" lon="6.59383">
        <ele>517.331108</ele>
        <time>2024-04-07T07:27:39.085Z</time>
      </trkpt>
      <trkpt lat="48.19557" lon="6.59395">
        <ele>516.326775</ele>
        <time>2024-04-07T07:27:42.085Z</time>
      </trkpt>
      <trkpt lat="48.19552" lon="6.59408">
        <ele>515.28379</ele>
        <time>2024-04-07T07:27:45.088Z</time>
      </trkpt>
      <trkpt lat="48.19547" lon="6.59425">
        <ele>514.057272</ele>
        <time>2024-04-07T07:27:48.073Z</time>
      </trkpt>
      <trkpt lat="48.19547" lon="6.59443">
        <ele>512.824906</ele>
        <time>2024-04-07T07:27:51.092Z</time>
      </trkpt>
      <trkpt lat="48.19552" lon="6.59461">
        <ele>511.490237</ele>
        <time>2024-04-07T07:27:54.082Z</time>
      </trkpt>
      <trkpt lat="48.19556" lon="6.59476">
        <ele>511.378643</ele>
        <time>2024-04-07T07:27:56.089Z</time>
      </trkpt>
      <trkpt lat="48.1956" lon="6.59489">
        <ele>511.32034</ele>
        <time>2024-04-07T07:27:58.065Z</time>
      </trkpt>
      <trkpt lat="48.19563" lon="6.59502">
        <ele>511.264499</ele>
        <time>2024-04-07T07:28:00.091Z</time>
      </trkpt>
      <trkpt lat="48.19567" lon="6.59521">
        <ele>511.186596</ele>
        <time>2024-04-07T07:28:03.077Z</time>
      </trkpt>
      <trkpt lat="48.19571" lon="6.59536">
        <ele>511.122988</ele>
        <time>2024-04-07T07:28:05.086Z</time>
      </trkpt>
      <trkpt lat="48.19576" lon="6.59551">
        <ele>511.055148</ele>
        <time>2024-04-07T07:28:07.091Z</time>
      </trkpt>
      <trkpt lat="48.1958" lon="6.59564">
        <ele>510.998204</ele>
        <time>2024-04-07T07:28:09.087Z</time>
      </trkpt>
      <trkpt lat="48.19583" lon="6.59582">
        <ele>510.923778</ele>
        <time>2024-04-07T07:28:12.086Z</time>
      </trkpt>
      <trkpt lat="48.19588" lon="6.596">
        <ele>510.843359</ele>
        <time>2024-04-07T07:28:15.087Z</time>
      </trkpt>
      <trkpt lat="48.19592" lon="6.59617">
        <ele>510.771959</ele>
        <time>2024-04-07T07:28:17.085Z</time>
      </trkpt>
      <trkpt lat="48.19594" lon="6.59632">
        <ele>510.712345</ele>
        <time>2024-04-07T07:28:19.084Z</time>
      </trkpt>
      <trkpt lat="48.19597" lon="6.5965">
        <ele>510.6373</ele>
        <time>2024-04-07T07:28:22.091Z</time>
      </trkpt>
      <trkpt lat="48.19599" lon="6.59664">
        <ele>510.579725</ele>
        <time>2024-04-07T07:28:25.089Z</time>
      </trkpt>
      <trkpt lat="48.19599" lon="6.59682">
        <ele>510.50808</ele>
        <time>2024-04-07T07:28:29.086Z</time>
      </trkpt>
      <trkpt lat="48.19595" lon="6.59696">
        <ele>510.446511</ele>
        <time>2024-04-07T07:28:33.097Z</time>
      </trkpt>
      <trkpt lat="48.19587" lon="6.597">
        <ele>510.391257</ele>
        <time>2024-04-07T07:28:37.089Z</time>
      </trkpt>
      <trkpt lat="48.19578" lon="6.59704">
        <ele>510.435203</ele>
        <time>2024-04-07T07:28:41.069Z</time>
      </trkpt>
      <trkpt lat="48.19568" lon="6.59708">
        <ele>510.623607</ele>
        <time>2024-04-07T07:28:46.090Z</time>
      </trkpt>
      <trkpt lat="48.19559" lon="6.59711">
        <ele>510.80571</ele>
        <time>2024-04-07T07:28:51.088Z</time>
      </trkpt>
      <trkpt lat="48.19546" lon="6.59718">
        <ele>511.076031</ele>
        <time>2024-04-07T07:28:55.058Z</time>
      </trkpt>
      <trkpt lat="48.19535" lon="6.59725">
        <ele>511.301752</ele>
        <time>2024-04-07T07:28:57.050Z</time>
      </trkpt>
      <trkpt lat="48.19525" lon="6.59733">
        <ele>511.533818</ele>
        <time>2024-04-07T07:29:00.060Z</time>
      </trkpt>
      <trkpt lat="48.19518" lon="6.59746">
        <ele>511.740708</ele>
        <time>2024-04-07T07:29:04.093Z</time>
      </trkpt>
      <trkpt lat="48.19525" lon="6.59756">
        <ele>511.937308</ele>
        <time>2024-04-07T07:29:07.086Z</time>
      </trkpt>
      <trkpt lat="48.19531" lon="6.59767">
        <ele>512.113054</ele>
        <time>2024-04-07T07:29:09.087Z</time>
      </trkpt>
      <trkpt lat="48.19536" lon="6.5978">
        <ele>512.310501</ele>
        <time>2024-04-07T07:29:11.078Z</time>
      </trkpt>
      <trkpt lat="48.19542" lon="6.59793">
        <ele>512.522989</ele>
        <time>2024-04-07T07:29:13.085Z</time>
      </trkpt>
      <trkpt lat="48.1955" lon="6.59805">
        <ele>512.73972</ele>
        <time>2024-04-07T07:29:15.090Z</time>
      </trkpt>
      <trkpt lat="48.1956" lon="6.59815">
        <ele>512.968911</ele>
        <time>2024-04-07T07:29:17.081Z</time>
      </trkpt>
      <trkpt lat="48.1957" lon="6.59824">
        <ele>513.200535</ele>
        <time>2024-04-07T07:29:19.069Z</time>
      </trkpt>
      <trkpt lat="48.19581" lon="6.59834">
        <ele>513.451392</ele>
        <time>2024-04-07T07:29:21.076Z</time>
      </trkpt>
      <trkpt lat="48.19595" lon="6.5984">
        <ele>513.733368</ele>
        <time>2024-04-07T07:29:23.084Z</time>
      </trkpt>
      <trkpt lat="48.19611" lon="6.59839">
        <ele>513.386395</ele>
        <time>2024-04-07T07:29:25.085Z</time>
      </trkpt>
      <trkpt lat="48.19626" lon="6.59841">
        <ele>512.700973</ele>
        <time>2024-04-07T07:29:27.084Z</time>
      </trkpt>
      <trkpt lat="48.1964" lon="6.59843">
        <ele>512.059823</ele>
        <time>2024-04-07T07:29:29.085Z</time>
      </trkpt>
      <trkpt lat="48.19656" lon="6.59839">
        <ele>511.324876</ele>
        <time>2024-04-07T07:29:31.085Z</time>
      </trkpt>
      <trkpt lat="48.19669" lon="6.59834">
        <ele>510.672844</ele>
        <time>2024-04-07T07:29:33.082Z</time>
      </trkpt>
      <trkpt lat="48.19682" lon="6.59825">
        <ele>510.006533</ele>
        <time>2024-04-07T07:29:35.085Z</time>
      </trkpt>
      <trkpt lat="48.19699" lon="6.59816">
        <ele>509.209768</ele>
        <time>2024-04-07T07:29:37.088Z</time>
      </trkpt>
      <trkpt lat="48.19712" lon="6.59807">
        <ele>508.541778</ele>
        <time>2024-04-07T07:29:39.086Z</time>
      </trkpt>
      <trkpt lat="48.19723" lon="6.59801">
        <ele>508.004783</ele>
        <time>2024-04-07T07:29:41.087Z</time>
      </trkpt>
      <trkpt lat="48.1973" lon="6.59793">
        <ele>507.584893</ele>
        <time>2024-04-07T07:29:43.086Z</time>
      </trkpt>
      <trkpt lat="48.19739" lon="6.59786">
        <ele>507.124402</ele>
        <time>2024-04-07T07:29:45.084Z</time>
      </trkpt>
      <trkpt lat="48.19749" lon="6.59782">
        <ele>506.65631</ele>
        <time>2024-04-07T07:29:47.084Z</time>
      </trkpt>
      <trkpt lat="48.19759" lon="6.59781">
        <ele>506.178554</ele>
        <time>2024-04-07T07:29:49.053Z</time>
      </trkpt>
      <trkpt lat="48.19769" lon="6.59783">
        <ele>505.704597</ele>
        <time>2024-04-07T07:29:51.089Z</time>
      </trkpt>
      <trkpt lat="48.19783" lon="6.59784">
        <ele>504.458904</ele>
        <time>2024-04-07T07:29:53.056Z</time>
      </trkpt>
      <trkpt lat="48.19796" lon="6.59785">
        <ele>503.083447</ele>
        <time>2024-04-07T07:29:55.072Z</time>
      </trkpt>
      <trkpt lat="48.19809" lon="6.59785">
        <ele>501.66577</ele>
        <time>2024-04-07T07:29:57.074Z</time>
      </trkpt>
      <trkpt lat="48.19819" lon="6.59783">
        <ele>500.524467</ele>
        <time>2024-04-07T07:29:59.088Z</time>
      </trkpt>
      <trkpt lat="48.19829" lon="6.59781">
        <ele>499.497411</ele>
        <time>2024-04-07T07:30:01.088Z</time>
      </trkpt>
      <trkpt lat="48.1984" lon="6.59777">
        <ele>498.282796</ele>
        <time>2024-04-07T07:30:04.087Z</time>
      </trkpt>
      <trkpt lat="48.19849" lon="6.59778">
        <ele>497.244585</ele>
        <time>2024-04-07T07:30:07.089Z</time>
      </trkpt>
      <trkpt lat="48.19859" lon="6.59777">
        <ele>496.233317</ele>
        <time>2024-04-07T07:30:09.090Z</time>
      </trkpt>
      <trkpt lat="48.19874" lon="6.59778">
        <ele>494.611625</ele>
        <time>2024-04-07T07:30:11.087Z</time>
      </trkpt>
      <trkpt lat="48.19889" lon="6.59775">
        <ele>492.941219</ele>
        <time>2024-04-07T07:30:13.088Z</time>
      </trkpt>
      <trkpt lat="48.199" lon="6.59771">
        <ele>491.719435</ele>
        <time>2024-04-07T07:30:15.087Z</time>
      </trkpt>
      <trkpt lat="48.1991" lon="6.59771">
        <ele>490.678409</ele>
        <time>2024-04-07T07:30:17.089Z</time>
      </trkpt>
      <trkpt lat="48.19921" lon="6.59773">
        <ele>489.455613</ele>
        <time>2024-04-07T07:30:19.085Z</time>
      </trkpt>
      <trkpt lat="48.19932" lon="6.59775">
        <ele>488.300177</ele>
        <time>2024-04-07T07:30:21.089Z</time>
      </trkpt>
      <trkpt lat="48.19942" lon="6.59776">
        <ele>487.245021</ele>
        <time>2024-04-07T07:30:23.087Z</time>
      </trkpt>
      <trkpt lat="48.19956" lon="6.59779">
        <ele>485.988827</ele>
        <time>2024-04-07T07:30:26.086Z</time>
      </trkpt>
      <trkpt lat="48.19966" lon="6.5978">
        <ele>485.464511</ele>
        <time>2024-04-07T07:30:28.073Z</time>
      </trkpt>
      <trkpt lat="48.19978" lon="6.59782">
        <ele>484.852571</ele>
        <time>2024-04-07T07:30:31.086Z</time>
      </trkpt>
      <trkpt lat="48.19988" lon="6.59785">
        <ele>484.312761</ele>
        <time>2024-04-07T07:30:34.089Z</time>
      </trkpt>
      <trkpt lat="48.2" lon="6.59786">
        <ele>483.68931</ele>
        <time>2024-04-07T07:30:37.091Z</time>
      </trkpt>
      <trkpt lat="48.20014" lon="6.59781">
        <ele>482.991867</ele>
        <time>2024-04-07T07:30:40.089Z</time>
      </trkpt>
      <trkpt lat="48.20023" lon="6.59776">
        <ele>482.459388</ele>
        <time>2024-04-07T07:30:42.089Z</time>
      </trkpt>
      <trkpt lat="48.20033" lon="6.59771">
        <ele>481.940112</ele>
        <time>2024-04-07T07:30:44.084Z</time>
      </trkpt>
      <trkpt lat="48.20047" lon="6.59763">
        <ele>481.182865</ele>
        <time>2024-04-07T07:30:46.089Z</time>
      </trkpt>
      <trkpt lat="48.20055" lon="6.59758">
        <ele>480.71528</ele>
        <time>2024-04-07T07:30:47.086Z</time>
      </trkpt>
      <trkpt lat="48.20071" lon="6.59747">
        <ele>479.833337</ele>
        <time>2024-04-07T07:30:49.086Z</time>
      </trkpt>
      <trkpt lat="48.20085" lon="6.59737">
        <ele>479.018103</ele>
        <time>2024-04-07T07:30:51.090Z</time>
      </trkpt>
      <trkpt lat="48.20097" lon="6.59728">
        <ele>478.339796</ele>
        <time>2024-04-07T07:30:53.082Z</time>
      </trkpt>
      <trkpt lat="48.20107" lon="6.5972">
        <ele>477.730365</ele>
        <time>2024-04-07T07:30:56.088Z</time>
      </trkpt>
      <trkpt lat="48.20119" lon="6.59712">
        <ele>477.074791</ele>
        <time>2024-04-07T07:30:59.087Z</time>
      </trkpt>
      <trkpt lat="48.20129" lon="6.59707">
        <ele>476.82659</ele>
        <time>2024-04-07T07:31:01.083Z</time>
      </trkpt>
      <trkpt lat="48.2014" lon="6.59701">
        <ele>476.621218</ele>
        <time>2024-04-07T07:31:03.086Z</time>
      </trkpt>
      <trkpt lat="48.20151" lon="6.59696">
        <ele>476.415087</ele>
        <time>2024-04-07T07:31:05.071Z</time>
      </trkpt>
      <trkpt lat="48.20161" lon="6.59692">
        <ele>476.240941</ele>
        <time>2024-04-07T07:31:07.089Z</time>
      </trkpt>
      <trkpt lat="48.20173" lon="6.59686">
        <ele>476.01021</ele>
        <time>2024-04-07T07:31:09.086Z</time>
      </trkpt>
      <trkpt lat="48.20182" lon="6.59682">
        <ele>475.842547</ele>
        <time>2024-04-07T07:31:11.085Z</time>
      </trkpt>
      <trkpt lat="48.20192" lon="6.59677">
        <ele>475.654696</ele>
        <time>2024-04-07T07:31:13.090Z</time>
      </trkpt>
      <trkpt lat="48.20204" lon="6.59672">
        <ele>475.445289</ele>
        <time>2024-04-07T07:31:15.076Z</time>
      </trkpt>
      <trkpt lat="48.20213" lon="6.59667">
        <ele>475.278616</ele>
        <time>2024-04-07T07:31:17.086Z</time>
      </trkpt>
      <trkpt lat="48.20221" lon="6.5966">
        <ele>475.112767</ele>
        <time>2024-04-07T07:31:20.075Z</time>
      </trkpt>
      <trkpt lat="48.2023" lon="6.59654">
        <ele>474.931542</ele>
        <time>2024-04-07T07:31:22.082Z</time>
      </trkpt>
      <trkpt lat="48.20242" lon="6.5965">
        <ele>474.723462</ele>
        <time>2024-04-07T07:31:24.086Z</time>
      </trkpt>
      <trkpt lat="48.20254" lon="6.59646">
        <ele>474.500935</ele>
        <time>2024-04-07T07:31:26.084Z</time>
      </trkpt>
      <trkpt lat="48.20264" lon="6.59641">
        <ele>474.319405</ele>
        <time>2024-04-07T07:31:28.088Z</time>
      </trkpt>
      <trkpt lat="48.20274" lon="6.59634">
        <ele>474.121383</ele>
        <time>2024-04-07T07:31:30.086Z</time>
      </trkpt>
      <trkpt lat="48.20283" lon="6.59626">
        <ele>473.934369</ele>
        <time>2024-04-07T07:31:32.089Z</time>
      </trkpt>
      <trkpt lat="48.20293" lon="6.59619">
        <ele>473.772556</ele>
        <time>2024-04-07T07:31:34.086Z</time>
      </trkpt>
      <trkpt lat="48.20305" lon="6.59614">
        <ele>473.655408</ele>
        <time>2024-04-07T07:31:36.087Z</time>
      </trkpt>
      <trkpt lat="48.20314" lon="6.59607">
        <ele>473.564512</ele>
        <time>2024-04-07T07:31:38.073Z</time>
      </trkpt>
      <trkpt lat="48.20321" lon="6.59595">
        <ele>473.470877</ele>
        <time>2024-04-07T07:31:40.083Z</time>
      </trkpt>
      <trkpt lat="48.20326" lon="6.59583">
        <ele>473.386237</ele>
        <time>2024-04-07T07:31:43.088Z</time>
      </trkpt>
      <trkpt lat="48.20328" lon="6.59568">
        <ele>473.293513</ele>
        <time>2024-04-07T07:31:46.088Z</time>
      </trkpt>
      <trkpt lat="48.20326" lon="6.59553">
        <ele>473.198615</ele>
        <time>2024-04-07T07:31:49.071Z</time>
      </trkpt>
      <trkpt lat="48.20326" lon="6.59537">
        <ele>473.105429</ele>
        <time>2024-04-07T07:31:52.086Z</time>
      </trkpt>
      <trkpt lat="48.20328" lon="6.59522">
        <ele>473.012787</ele>
        <time>2024-04-07T07:31:55.086Z</time>
      </trkpt>
      <trkpt lat="48.20328" lon="6.59505">
        <ele>472.911704</ele>
        <time>2024-04-07T07:31:59.076Z</time>
      </trkpt>
      <trkpt lat="48.20329" lon="6.59489">
        <ele>472.813089</ele>
        <time>2024-04-07T07:32:03.085Z</time>
      </trkpt>
      <trkpt lat="48.20326" lon="6.59471">
        <ele>472.705453</ele>
        <time>2024-04-07T07:32:07.091Z</time>
      </trkpt>
      <trkpt lat="48.20323" lon="6.59458">
        <ele>472.621836</ele>
        <time>2024-04-07T07:32:10.084Z</time>
      </trkpt>
      <trkpt lat="48.2032" lon="6.59442">
        <ele>472.522002</ele>
        <time>2024-04-07T07:32:14.081Z</time>
      </trkpt>
      <trkpt lat="48.20318" lon="6.59428">
        <ele>472.43535</ele>
        <time>2024-04-07T07:32:18.070Z</time>
      </trkpt>
      <trkpt lat="48.20316" lon="6.59414">
        <ele>472.346694</ele>
        <time>2024-04-07T07:32:22.088Z</time>
      </trkpt>
      <trkpt lat="48.20314" lon="6.594">
        <ele>472.262473</ele>
        <time>2024-04-07T07:32:25.090Z</time>
      </trkpt>
      <trkpt lat="48.20311" lon="6.5938">
        <ele>472.09906</ele>
        <time>2024-04-07T07:32:28.088Z</time>
      </trkpt>
      <trkpt lat="48.20309" lon="6.5936">
        <ele>471.880783</ele>
        <time>2024-04-07T07:32:31.082Z</time>
      </trkpt>
      <trkpt lat="48.20308" lon="6.59342">
        <ele>471.683678</ele>
        <time>2024-04-07T07:32:34.071Z</time>
      </trkpt>
      <trkpt lat="48.20304" lon="6.59327">
        <ele>471.513223</ele>
        <time>2024-04-07T07:32:38.073Z</time>
      </trkpt>
      <trkpt lat="48.20307" lon="6.59311">
        <ele>471.336577</ele>
        <time>2024-04-07T07:32:45.087Z</time>
      </trkpt>
      <trkpt lat="48.20317" lon="6.59303">
        <ele>471.153454</ele>
        <time>2024-04-07T07:32:48.072Z</time>
      </trkpt>
      <trkpt lat="48.20328" lon="6.59296">
        <ele>470.951346</ele>
        <time>2024-04-07T07:32:51.086Z</time>
      </trkpt>
      <trkpt lat="48.20338" lon="6.59289">
        <ele>470.769241</ele>
        <time>2024-04-07T07:32:53.086Z</time>
      </trkpt>
      <trkpt lat="48.20347" lon="6.59283">
        <ele>470.608854</ele>
        <time>2024-04-07T07:32:55.089Z</time>
      </trkpt>
      <trkpt lat="48.20356" lon="6.59277">
        <ele>470.453814</ele>
        <time>2024-04-07T07:32:57.088Z</time>
      </trkpt>
      <trkpt lat="48.20368" lon="6.5927">
        <ele>470.24717</ele>
        <time>2024-04-07T07:33:00.083Z</time>
      </trkpt>
      <trkpt lat="48.20377" lon="6.59264">
        <ele>470.085008</ele>
        <time>2024-04-07T07:33:03.090Z</time>
      </trkpt>
      <trkpt lat="48.20385" lon="6.59256">
        <ele>469.935295</ele>
        <time>2024-04-07T07:33:06.081Z</time>
      </trkpt>
      <trkpt lat="48.20395" lon="6.59247">
        <ele>469.74312</ele>
        <time>2024-04-07T07:33:09.048Z</time>
      </trkpt>
      <trkpt lat="48.20404" lon="6.59239">
        <ele>469.57276</ele>
        <time>2024-04-07T07:33:12.085Z</time>
      </trkpt>
      <trkpt lat="48.20413" lon="6.5923">
        <ele>469.389273</ele>
        <time>2024-04-07T07:33:16.069Z</time>
      </trkpt>
      <trkpt lat="48.20422" lon="6.59221">
        <ele>469.180413</ele>
        <time>2024-04-07T07:33:19.089Z</time>
      </trkpt>
      <trkpt lat="48.20431" lon="6.59213">
        <ele>468.849989</ele>
        <time>2024-04-07T07:33:22.087Z</time>
      </trkpt>
      <trkpt lat="48.2044" lon="6.5921">
        <ele>468.56827</ele>
        <time>2024-04-07T07:33:25.088Z</time>
      </trkpt>
      <trkpt lat="48.20449" lon="6.59204">
        <ele>468.259686</ele>
        <time>2024-04-07T07:33:28.090Z</time>
      </trkpt>
      <trkpt lat="48.20461" lon="6.59198">
        <ele>467.882921</ele>
        <time>2024-04-07T07:33:31.086Z</time>
      </trkpt>
      <trkpt lat="48.20471" lon="6.59193">
        <ele>467.540999</ele>
        <time>2024-04-07T07:33:33.082Z</time>
      </trkpt>
      <trkpt lat="48.20481" lon="6.59188">
        <ele>467.228073</ele>
        <time>2024-04-07T07:33:35.089Z</time>
      </trkpt>
      <trkpt lat="48.20493" lon="6.59181">
        <ele>466.837655</ele>
        <time>2024-04-07T07:33:38.070Z</time>
      </trkpt>
      <trkpt lat="48.20506" lon="6.59173">
        <ele>466.397121</ele>
        <time>2024-04-07T07:33:41.085Z</time>
      </trkpt>
      <trkpt lat="48.20516" lon="6.59169">
        <ele>466.075216</ele>
        <time>2024-04-07T07:33:43.082Z</time>
      </trkpt>
      <trkpt lat="48.20526" lon="6.59164">
        <ele>465.759257</ele>
        <time>2024-04-07T07:33:45.081Z</time>
      </trkpt>
      <trkpt lat="48.20537" lon="6.59156">
        <ele>465.356997</ele>
        <time>2024-04-07T07:33:47.087Z</time>
      </trkpt>
      <trkpt lat="48.20548" lon="6.59148">
        <ele>464.990702</ele>
        <time>2024-04-07T07:33:49.084Z</time>
      </trkpt>
      <trkpt lat="48.20558" lon="6.59141">
        <ele>464.649236</ele>
        <time>2024-04-07T07:33:51.087Z</time>
      </trkpt>
      <trkpt lat="48.20567" lon="6.59132">
        <ele>464.317533</ele>
        <time>2024-04-07T07:33:53.080Z</time>
      </trkpt>
      <trkpt lat="48.20579" lon="6.59126">
        <ele>463.911413</ele>
        <time>2024-04-07T07:33:55.089Z</time>
      </trkpt>
      <trkpt lat="48.20589" lon="6.5912">
        <ele>463.365267</ele>
        <time>2024-04-07T07:33:57.089Z</time>
      </trkpt>
      <trkpt lat="48.206" lon="6.5911">
        <ele>462.273716</ele>
        <time>2024-04-07T07:33:59.089Z</time>
      </trkpt>
      <trkpt lat="48.20615" lon="6.59101">
        <ele>460.847814</ele>
        <time>2024-04-07T07:34:01.085Z</time>
      </trkpt>
      <trkpt lat="48.20631" lon="6.59093">
        <ele>459.369343</ele>
        <time>2024-04-07T07:34:03.073Z</time>
      </trkpt>
      <trkpt lat="48.20644" lon="6.59084">
        <ele>458.098351</ele>
        <time>2024-04-07T07:34:05.084Z</time>
      </trkpt>
      <trkpt lat="48.20656" lon="6.59076">
        <ele>456.86511</ele>
        <time>2024-04-07T07:34:07.085Z</time>
      </trkpt>
      <trkpt lat="48.20667" lon="6.59067">
        <ele>455.760632</ele>
        <time>2024-04-07T07:34:09.089Z</time>
      </trkpt>
      <trkpt lat="48.20679" lon="6.59059">
        <ele>454.569498</ele>
        <time>2024-04-07T07:34:11.080Z</time>
      </trkpt>
      <trkpt lat="48.20691" lon="6.5905">
        <ele>453.431447</ele>
        <time>2024-04-07T07:34:13.085Z</time>
      </trkpt>
      <trkpt lat="48.20702" lon="6.59043">
        <ele>452.395198</ele>
        <time>2024-04-07T07:34:15.090Z</time>
      </trkpt>
      <trkpt lat="48.20712" lon="6.59037">
        <ele>451.426854</ele>
        <time>2024-04-07T07:34:17.086Z</time>
      </trkpt>
      <trkpt lat="48.20721" lon="6.59031">
        <ele>450.523427</ele>
        <time>2024-04-07T07:34:19.089Z</time>
      </trkpt>
      <trkpt lat="48.2073" lon="6.59027">
        <ele>449.684928</ele>
        <time>2024-04-07T07:34:21.089Z</time>
      </trkpt>
      <trkpt lat="48.20739" lon="6.59023">
        <ele>448.831234</ele>
        <time>2024-04-07T07:34:23.090Z</time>
      </trkpt>
      <trkpt lat="48.20749" lon="6.59016">
        <ele>447.848486</ele>
        <time>2024-04-07T07:34:25.087Z</time>
      </trkpt>
      <trkpt lat="48.20759" lon="6.59009">
        <ele>447.320115</ele>
        <time>2024-04-07T07:34:27.090Z</time>
      </trkpt>
      <trkpt lat="48.20768" lon="6.59003">
        <ele>446.92658</ele>
        <time>2024-04-07T07:34:29.071Z</time>
      </trkpt>
      <trkpt lat="48.20777" lon="6.58998">
        <ele>446.492502</ele>
        <time>2024-04-07T07:34:31.091Z</time>
      </trkpt>
      <trkpt lat="48.20789" lon="6.58993">
        <ele>445.981694</ele>
        <time>2024-04-07T07:34:33.089Z</time>
      </trkpt>
      <trkpt lat="48.20802" lon="6.58986">
        <ele>445.375585</ele>
        <time>2024-04-07T07:34:35.086Z</time>
      </trkpt>
      <trkpt lat="48.20813" lon="6.58979">
        <ele>444.870742</ele>
        <time>2024-04-07T07:34:37.081Z</time>
      </trkpt>
      <trkpt lat="48.20825" lon="6.58972">
        <ele>444.353046</ele>
        <time>2024-04-07T07:34:39.091Z</time>
      </trkpt>
      <trkpt lat="48.20835" lon="6.58964">
        <ele>443.841912</ele>
        <time>2024-04-07T07:34:41.087Z</time>
      </trkpt>
      <trkpt lat="48.20846" lon="6.58956">
        <ele>443.331516</ele>
        <time>2024-04-07T07:34:43.083Z</time>
      </trkpt>
      <trkpt lat="48.20857" lon="6.58949">
        <ele>442.843955</ele>
        <time>2024-04-07T07:34:46.086Z</time>
      </trkpt>
      <trkpt lat="48.20869" lon="6.58947">
        <ele>442.339374</ele>
        <time>2024-04-07T07:34:50.085Z</time>
      </trkpt>
      <trkpt lat="48.20876" lon="6.58954">
        <ele>441.950769</ele>
        <time>2024-04-07T07:34:53.088Z</time>
      </trkpt>
      <trkpt lat="48.20886" lon="6.58967">
        <ele>441.414518</ele>
        <time>2024-04-07T07:34:56.089Z</time>
      </trkpt>
      <trkpt lat="48.20896" lon="6.58977">
        <ele>440.908046</ele>
        <time>2024-04-07T07:34:58.081Z</time>
      </trkpt>
      <trkpt lat="48.20905" lon="6.58981">
        <ele>440.50809</ele>
        <time>2024-04-07T07:35:00.090Z</time>
      </trkpt>
      <trkpt lat="48.20916" lon="6.5898">
        <ele>440.270312</ele>
        <time>2024-04-07T07:35:03.089Z</time>
      </trkpt>
      <trkpt lat="48.20929" lon="6.58979">
        <ele>441.564928</ele>
        <time>2024-04-07T07:35:06.086Z</time>
      </trkpt>
      <trkpt lat="48.20942" lon="6.58975">
        <ele>442.904643</ele>
        <time>2024-04-07T07:35:09.088Z</time>
      </trkpt>
      <trkpt lat="48.20952" lon="6.5897">
        <ele>444.032005</ele>
        <time>2024-04-07T07:35:12.074Z</time>
      </trkpt>
      <trkpt lat="48.20963" lon="6.58966">
        <ele>445.223849</ele>
        <time>2024-04-07T07:35:15.086Z</time>
      </trkpt>
      <trkpt lat="48.20972" lon="6.58962">
        <ele>446.185451</ele>
        <time>2024-04-07T07:35:18.070Z</time>
      </trkpt>
      <trkpt lat="48.20981" lon="6.58956">
        <ele>447.158457</ele>
        <time>2024-04-07T07:35:21.087Z</time>
      </trkpt>
      <trkpt lat="48.20988" lon="6.58946">
        <ele>448.20872</ele>
        <time>2024-04-07T07:35:25.088Z</time>
      </trkpt>
      <trkpt lat="48.20997" lon="6.58934">
        <ele>449.390269</ele>
        <time>2024-04-07T07:35:29.088Z</time>
      </trkpt>
      <trkpt lat="48.21006" lon="6.58926">
        <ele>450.440099</ele>
        <time>2024-04-07T07:35:33.084Z</time>
      </trkpt>
      <trkpt lat="48.21016" lon="6.58923">
        <ele>451.54359</ele>
        <time>2024-04-07T07:35:37.080Z</time>
      </trkpt>
      <trkpt lat="48.21027" lon="6.58925">
        <ele>452.652447</ele>
        <time>2024-04-07T07:35:41.088Z</time>
      </trkpt>
      <trkpt lat="48.21036" lon="6.58925">
        <ele>453.633224</ele>
        <time>2024-04-07T07:35:47.088Z</time>
      </trkpt>
      <trkpt lat="48.21046" lon="6.58931">
        <ele>454.733906</ele>
        <time>2024-04-07T07:35:51.088Z</time>
      </trkpt>
      <trkpt lat="48.21051" lon="6.58944">
        <ele>455.763549</ele>
        <time>2024-04-07T07:36:00.086Z</time>
      </trkpt>
      <trkpt lat="48.21054" lon="6.58958">
        <ele>456.759304</ele>
        <time>2024-04-07T07:36:09.088Z</time>
      </trkpt>
      <trkpt lat="48.21061" lon="6.5897">
        <ele>457.882616</ele>
        <time>2024-04-07T07:36:14.088Z</time>
      </trkpt>
      <trkpt lat="48.21065" lon="6.58984">
        <ele>458.508578</ele>
        <time>2024-04-07T07:36:18.076Z</time>
      </trkpt>
      <trkpt lat="48.2107" lon="6.58995">
        <ele>457.876337</ele>
        <time>2024-04-07T07:36:22.088Z</time>
      </trkpt>
      <trkpt lat="48.21077" lon="6.59005">
        <ele>457.264946</ele>
        <time>2024-04-07T07:36:26.091Z</time>
      </trkpt>
      <trkpt lat="48.21084" lon="6.59016">
        <ele>456.598441</ele>
        <time>2024-04-07T07:36:31.088Z</time>
      </trkpt>
      <trkpt lat="48.21091" lon="6.59026">
        <ele>455.940975</ele>
        <time>2024-04-07T07:36:36.090Z</time>
      </trkpt>
      <trkpt lat="48.21097" lon="6.59036">
        <ele>455.32195</ele>
        <time>2024-04-07T07:36:41.090Z</time>
      </trkpt>
      <trkpt lat="48.21104" lon="6.59049">
        <ele>454.63078</ele>
        <time>2024-04-07T07:36:45.089Z</time>
      </trkpt>
      <trkpt lat="48.2111" lon="6.5906">
        <ele>453.955893</ele>
        <time>2024-04-07T07:36:49.089Z</time>
      </trkpt>
      <trkpt lat="48.21116" lon="6.59074">
        <ele>453.246532</ele>
        <time>2024-04-07T07:36:52.089Z</time>
      </trkpt>
      <trkpt lat="48.21121" lon="6.59087">
        <ele>452.585039</ele>
        <time>2024-04-07T07:36:55.090Z</time>
      </trkpt>
      <trkpt lat="48.21127" lon="6.59099">
        <ele>451.902193</ele>
        <time>2024-04-07T07:36:59.090Z</time>
      </trkpt>
      <trkpt lat="48.21131" lon="6.59113">
        <ele>451.241023</ele>
        <time>2024-04-07T07:37:03.086Z</time>
      </trkpt>
      <trkpt lat="48.21132" lon="6.59129">
        <ele>450.520976</ele>
        <time>2024-04-07T07:37:07.087Z</time>
      </trkpt>
      <trkpt lat="48.21125" lon="6.5914">
        <ele>449.846781</ele>
        <time>2024-04-07T07:37:13.083Z</time>
      </trkpt>
      <trkpt lat="48.21117" lon="6.59146">
        <ele>449.229923</ele>
        <time>2024-04-07T07:37:17.083Z</time>
      </trkpt>
      <trkpt lat="48.21108" lon="6.5915">
        <ele>448.597926</ele>
        <time>2024-04-07T07:37:22.085Z</time>
      </trkpt>
      <trkpt lat="48.21098" lon="6.59158">
        <ele>447.860157</ele>
        <time>2024-04-07T07:37:26.089Z</time>
      </trkpt>
      <trkpt lat="48.21086" lon="6.59163">
        <ele>447.012822</ele>
        <time>2024-04-07T07:37:29.091Z</time>
      </trkpt>
      <trkpt lat="48.21076" lon="6.59168">
        <ele>446.700575</ele>
        <time>2024-04-07T07:37:31.089Z</time>
      </trkpt>
      <trkpt lat="48.21068" lon="6.59175">
        <ele>446.711623</ele>
        <time>2024-04-07T07:37:33.087Z</time>
      </trkpt>
      <trkpt lat="48.21057" lon="6.59183">
        <ele>446.725921</ele>
        <time>2024-04-07T07:37:36.085Z</time>
      </trkpt>
      <trkpt lat="48.21046" lon="6.59189">
        <ele>446.739053</ele>
        <time>2024-04-07T07:37:39.087Z</time>
      </trkpt>
      <trkpt lat="48.21034" lon="6.59197">
        <ele>446.753973</ele>
        <time>2024-04-07T07:37:42.091Z</time>
      </trkpt>
      <trkpt lat="48.21023" lon="6.59206">
        <ele>446.768579</ele>
        <time>2024-04-07T07:37:45.091Z</time>
      </trkpt>
      <trkpt lat="48.21015" lon="6.59213">
        <ele>446.77948</ele>
        <time>2024-04-07T07:37:47.086Z</time>
      </trkpt>
      <trkpt lat="48.21006" lon="6.5922">
        <ele>446.790425</ele>
        <time>2024-04-07T07:37:49.085Z</time>
      </trkpt>
      <trkpt lat="48.20994" lon="6.59228">
        <ele>446.805867</ele>
        <time>2024-04-07T07:37:52.049Z</time>
      </trkpt>
      <trkpt lat="48.20983" lon="6.59234">
        <ele>446.818758</ele>
        <time>2024-04-07T07:37:55.087Z</time>
      </trkpt>
      <trkpt lat="48.20973" lon="6.59241">
        <ele>446.831418</ele>
        <time>2024-04-07T07:37:58.071Z</time>
      </trkpt>
      <trkpt lat="48.20965" lon="6.59248">
        <ele>446.842672</ele>
        <time>2024-04-07T07:38:01.069Z</time>
      </trkpt>
      <trkpt lat="48.20955" lon="6.59256">
        <ele>446.855501</ele>
        <time>2024-04-07T07:38:05.085Z</time>
      </trkpt>
      <trkpt lat="48.20944" lon="6.59263">
        <ele>446.868955</ele>
        <time>2024-04-07T07:38:09.086Z</time>
      </trkpt>
      <trkpt lat="48.20935" lon="6.59272">
        <ele>446.8813</ele>
        <time>2024-04-07T07:38:13.087Z</time>
      </trkpt>
      <trkpt lat="48.20925" lon="6.59275">
        <ele>446.893535</ele>
        <time>2024-04-07T07:38:17.083Z</time>
      </trkpt>
      <trkpt lat="48.20914" lon="6.59282">
        <ele>447.060235</ele>
        <time>2024-04-07T07:38:20.087Z</time>
      </trkpt>
      <trkpt lat="48.20906" lon="6.59294">
        <ele>447.398492</ele>
        <time>2024-04-07T07:38:23.074Z</time>
      </trkpt>
      <trkpt lat="48.20902" lon="6.59309">
        <ele>447.719099</ele>
        <time>2024-04-07T07:38:26.073Z</time>
      </trkpt>
      <trkpt lat="48.20896" lon="6.59326">
        <ele>448.108044</ele>
        <time>2024-04-07T07:38:29.078Z</time>
      </trkpt>
      <trkpt lat="48.20892" lon="6.59342">
        <ele>448.45141</ele>
        <time>2024-04-07T07:38:32.088Z</time>
      </trkpt>
      <trkpt lat="48.20888" lon="6.59356">
        <ele>448.742059</ele>
        <time>2024-04-07T07:38:37.088Z</time>
      </trkpt>
      <trkpt lat="48.20885" lon="6.59371">
        <ele>449.073097</ele>
        <time>2024-04-07T07:38:43.086Z</time>
      </trkpt>
      <trkpt lat="48.20881" lon="6.59387">
        <ele>449.407932</ele>
        <time>2024-04-07T07:38:47.087Z</time>
      </trkpt>
      <trkpt lat="48.20879" lon="6.594">
        <ele>449.679985</ele>
        <time>2024-04-07T07:38:50.078Z</time>
      </trkpt>
      <trkpt lat="48.20875" lon="6.59417">
        <ele>450.027061</ele>
        <time>2024-04-07T07:38:54.083Z</time>
      </trkpt>
      <trkpt lat="48.20875" lon="6.5943">
        <ele>450.301928</ele>
        <time>2024-04-07T07:38:57.091Z</time>
      </trkpt>
      <trkpt lat="48.20873" lon="6.59448">
        <ele>450.653869</ele>
        <time>2024-04-07T07:39:00.089Z</time>
      </trkpt>
      <trkpt lat="48.20868" lon="6.59464">
        <ele>451.008674</ele>
        <time>2024-04-07T07:39:03.085Z</time>
      </trkpt>
      <trkpt lat="48.20865" lon="6.5948">
        <ele>451.339095</ele>
        <time>2024-04-07T07:39:06.088Z</time>
      </trkpt>
      <trkpt lat="48.20865" lon="6.59494">
        <ele>451.622738</ele>
        <time>2024-04-07T07:39:09.080Z</time>
      </trkpt>
      <trkpt lat="48.20862" lon="6.5951">
        <ele>451.952141</ele>
        <time>2024-04-07T07:39:12.087Z</time>
      </trkpt>
      <trkpt lat="48.20862" lon="6.59527">
        <ele>452.287214</ele>
        <time>2024-04-07T07:39:15.092Z</time>
      </trkpt>
      <trkpt lat="48.20864" lon="6.59546">
        <ele>452.021149</ele>
        <time>2024-04-07T07:39:18.080Z</time>
      </trkpt>
      <trkpt lat="48.20865" lon="6.59565">
        <ele>451.738043</ele>
        <time>2024-04-07T07:39:21.082Z</time>
      </trkpt>
      <trkpt lat="48.20865" lon="6.5958">
        <ele>451.504153</ele>
        <time>2024-04-07T07:39:24.086Z</time>
      </trkpt>
      <trkpt lat="48.20866" lon="6.59599">
        <ele>451.206105</ele>
        <time>2024-04-07T07:39:27.091Z</time>
      </trkpt>
      <trkpt lat="48.20865" lon="6.59617">
        <ele>450.932578</ele>
        <time>2024-04-07T07:39:30.087Z</time>
      </trkpt>
      <trkpt lat="48.20866" lon="6.59633">
        <ele>450.681679</ele>
        <time>2024-04-07T07:39:32.090Z</time>
      </trkpt>
      <trkpt lat="48.20867" lon="6.59649">
        <ele>450.437474</ele>
        <time>2024-04-07T07:39:35.089Z</time>
      </trkpt>
      <trkpt lat="48.2087" lon="6.59662">
        <ele>450.219968</ele>
        <time>2024-04-07T07:39:38.078Z</time>
      </trkpt>
      <trkpt lat="48.20873" lon="6.59676">
        <ele>450.002396</ele>
        <time>2024-04-07T07:39:41.079Z</time>
      </trkpt>
      <trkpt lat="48.20876" lon="6.59692">
        <ele>449.735964</ele>
        <time>2024-04-07T07:39:44.086Z</time>
      </trkpt>
      <trkpt lat="48.20878" lon="6.59706">
        <ele>449.521108</ele>
        <time>2024-04-07T07:39:47.085Z</time>
      </trkpt>
      <trkpt lat="48.20879" lon="6.59719">
        <ele>449.31123</ele>
        <time>2024-04-07T07:39:52.089Z</time>
      </trkpt>
      <trkpt lat="48.20875" lon="6.59735">
        <ele>449.046034</ele>
        <time>2024-04-07T07:39:57.088Z</time>
      </trkpt>
      <trkpt lat="48.20875" lon="6.5975">
        <ele>448.824453</ele>
        <time>2024-04-07T07:40:01.089Z</time>
      </trkpt>
      <trkpt lat="48.20874" lon="6.59766">
        <ele>448.58002</ele>
        <time>2024-04-07T07:40:06.088Z</time>
      </trkpt>
      <trkpt lat="48.20872" lon="6.59782">
        <ele>448.325409</ele>
        <time>2024-04-07T07:40:11.086Z</time>
      </trkpt>
      <trkpt lat="48.20871" lon="6.59798">
        <ele>448.39744</ele>
        <time>2024-04-07T07:40:17.085Z</time>
      </trkpt>
      <trkpt lat="48.2087" lon="6.59812">
        <ele>449.009269</ele>
        <time>2024-04-07T07:40:21.089Z</time>
      </trkpt>
      <trkpt lat="48.20872" lon="6.59826">
        <ele>449.660306</ele>
        <time>2024-04-07T07:40:25.088Z</time>
      </trkpt>
      <trkpt lat="48.20871" lon="6.59841">
        <ele>450.319401</ele>
        <time>2024-04-07T07:40:30.087Z</time>
      </trkpt>
      <trkpt lat="48.20872" lon="6.59855">
        <ele>450.96694</ele>
        <time>2024-04-07T07:40:35.087Z</time>
      </trkpt>
      <trkpt lat="48.20869" lon="6.59871">
        <ele>451.71252</ele>
        <time>2024-04-07T07:40:40.088Z</time>
      </trkpt>
      <trkpt lat="48.20867" lon="6.59885">
        <ele>452.334658</ele>
        <time>2024-04-07T07:40:43.093Z</time>
      </trkpt>
      <trkpt lat="48.20867" lon="6.59899">
        <ele>452.982372</ele>
        <time>2024-04-07T07:40:46.085Z</time>
      </trkpt>
      <trkpt lat="48.20866" lon="6.59916">
        <ele>453.715333</ele>
        <time>2024-04-07T07:40:50.088Z</time>
      </trkpt>
      <trkpt lat="48.20865" lon="6.59931">
        <ele>454.395607</ele>
        <time>2024-04-07T07:40:55.088Z</time>
      </trkpt>
      <trkpt lat="48.20865" lon="6.59945">
        <ele>455.02572</ele>
        <time>2024-04-07T07:41:01.087Z</time>
      </trkpt>
      <trkpt lat="48.20853" lon="6.59977">
        <ele>456.667876</ele>
        <time>2024-04-07T07:42:02.100Z</time>
      </trkpt>
      <trkpt lat="48.20844" lon="6.59983">
        <ele>457.336442</ele>
        <time>2024-04-07T07:42:08.075Z</time>
      </trkpt>
      <trkpt lat="48.20837" lon="6.59996">
        <ele>458.107223</ele>
        <time>2024-04-07T07:42:13.092Z</time>
      </trkpt>
      <trkpt lat="48.20829" lon="6.60006">
        <ele>458.807673</ele>
        <time>2024-04-07T07:42:16.088Z</time>
      </trkpt>
      <trkpt lat="48.20822" lon="6.60017">
        <ele>459.442441</ele>
        <time>2024-04-07T07:42:20.086Z</time>
      </trkpt>
      <trkpt lat="48.20814" lon="6.60024">
        <ele>460.08123</ele>
        <time>2024-04-07T07:42:24.085Z</time>
      </trkpt>
      <trkpt lat="48.20805" lon="6.60032">
        <ele>460.205849</ele>
        <time>2024-04-07T07:42:28.070Z</time>
      </trkpt>
      <trkpt lat="48.20797" lon="6.60041">
        <ele>460.202567</ele>
        <time>2024-04-07T07:42:32.092Z</time>
      </trkpt>
      <trkpt lat="48.20788" lon="6.6005">
        <ele>460.199205</ele>
        <time>2024-04-07T07:42:36.088Z</time>
      </trkpt>
      <trkpt lat="48.2078" lon="6.60058">
        <ele>460.196216</ele>
        <time>2024-04-07T07:42:39.089Z</time>
      </trkpt>
      <trkpt lat="48.20773" lon="6.60067">
        <ele>460.193158</ele>
        <time>2024-04-07T07:42:42.087Z</time>
      </trkpt>
      <trkpt lat="48.20765" lon="6.60077">
        <ele>460.189907</ele>
        <time>2024-04-07T07:42:45.086Z</time>
      </trkpt>
      <trkpt lat="48.20758" lon="6.60086">
        <ele>460.186906</ele>
        <time>2024-04-07T07:42:48.071Z</time>
      </trkpt>
      <trkpt lat="48.20749" lon="6.60096">
        <ele>460.183366</ele>
        <time>2024-04-07T07:42:51.087Z</time>
      </trkpt>
      <trkpt lat="48.2074" lon="6.60107">
        <ele>460.179765</ele>
        <time>2024-04-07T07:42:54.084Z</time>
      </trkpt>
      <trkpt lat="48.20732" lon="6.60116">
        <ele>460.176493</ele>
        <time>2024-04-07T07:42:59.089Z</time>
      </trkpt>
      <trkpt lat="48.20726" lon="6.60129">
        <ele>460.173215</ele>
        <time>2024-04-07T07:43:04.087Z</time>
      </trkpt>
      <trkpt lat="48.2072" lon="6.60139">
        <ele>460.170267</ele>
        <time>2024-04-07T07:43:08.083Z</time>
      </trkpt>
      <trkpt lat="48.20711" lon="6.60148">
        <ele>460.166872</ele>
        <time>2024-04-07T07:43:12.078Z</time>
      </trkpt>
      <trkpt lat="48.20702" lon="6.6016">
        <ele>460.163008</ele>
        <time>2024-04-07T07:43:16.087Z</time>
      </trkpt>
      <trkpt lat="48.20692" lon="6.60171">
        <ele>460.159034</ele>
        <time>2024-04-07T07:43:20.087Z</time>
      </trkpt>
      <trkpt lat="48.20685" lon="6.60185">
        <ele>460.155428</ele>
        <time>2024-04-07T07:43:24.079Z</time>
      </trkpt>
      <trkpt lat="48.20678" lon="6.60193">
        <ele>460.152439</ele>
        <time>2024-04-07T07:43:27.087Z</time>
      </trkpt>
      <trkpt lat="48.20668" lon="6.60201">
        <ele>460.608775</ele>
        <time>2024-04-07T07:43:30.087Z</time>
      </trkpt>
      <trkpt lat="48.20659" lon="6.60212">
        <ele>461.398016</ele>
        <time>2024-04-07T07:43:34.088Z</time>
      </trkpt>
      <trkpt lat="48.2065" lon="6.60222">
        <ele>462.127538</ele>
        <time>2024-04-07T07:43:38.074Z</time>
      </trkpt>
      <trkpt lat="48.20642" lon="6.60232">
        <ele>462.795791</ele>
        <time>2024-04-07T07:43:41.089Z</time>
      </trkpt>
      <trkpt lat="48.20634" lon="6.60243">
        <ele>463.527714</ele>
        <time>2024-04-07T07:43:45.087Z</time>
      </trkpt>
      <trkpt lat="48.20625" lon="6.6025">
        <ele>464.146308</ele>
        <time>2024-04-07T07:43:48.075Z</time>
      </trkpt>
      <trkpt lat="48.20617" lon="6.60257">
        <ele>464.772737</ele>
        <time>2024-04-07T07:43:52.088Z</time>
      </trkpt>
      <trkpt lat="48.20609" lon="6.60265">
        <ele>465.424462</ele>
        <time>2024-04-07T07:43:56.088Z</time>
      </trkpt>
      <trkpt lat="48.20598" lon="6.60273">
        <ele>466.178779</ele>
        <time>2024-04-07T07:43:59.087Z</time>
      </trkpt>
      <trkpt lat="48.20588" lon="6.60278">
        <ele>466.870303</ele>
        <time>2024-04-07T07:44:02.088Z</time>
      </trkpt>
      <trkpt lat="48.20576" lon="6.60282">
        <ele>467.671653</ele>
        <time>2024-04-07T07:44:05.067Z</time>
      </trkpt>
      <trkpt lat="48.20566" lon="6.60284">
        <ele>468.367725</ele>
        <time>2024-04-07T07:44:08.072Z</time>
      </trkpt>
      <trkpt lat="48.20555" lon="6.60287">
        <ele>469.062378</ele>
        <time>2024-04-07T07:44:12.088Z</time>
      </trkpt>
      <trkpt lat="48.2055" lon="6.60275">
        <ele>469.664117</ele>
        <time>2024-04-07T07:44:21.088Z</time>
      </trkpt>
      <trkpt lat="48.20545" lon="6.60262">
        <ele>470.328539</ele>
        <time>2024-04-07T07:44:29.088Z</time>
      </trkpt>
      <trkpt lat="48.20541" lon="6.60248">
        <ele>470.989177</ele>
        <time>2024-04-07T07:44:35.078Z</time>
      </trkpt>
      <trkpt lat="48.20537" lon="6.60236">
        <ele>471.579413</ele>
        <time>2024-04-07T07:44:40.076Z</time>
      </trkpt>
      <trkpt lat="48.20531" lon="6.60224">
        <ele>472.086984</ele>
        <time>2024-04-07T07:44:44.075Z</time>
      </trkpt>
      <trkpt lat="48.20526" lon="6.60211">
        <ele>472.46071</ele>
        <time>2024-04-07T07:44:50.089Z</time>
      </trkpt>
      <trkpt lat="48.20522" lon="6.60199">
        <ele>472.795598</ele>
        <time>2024-04-07T07:44:56.088Z</time>
      </trkpt>
      <trkpt lat="48.20517" lon="6.60185">
        <ele>473.193794</ele>
        <time>2024-04-07T07:45:03.090Z</time>
      </trkpt>
      <trkpt lat="48.20511" lon="6.6017">
        <ele>473.612765</ele>
        <time>2024-04-07T07:45:08.085Z</time>
      </trkpt>
      <trkpt lat="48.20507" lon="6.60158">
        <ele>473.959471</ele>
        <time>2024-04-07T07:45:12.089Z</time>
      </trkpt>
      <trkpt lat="48.20504" lon="6.60145">
        <ele>474.311436</ele>
        <time>2024-04-07T07:45:16.085Z</time>
      </trkpt>
      <trkpt lat="48.20502" lon="6.6013">
        <ele>474.66915</ele>
        <time>2024-04-07T07:45:20.085Z</time>
      </trkpt>
      <trkpt lat="48.205" lon="6.60114">
        <ele>475.086147</ele>
        <time>2024-04-07T07:45:24.076Z</time>
      </trkpt>
      <trkpt lat="48.20498" lon="6.601">
        <ele>475.433552</ele>
        <time>2024-04-07T07:45:27.077Z</time>
      </trkpt>
      <trkpt lat="48.2049" lon="6.60093">
        <ele>475.773734</ele>
        <time>2024-04-07T07:45:31.086Z</time>
      </trkpt>
      <trkpt lat="48.20479" lon="6.60094">
        <ele>476.165147</ele>
        <time>2024-04-07T07:45:35.085Z</time>
      </trkpt>
      <trkpt lat="48.20469" lon="6.60097">
        <ele>476.54681</ele>
        <time>2024-04-07T07:45:39.089Z</time>
      </trkpt>
      <trkpt lat="48.20459" lon="6.60098">
        <ele>476.915949</ele>
        <time>2024-04-07T07:45:43.085Z</time>
      </trkpt>
      <trkpt lat="48.2045" lon="6.60098">
        <ele>477.280745</ele>
        <time>2024-04-07T07:45:47.083Z</time>
      </trkpt>
      <trkpt lat="48.20441" lon="6.60103">
        <ele>477.616074</ele>
        <time>2024-04-07T07:45:51.088Z</time>
      </trkpt>
      <trkpt lat="48.20431" lon="6.60108">
        <ele>478.016846</ele>
        <time>2024-04-07T07:45:56.088Z</time>
      </trkpt>
      <trkpt lat="48.2042" lon="6.60114">
        <ele>478.446159</ele>
        <time>2024-04-07T07:46:01.087Z</time>
      </trkpt>
      <trkpt lat="48.20411" lon="6.60116">
        <ele>478.636646</ele>
        <time>2024-04-07T07:46:04.079Z</time>
      </trkpt>
      <trkpt lat="48.20402" lon="6.60117">
        <ele>478.704103</ele>
        <time>2024-04-07T07:46:07.087Z</time>
      </trkpt>
      <trkpt lat="48.20393" lon="6.60122">
        <ele>478.773576</ele>
        <time>2024-04-07T07:46:11.088Z</time>
      </trkpt>
      <trkpt lat="48.20384" lon="6.60129">
        <ele>478.848925</ele>
        <time>2024-04-07T07:46:15.087Z</time>
      </trkpt>
      <trkpt lat="48.20374" lon="6.60134">
        <ele>478.924146</ele>
        <time>2024-04-07T07:46:18.069Z</time>
      </trkpt>
      <trkpt lat="48.20365" lon="6.6014">
        <ele>479.000798</ele>
        <time>2024-04-07T07:46:21.089Z</time>
      </trkpt>
      <trkpt lat="48.20357" lon="6.60148">
        <ele>479.073718</ele>
        <time>2024-04-07T07:46:25.084Z</time>
      </trkpt>
      <trkpt lat="48.20347" lon="6.60152">
        <ele>479.145577</ele>
        <time>2024-04-07T07:46:28.071Z</time>
      </trkpt>
      <trkpt lat="48.20338" lon="6.60157">
        <ele>479.220632</ele>
        <time>2024-04-07T07:46:31.085Z</time>
      </trkpt>
      <trkpt lat="48.20329" lon="6.60163">
        <ele>479.293765</ele>
        <time>2024-04-07T07:46:34.079Z</time>
      </trkpt>
      <trkpt lat="48.20321" lon="6.6017">
        <ele>479.361591</ele>
        <time>2024-04-07T07:46:37.089Z</time>
      </trkpt>
      <trkpt lat="48.20313" lon="6.60177">
        <ele>479.429231</ele>
        <time>2024-04-07T07:46:40.087Z</time>
      </trkpt>
      <trkpt lat="48.20304" lon="6.60181">
        <ele>479.503208</ele>
        <time>2024-04-07T07:46:43.088Z</time>
      </trkpt>
      <trkpt lat="48.20296" lon="6.60188">
        <ele>479.571</ele>
        <time>2024-04-07T07:46:46.085Z</time>
      </trkpt>
      <trkpt lat="48.20286" lon="6.60193">
        <ele>479.651474</ele>
        <time>2024-04-07T07:46:49.086Z</time>
      </trkpt>
      <trkpt lat="48.20275" lon="6.60199">
        <ele>479.733669</ele>
        <time>2024-04-07T07:46:52.085Z</time>
      </trkpt>
      <trkpt lat="48.20265" lon="6.60206">
        <ele>479.816577</ele>
        <time>2024-04-07T07:46:55.088Z</time>
      </trkpt>
      <trkpt lat="48.20256" lon="6.60216">
        <ele>479.902935</ele>
        <time>2024-04-07T07:46:58.088Z</time>
      </trkpt>
      <trkpt lat="48.20246" lon="6.60226">
        <ele>479.491748</ele>
        <time>2024-04-07T07:47:01.087Z</time>
      </trkpt>
      <trkpt lat="48.2024" lon="6.60239">
        <ele>478.846204</ele>
        <time>2024-04-07T07:47:04.089Z</time>
      </trkpt>
      <trkpt lat="48.20235" lon="6.60252">
        <ele>478.232105</ele>
        <time>2024-04-07T07:47:07.090Z</time>
      </trkpt>
      <trkpt lat="48.20229" lon="6.60264">
        <ele>477.609842</ele>
        <time>2024-04-07T07:47:10.085Z</time>
      </trkpt>
      <trkpt lat="48.20223" lon="6.60278">
        <ele>476.934265</ele>
        <time>2024-04-07T07:47:14.089Z</time>
      </trkpt>
      <trkpt lat="48.20217" lon="6.60289">
        <ele>476.355599</ele>
        <time>2024-04-07T07:47:17.088Z</time>
      </trkpt>
      <trkpt lat="48.20209" lon="6.603">
        <ele>475.669881</ele>
        <time>2024-04-07T07:47:20.086Z</time>
      </trkpt>
      <trkpt lat="48.20202" lon="6.60314">
        <ele>474.987338</ele>
        <time>2024-04-07T07:47:23.072Z</time>
      </trkpt>
      <trkpt lat="48.20196" lon="6.60324">
        <ele>474.413209</ele>
        <time>2024-04-07T07:47:26.083Z</time>
      </trkpt>
      <trkpt lat="48.20191" lon="6.60335">
        <ele>473.853905</ele>
        <time>2024-04-07T07:47:29.082Z</time>
      </trkpt>
      <trkpt lat="48.20183" lon="6.60345">
        <ele>473.250354</ele>
        <time>2024-04-07T07:47:32.085Z</time>
      </trkpt>
      <trkpt lat="48.20178" lon="6.60359">
        <ele>472.570324</ele>
        <time>2024-04-07T07:47:36.086Z</time>
      </trkpt>
      <trkpt lat="48.20175" lon="6.60374">
        <ele>471.95599</ele>
        <time>2024-04-07T07:47:41.087Z</time>
      </trkpt>
      <trkpt lat="48.2017" lon="6.60386">
        <ele>471.369378</ele>
        <time>2024-04-07T07:47:45.084Z</time>
      </trkpt>
      <trkpt lat="48.20173" lon="6.60402">
        <ele>470.658133</ele>
        <time>2024-04-07T07:47:50.088Z</time>
      </trkpt>
      <trkpt lat="48.20172" lon="6.60419">
        <ele>469.973012</ele>
        <time>2024-04-07T07:47:53.085Z</time>
      </trkpt>
      <trkpt lat="48.20171" lon="6.60437">
        <ele>469.241758</ele>
        <time>2024-04-07T07:47:57.085Z</time>
      </trkpt>
      <trkpt lat="48.20176" lon="6.60454">
        <ele>468.96429</ele>
        <time>2024-04-07T07:48:01.076Z</time>
      </trkpt>
      <trkpt lat="48.20182" lon="6.60467">
        <ele>469.095807</ele>
        <time>2024-04-07T07:48:04.078Z</time>
      </trkpt>
      <trkpt lat="48.20186" lon="6.60479">
        <ele>469.219488</ele>
        <time>2024-04-07T07:48:07.080Z</time>
      </trkpt>
      <trkpt lat="48.20192" lon="6.60492">
        <ele>469.355378</ele>
        <time>2024-04-07T07:48:10.079Z</time>
      </trkpt>
      <trkpt lat="48.20197" lon="6.60505">
        <ele>469.492141</ele>
        <time>2024-04-07T07:48:13.074Z</time>
      </trkpt>
      <trkpt lat="48.20204" lon="6.6052">
        <ele>469.65209</ele>
        <time>2024-04-07T07:48:17.078Z</time>
      </trkpt>
      <trkpt lat="48.20206" lon="6.60538">
        <ele>469.806329</ele>
        <time>2024-04-07T07:48:20.076Z</time>
      </trkpt>
      <trkpt lat="48.20207" lon="6.60553">
        <ele>469.938779</ele>
        <time>2024-04-07T07:48:23.059Z</time>
      </trkpt>
      <trkpt lat="48.2021" lon="6.60568">
        <ele>470.077695</ele>
        <time>2024-04-07T07:48:26.079Z</time>
      </trkpt>
      <trkpt lat="48.20213" lon="6.60586">
        <ele>470.24225</ele>
        <time>2024-04-07T07:48:30.077Z</time>
      </trkpt>
      <trkpt lat="48.20219" lon="6.60604">
        <ele>470.414979</ele>
        <time>2024-04-07T07:48:33.078Z</time>
      </trkpt>
      <trkpt lat="48.20225" lon="6.60615">
        <ele>470.540161</ele>
        <time>2024-04-07T07:48:35.079Z</time>
      </trkpt>
      <trkpt lat="48.20226" lon="6.60631">
        <ele>470.685453</ele>
        <time>2024-04-07T07:48:37.081Z</time>
      </trkpt>
      <trkpt lat="48.20232" lon="6.60647">
        <ele>470.836193</ele>
        <time>2024-04-07T07:48:39.080Z</time>
      </trkpt>
      <trkpt lat="48.20234" lon="6.6066">
        <ele>470.958222</ele>
        <time>2024-04-07T07:48:40.077Z</time>
      </trkpt>
      <trkpt lat="48.2024" lon="6.60678">
        <ele>471.129629</ele>
        <time>2024-04-07T07:48:42.080Z</time>
      </trkpt>
      <trkpt lat="48.20244" lon="6.60694">
        <ele>471.482078</ele>
        <time>2024-04-07T07:48:44.077Z</time>
      </trkpt>
      <trkpt lat="48.20245" lon="6.6071">
        <ele>472.32016</ele>
        <time>2024-04-07T07:48:46.079Z</time>
      </trkpt>
      <trkpt lat="48.20239" lon="6.60721">
        <ele>473.043592</ele>
        <time>2024-04-07T07:48:49.084Z</time>
      </trkpt>
      <trkpt lat="48.20231" lon="6.60728">
        <ele>473.785531</ele>
        <time>2024-04-07T07:48:52.080Z</time>
      </trkpt>
      <trkpt lat="48.20221" lon="6.60735">
        <ele>474.661086</ele>
        <time>2024-04-07T07:48:56.068Z</time>
      </trkpt>
      <trkpt lat="48.20211" lon="6.60736">
        <ele>475.461814</ele>
        <time>2024-04-07T07:48:59.080Z</time>
      </trkpt>
      <trkpt lat="48.20199" lon="6.60735">
        <ele>476.454473</ele>
        <time>2024-04-07T07:49:03.080Z</time>
      </trkpt>
      <trkpt lat="48.20189" lon="6.60734">
        <ele>477.222019</ele>
        <time>2024-04-07T07:49:06.070Z</time>
      </trkpt>
      <trkpt lat="48.2018" lon="6.60736">
        <ele>477.952959</ele>
        <time>2024-04-07T07:49:10.076Z</time>
      </trkpt>
      <trkpt lat="48.20171" lon="6.60743">
        <ele>478.772964</ele>
        <time>2024-04-07T07:49:14.072Z</time>
      </trkpt>
      <trkpt lat="48.2016" lon="6.60747">
        <ele>479.649536</ele>
        <time>2024-04-07T07:49:18.065Z</time>
      </trkpt>
      <trkpt lat="48.20151" lon="6.6075">
        <ele>480.408091</ele>
        <time>2024-04-07T07:49:23.059Z</time>
      </trkpt>
      <trkpt lat="48.20142" lon="6.60751">
        <ele>481.150946</ele>
        <time>2024-04-07T07:49:28.068Z</time>
      </trkpt>
      <trkpt lat="48.20126" lon="6.60746">
        <ele>482.405953</ele>
        <time>2024-04-07T07:49:36.060Z</time>
      </trkpt>
      <trkpt lat="48.20117" lon="6.6074">
        <ele>483.199743</ele>
        <time>2024-04-07T07:49:41.071Z</time>
      </trkpt>
      <trkpt lat="48.20107" lon="6.60733">
        <ele>484.080969</ele>
        <time>2024-04-07T07:49:45.089Z</time>
      </trkpt>
      <trkpt lat="48.20099" lon="6.60726">
        <ele>484.835746</ele>
        <time>2024-04-07T07:49:50.084Z</time>
      </trkpt>
      <trkpt lat="48.20091" lon="6.60719">
        <ele>485.59033</ele>
        <time>2024-04-07T07:49:56.087Z</time>
      </trkpt>
      <trkpt lat="48.20083" lon="6.60707">
        <ele>486.340443</ele>
        <time>2024-04-07T07:50:04.082Z</time>
      </trkpt>
      <trkpt lat="48.20073" lon="6.60695">
        <ele>487.194424</ele>
        <time>2024-04-07T07:50:14.086Z</time>
      </trkpt>
      <trkpt lat="48.20063" lon="6.60684">
        <ele>488.034565</ele>
        <time>2024-04-07T07:50:22.076Z</time>
      </trkpt>
      <trkpt lat="48.20049" lon="6.60667">
        <ele>489.201223</ele>
        <time>2024-04-07T07:50:33.086Z</time>
      </trkpt>
      <trkpt lat="48.20041" lon="6.60661">
        <ele>489.822006</ele>
        <time>2024-04-07T07:50:37.081Z</time>
      </trkpt>
      <trkpt lat="48.20032" lon="6.60653">
        <ele>490.515908</ele>
        <time>2024-04-07T07:50:41.088Z</time>
      </trkpt>
      <trkpt lat="48.20025" lon="6.60644">
        <ele>491.155269</ele>
        <time>2024-04-07T07:50:46.087Z</time>
      </trkpt>
      <trkpt lat="48.20016" lon="6.60635">
        <ele>491.863291</ele>
        <time>2024-04-07T07:50:51.088Z</time>
      </trkpt>
      <trkpt lat="48.20007" lon="6.6063">
        <ele>492.535189</ele>
        <time>2024-04-07T07:50:55.089Z</time>
      </trkpt>
      <trkpt lat="48.19997" lon="6.60626">
        <ele>493.175816</ele>
        <time>2024-04-07T07:50:58.081Z</time>
      </trkpt>
      <trkpt lat="48.19989" lon="6.60623">
        <ele>493.777464</ele>
        <time>2024-04-07T07:51:01.089Z</time>
      </trkpt>
      <trkpt lat="48.19979" lon="6.60619">
        <ele>494.466318</ele>
        <time>2024-04-07T07:51:05.086Z</time>
      </trkpt>
      <trkpt lat="48.19969" lon="6.60614">
        <ele>495.120755</ele>
        <time>2024-04-07T07:51:10.088Z</time>
      </trkpt>
      <trkpt lat="48.1996" lon="6.60609">
        <ele>495.803383</ele>
        <time>2024-04-07T07:51:16.089Z</time>
      </trkpt>
      <trkpt lat="48.19948" lon="6.6061">
        <ele>496.608742</ele>
        <time>2024-04-07T07:51:24.085Z</time>
      </trkpt>
      <trkpt lat="48.19936" lon="6.60615">
        <ele>497.448995</ele>
        <time>2024-04-07T07:51:29.085Z</time>
      </trkpt>
      <trkpt lat="48.19925" lon="6.60617">
        <ele>497.571658</ele>
        <time>2024-04-07T07:51:32.085Z</time>
      </trkpt>
      <trkpt lat="48.19913" lon="6.60618">
        <ele>497.467122</ele>
        <time>2024-04-07T07:51:35.089Z</time>
      </trkpt>
      <trkpt lat="48.19902" lon="6.60621">
        <ele>497.364772</ele>
        <time>2024-04-07T07:51:39.090Z</time>
      </trkpt>
      <trkpt lat="48.19894" lon="6.60627">
        <ele>497.283037</ele>
        <time>2024-04-07T07:51:43.089Z</time>
      </trkpt>
      <trkpt lat="48.19882" lon="6.60634">
        <ele>497.175868</ele>
        <time>2024-04-07T07:51:47.084Z</time>
      </trkpt>
      <trkpt lat="48.19874" lon="6.60641">
        <ele>497.092698</ele>
        <time>2024-04-07T07:51:51.088Z</time>
      </trkpt>
      <trkpt lat="48.19865" lon="6.60644">
        <ele>497.011596</ele>
        <time>2024-04-07T07:51:55.086Z</time>
      </trkpt>
      <trkpt lat="48.19852" lon="6.60645">
        <ele>496.901261</ele>
        <time>2024-04-07T07:51:58.089Z</time>
      </trkpt>
      <trkpt lat="48.19842" lon="6.60647">
        <ele>496.81318</ele>
        <time>2024-04-07T07:52:01.088Z</time>
      </trkpt>
      <trkpt lat="48.19832" lon="6.60649">
        <ele>496.722188</ele>
        <time>2024-04-07T07:52:04.090Z</time>
      </trkpt>
      <trkpt lat="48.1982" lon="6.60651">
        <ele>496.614209</ele>
        <time>2024-04-07T07:52:07.083Z</time>
      </trkpt>
      <trkpt lat="48.19809" lon="6.6065">
        <ele>496.516082</ele>
        <time>2024-04-07T07:52:10.090Z</time>
      </trkpt>
      <trkpt lat="48.19799" lon="6.6065">
        <ele>496.43553</ele>
        <time>2024-04-07T07:52:13.091Z</time>
      </trkpt>
      <trkpt lat="48.1979" lon="6.60646">
        <ele>496.349049</ele>
        <time>2024-04-07T07:52:17.088Z</time>
      </trkpt>
      <trkpt lat="48.19778" lon="6.6064">
        <ele>496.235719</ele>
        <time>2024-04-07T07:52:21.067Z</time>
      </trkpt>
      <trkpt lat="48.19769" lon="6.60636">
        <ele>496.155719</ele>
        <time>2024-04-07T07:52:24.084Z</time>
      </trkpt>
      <trkpt lat="48.19756" lon="6.60629">
        <ele>496.05901</ele>
        <time>2024-04-07T07:52:28.086Z</time>
      </trkpt>
      <trkpt lat="48.19745" lon="6.60623">
        <ele>496.044018</ele>
        <time>2024-04-07T07:52:31.090Z</time>
      </trkpt>
      <trkpt lat="48.19735" lon="6.60616">
        <ele>496.028758</ele>
        <time>2024-04-07T07:52:34.087Z</time>
      </trkpt>
      <trkpt lat="48.19724" lon="6.60607">
        <ele>496.011943</ele>
        <time>2024-04-07T07:52:37.084Z</time>
      </trkpt>
      <trkpt lat="48.19716" lon="6.60601">
        <ele>495.99952</ele>
        <time>2024-04-07T07:52:39.087Z</time>
      </trkpt>
      <trkpt lat="48.19707" lon="6.60594">
        <ele>495.9864</ele>
        <time>2024-04-07T07:52:41.089Z</time>
      </trkpt>
      <trkpt lat="48.19698" lon="6.60585">
        <ele>495.972379</ele>
        <time>2024-04-07T07:52:43.090Z</time>
      </trkpt>
      <trkpt lat="48.19689" lon="6.60579">
        <ele>495.958501</ele>
        <time>2024-04-07T07:52:45.090Z</time>
      </trkpt>
      <trkpt lat="48.19676" lon="6.60571">
        <ele>495.939969</ele>
        <time>2024-04-07T07:52:48.076Z</time>
      </trkpt>
      <trkpt lat="48.19666" lon="6.60566">
        <ele>495.926452</ele>
        <time>2024-04-07T07:52:50.089Z</time>
      </trkpt>
      <trkpt lat="48.19655" lon="6.6056">
        <ele>495.910804</ele>
        <time>2024-04-07T07:52:53.079Z</time>
      </trkpt>
      <trkpt lat="48.19646" lon="6.60555">
        <ele>495.897852</ele>
        <time>2024-04-07T07:52:56.091Z</time>
      </trkpt>
      <trkpt lat="48.19637" lon="6.60552">
        <ele>495.884618</ele>
        <time>2024-04-07T07:53:00.079Z</time>
      </trkpt>
      <trkpt lat="48.19626" lon="6.60541">
        <ele>495.866685</ele>
        <time>2024-04-07T07:53:06.081Z</time>
      </trkpt>
      <trkpt lat="48.19617" lon="6.60532">
        <ele>495.852922</ele>
        <time>2024-04-07T07:53:11.080Z</time>
      </trkpt>
      <trkpt lat="48.1961" lon="6.60524">
        <ele>495.840973</ele>
        <time>2024-04-07T07:53:15.082Z</time>
      </trkpt>
      <trkpt lat="48.196" lon="6.60515">
        <ele>495.825504</ele>
        <time>2024-04-07T07:53:18.053Z</time>
      </trkpt>
      <trkpt lat="48.19592" lon="6.60508">
        <ele>496.18588</ele>
        <time>2024-04-07T07:53:22.079Z</time>
      </trkpt>
      <trkpt lat="48.19583" lon="6.60502">
        <ele>496.704786</ele>
        <time>2024-04-07T07:53:25.080Z</time>
      </trkpt>
      <trkpt lat="48.19573" lon="6.60496">
        <ele>497.255055</ele>
        <time>2024-04-07T07:53:28.083Z</time>
      </trkpt>
      <trkpt lat="48.19565" lon="6.6049">
        <ele>497.722051</ele>
        <time>2024-04-07T07:53:31.085Z</time>
      </trkpt>
      <trkpt lat="48.19556" lon="6.60481">
        <ele>498.283013</ele>
        <time>2024-04-07T07:53:35.090Z</time>
      </trkpt>
      <trkpt lat="48.19548" lon="6.60471">
        <ele>498.835113</ele>
        <time>2024-04-07T07:53:40.087Z</time>
      </trkpt>
      <trkpt lat="48.19538" lon="6.6046">
        <ele>499.442924</ele>
        <time>2024-04-07T07:53:44.091Z</time>
      </trkpt>
      <trkpt lat="48.19529" lon="6.60453">
        <ele>499.996504</ele>
        <time>2024-04-07T07:53:47.088Z</time>
      </trkpt>
      <trkpt lat="48.19519" lon="6.60446">
        <ele>500.557785</ele>
        <time>2024-04-07T07:53:51.088Z</time>
      </trkpt>
      <trkpt lat="48.19509" lon="6.60439">
        <ele>501.124387</ele>
        <time>2024-04-07T07:53:55.089Z</time>
      </trkpt>
      <trkpt lat="48.195" lon="6.60434">
        <ele>501.612689</ele>
        <time>2024-04-07T07:54:00.085Z</time>
      </trkpt>
      <trkpt lat="48.19491" lon="6.60427">
        <ele>502.153879</ele>
        <time>2024-04-07T07:54:05.088Z</time>
      </trkpt>
      <trkpt lat="48.19482" lon="6.60421">
        <ele>502.667508</ele>
        <time>2024-04-07T07:54:09.080Z</time>
      </trkpt>
      <trkpt lat="48.19471" lon="6.60417">
        <ele>503.268867</ele>
        <time>2024-04-07T07:54:14.082Z</time>
      </trkpt>
      <trkpt lat="48.19461" lon="6.60413">
        <ele>503.810326</ele>
        <time>2024-04-07T07:54:20.087Z</time>
      </trkpt>
      <trkpt lat="48.19453" lon="6.60406">
        <ele>504.290648</ele>
        <time>2024-04-07T07:54:26.091Z</time>
      </trkpt>
      <trkpt lat="48.19442" lon="6.60401">
        <ele>504.855387</ele>
        <time>2024-04-07T07:54:33.089Z</time>
      </trkpt>
      <trkpt lat="48.19432" lon="6.60397">
        <ele>505.801187</ele>
        <time>2024-04-07T07:54:39.089Z</time>
      </trkpt>
      <trkpt lat="48.1942" lon="6.60389">
        <ele>507.757121</ele>
        <time>2024-04-07T07:54:50.085Z</time>
      </trkpt>
      <trkpt lat="48.19411" lon="6.60384">
        <ele>509.063501</ele>
        <time>2024-04-07T07:54:57.105Z</time>
      </trkpt>
      <trkpt lat="48.19403" lon="6.60378">
        <ele>510.41905</ele>
        <time>2024-04-07T07:55:03.088Z</time>
      </trkpt>
      <trkpt lat="48.19394" lon="6.60365">
        <ele>512.164217</ele>
        <time>2024-04-07T07:55:13.071Z</time>
      </trkpt>
      <trkpt lat="48.19386" lon="6.60351">
        <ele>513.978959</ele>
        <time>2024-04-07T07:55:22.089Z</time>
      </trkpt>
      <trkpt lat="48.19377" lon="6.60336">
        <ele>515.887655</ele>
        <time>2024-04-07T07:55:31.082Z</time>
      </trkpt>
      <trkpt lat="48.19372" lon="6.60325">
        <ele>517.211763</ele>
        <time>2024-04-07T07:55:37.090Z</time>
      </trkpt>
      <trkpt lat="48.19365" lon="6.60315">
        <ele>518.590265</ele>
        <time>2024-04-07T07:55:44.088Z</time>
      </trkpt>
      <trkpt lat="48.1936" lon="6.60302">
        <ele>519.99912</ele>
        <time>2024-04-07T07:55:51.089Z</time>
      </trkpt>
      <trkpt lat="48.19353" lon="6.60289">
        <ele>521.665007</ele>
        <time>2024-04-07T07:56:01.092Z</time>
      </trkpt>
      <trkpt lat="48.19347" lon="6.60277">
        <ele>523.036636</ele>
        <time>2024-04-07T07:56:08.074Z</time>
      </trkpt>
      <trkpt lat="48.19342" lon="6.60264">
        <ele>524.479952</ele>
        <time>2024-04-07T07:56:17.090Z</time>
      </trkpt>
      <trkpt lat="48.19336" lon="6.60254">
        <ele>525.803346</ele>
        <time>2024-04-07T07:56:23.083Z</time>
      </trkpt>
      <trkpt lat="48.19329" lon="6.60244">
        <ele>527.237534</ele>
        <time>2024-04-07T07:56:29.090Z</time>
      </trkpt>
      <trkpt lat="48.19321" lon="6.60234">
        <ele>528.630337</ele>
        <time>2024-04-07T07:56:34.085Z</time>
      </trkpt>
      <trkpt lat="48.19315" lon="6.60225">
        <ele>529.92135</ele>
        <time>2024-04-07T07:56:40.090Z</time>
      </trkpt>
      <trkpt lat="48.19308" lon="6.60215">
        <ele>531.056009</ele>
        <time>2024-04-07T07:56:48.074Z</time>
      </trkpt>
      <trkpt lat="48.19267" lon="6.60174">
        <ele>532.23585</ele>
        <time>2024-04-07T07:57:26.087Z</time>
      </trkpt>
      <trkpt lat="48.19234" lon="6.60117">
        <ele>533.450305</ele>
        <time>2024-04-07T07:58:11.094Z</time>
      </trkpt>
      <trkpt lat="48.19227" lon="6.60107">
        <ele>533.668442</ele>
        <time>2024-04-07T07:58:17.091Z</time>
      </trkpt>
      <trkpt lat="48.19187" lon="6.60063">
        <ele>534.865463</ele>
        <time>2024-04-07T07:59:55.090Z</time>
      </trkpt>
      <trkpt lat="48.19179" lon="6.60071">
        <ele>535.114795</ele>
        <time>2024-04-07T08:00:02.088Z</time>
      </trkpt>
      <trkpt lat="48.19171" lon="6.60081">
        <ele>535.363826</ele>
        <time>2024-04-07T08:00:08.073Z</time>
      </trkpt>
      <trkpt lat="48.19164" lon="6.60092">
        <ele>535.670627</ele>
        <time>2024-04-07T08:00:14.085Z</time>
      </trkpt>
      <trkpt lat="48.19157" lon="6.60104">
        <ele>535.993047</ele>
        <time>2024-04-07T08:00:20.070Z</time>
      </trkpt>
      <trkpt lat="48.19152" lon="6.60116">
        <ele>536.272046</ele>
        <time>2024-04-07T08:00:25.088Z</time>
      </trkpt>
      <trkpt lat="48.19145" lon="6.60126">
        <ele>536.549068</ele>
        <time>2024-04-07T08:00:30.092Z</time>
      </trkpt>
      <trkpt lat="48.19138" lon="6.60136">
        <ele>536.854963</ele>
        <time>2024-04-07T08:00:37.092Z</time>
      </trkpt>
      <trkpt lat="48.1913" lon="6.60149">
        <ele>537.203651</ele>
        <time>2024-04-07T08:00:45.092Z</time>
      </trkpt>
      <trkpt lat="48.19122" lon="6.60159">
        <ele>537.510862</ele>
        <time>2024-04-07T08:00:50.090Z</time>
      </trkpt>
      <trkpt lat="48.19115" lon="6.60172">
        <ele>537.832512</ele>
        <time>2024-04-07T08:00:55.049Z</time>
      </trkpt>
      <trkpt lat="48.19108" lon="6.60183">
        <ele>538.145933</ele>
        <time>2024-04-07T08:01:00.084Z</time>
      </trkpt>
      <trkpt lat="48.19101" lon="6.60193">
        <ele>538.440785</ele>
        <time>2024-04-07T08:01:05.084Z</time>
      </trkpt>
      <trkpt lat="48.19093" lon="6.60201">
        <ele>538.726693</ele>
        <time>2024-04-07T08:01:11.088Z</time>
      </trkpt>
      <trkpt lat="48.19085" lon="6.6021">
        <ele>539.025747</ele>
        <time>2024-04-07T08:01:16.091Z</time>
      </trkpt>
      <trkpt lat="48.19077" lon="6.60219">
        <ele>539.328435</ele>
        <time>2024-04-07T08:01:21.090Z</time>
      </trkpt>
      <trkpt lat="48.19069" lon="6.60229">
        <ele>539.630768</ele>
        <time>2024-04-07T08:01:26.079Z</time>
      </trkpt>
      <trkpt lat="48.19061" lon="6.6024">
        <ele>539.961084</ele>
        <time>2024-04-07T08:01:31.090Z</time>
      </trkpt>
      <trkpt lat="48.19054" lon="6.60249">
        <ele>540.236799</ele>
        <time>2024-04-07T08:01:36.092Z</time>
      </trkpt>
      <trkpt lat="48.19047" lon="6.60259">
        <ele>540.510655</ele>
        <time>2024-04-07T08:01:41.086Z</time>
      </trkpt>
      <trkpt lat="48.1904" lon="6.60269">
        <ele>540.980882</ele>
        <time>2024-04-07T08:01:46.086Z</time>
      </trkpt>
      <trkpt lat="48.19032" lon="6.60277">
        <ele>541.730284</ele>
        <time>2024-04-07T08:01:50.087Z</time>
      </trkpt>
      <trkpt lat="48.19026" lon="6.60287">
        <ele>542.474447</ele>
        <time>2024-04-07T08:01:54.087Z</time>
      </trkpt>
      <trkpt lat="48.19018" lon="6.60295">
        <ele>543.244109</ele>
        <time>2024-04-07T08:01:58.074Z</time>
      </trkpt>
      <trkpt lat="48.1901" lon="6.60305">
        <ele>544.119201</ele>
        <time>2024-04-07T08:02:03.088Z</time>
      </trkpt>
      <trkpt lat="48.19002" lon="6.60314">
        <ele>544.891176</ele>
        <time>2024-04-07T08:02:07.083Z</time>
      </trkpt>
      <trkpt lat="48.18993" lon="6.60323">
        <ele>545.763512</ele>
        <time>2024-04-07T08:02:12.093Z</time>
      </trkpt>
      <trkpt lat="48.18986" lon="6.60333">
        <ele>546.549254</ele>
        <time>2024-04-07T08:02:17.089Z</time>
      </trkpt>
      <trkpt lat="48.1898" lon="6.60345">
        <ele>547.351907</ele>
        <time>2024-04-07T08:02:21.081Z</time>
      </trkpt>
      <trkpt lat="48.18974" lon="6.60355">
        <ele>548.088436</ele>
        <time>2024-04-07T08:02:25.085Z</time>
      </trkpt>
      <trkpt lat="48.18968" lon="6.60366">
        <ele>548.831488</ele>
        <time>2024-04-07T08:02:28.053Z</time>
      </trkpt>
      <trkpt lat="48.1896" lon="6.60378">
        <ele>549.769831</ele>
        <time>2024-04-07T08:02:32.086Z</time>
      </trkpt>
      <trkpt lat="48.18953" lon="6.6039">
        <ele>550.58871</ele>
        <time>2024-04-07T08:02:36.089Z</time>
      </trkpt>
      <trkpt lat="48.18946" lon="6.604">
        <ele>551.382545</ele>
        <time>2024-04-07T08:02:40.088Z</time>
      </trkpt>
      <trkpt lat="48.18938" lon="6.60409">
        <ele>552.199813</ele>
        <time>2024-04-07T08:02:43.090Z</time>
      </trkpt>
      <trkpt lat="48.1893" lon="6.6042">
        <ele>553.076131</ele>
        <time>2024-04-07T08:02:47.079Z</time>
      </trkpt>
      <trkpt lat="48.18925" lon="6.60433">
        <ele>553.904972</ele>
        <time>2024-04-07T08:02:51.091Z</time>
      </trkpt>
      <trkpt lat="48.18919" lon="6.60444">
        <ele>554.64943</ele>
        <time>2024-04-07T08:02:54.089Z</time>
      </trkpt>
      <trkpt lat="48.18915" lon="6.60457">
        <ele>554.957195</ele>
        <time>2024-04-07T08:02:58.072Z</time>
      </trkpt>
      <trkpt lat="48.18913" lon="6.6047">
        <ele>553.830906</ele>
        <time>2024-04-07T08:03:03.090Z</time>
      </trkpt>
      <trkpt lat="48.18917" lon="6.60483">
        <ele>552.618342</ele>
        <time>2024-04-07T08:03:09.090Z</time>
      </trkpt>
      <trkpt lat="48.18922" lon="6.60499">
        <ele>551.206675</ele>
        <time>2024-04-07T08:03:14.088Z</time>
      </trkpt>
      <trkpt lat="48.18926" lon="6.60513">
        <ele>549.928683</ele>
        <time>2024-04-07T08:03:18.072Z</time>
      </trkpt>
      <trkpt lat="48.18928" lon="6.60528">
        <ele>548.635774</ele>
        <time>2024-04-07T08:03:21.088Z</time>
      </trkpt>
      <trkpt lat="48.18932" lon="6.60542">
        <ele>547.34864</ele>
        <time>2024-04-07T08:03:25.085Z</time>
      </trkpt>
      <trkpt lat="48.18939" lon="6.60554">
        <ele>546.061836</ele>
        <time>2024-04-07T08:03:30.078Z</time>
      </trkpt>
      <trkpt lat="48.18943" lon="6.60568">
        <ele>544.826862</ele>
        <time>2024-04-07T08:03:33.077Z</time>
      </trkpt>
      <trkpt lat="48.18947" lon="6.60583">
        <ele>543.450533</ele>
        <time>2024-04-07T08:03:37.091Z</time>
      </trkpt>
      <trkpt lat="48.18948" lon="6.60609">
        <ele>541.300447</ele>
        <time>2024-04-07T08:03:45.072Z</time>
      </trkpt>
      <trkpt lat="48.18949" lon="6.60624">
        <ele>539.999956</ele>
        <time>2024-04-07T08:03:49.082Z</time>
      </trkpt>
      <trkpt lat="48.18948" lon="6.60639">
        <ele>538.781518</ele>
        <time>2024-04-07T08:03:53.082Z</time>
      </trkpt>
      <trkpt lat="48.18945" lon="6.60652">
        <ele>537.643904</ele>
        <time>2024-04-07T08:03:57.088Z</time>
      </trkpt>
      <trkpt lat="48.18942" lon="6.60668">
        <ele>536.255586</ele>
        <time>2024-04-07T08:04:01.088Z</time>
      </trkpt>
      <trkpt lat="48.1894" lon="6.60682">
        <ele>535.040987</ele>
        <time>2024-04-07T08:04:05.082Z</time>
      </trkpt>
      <trkpt lat="48.18936" lon="6.60696">
        <ele>533.77063</ele>
        <time>2024-04-07T08:04:10.087Z</time>
      </trkpt>
      <trkpt lat="48.18933" lon="6.60709">
        <ele>532.698707</ele>
        <time>2024-04-07T08:04:14.090Z</time>
      </trkpt>
      <trkpt lat="48.18929" lon="6.60725">
        <ele>531.668144</ele>
        <time>2024-04-07T08:04:18.083Z</time>
      </trkpt>
      <trkpt lat="48.18926" lon="6.60738">
        <ele>530.833851</ele>
        <time>2024-04-07T08:04:23.091Z</time>
      </trkpt>
      <trkpt lat="48.18923" lon="6.60754">
        <ele>529.804153</ele>
        <time>2024-04-07T08:04:27.093Z</time>
      </trkpt>
      <trkpt lat="48.18917" lon="6.6077">
        <ele>528.706463</ele>
        <time>2024-04-07T08:04:31.090Z</time>
      </trkpt>
      <trkpt lat="48.18911" lon="6.60783">
        <ele>527.742333</ele>
        <time>2024-04-07T08:04:36.088Z</time>
      </trkpt>
      <trkpt lat="48.18908" lon="6.60798">
        <ele>526.813453</ele>
        <time>2024-04-07T08:04:41.090Z</time>
      </trkpt>
      <trkpt lat="48.18906" lon="6.60811">
        <ele>525.962281</ele>
        <time>2024-04-07T08:04:45.081Z</time>
      </trkpt>
      <trkpt lat="48.18904" lon="6.60825">
        <ele>525.084395</ele>
        <time>2024-04-07T08:04:49.073Z</time>
      </trkpt>
      <trkpt lat="48.18902" lon="6.6084">
        <ele>524.161718</ele>
        <time>2024-04-07T08:04:54.078Z</time>
      </trkpt>
      <trkpt lat="48.18898" lon="6.60854">
        <ele>523.267092</ele>
        <time>2024-04-07T08:04:58.071Z</time>
      </trkpt>
      <trkpt lat="48.18893" lon="6.60868">
        <ele>522.302915</ele>
        <time>2024-04-07T08:05:02.090Z</time>
      </trkpt>
      <trkpt lat="48.18888" lon="6.6088">
        <ele>521.384587</ele>
        <time>2024-04-07T08:05:07.089Z</time>
      </trkpt>
      <trkpt lat="48.18884" lon="6.60894">
        <ele>520.467005</ele>
        <time>2024-04-07T08:05:11.081Z</time>
      </trkpt>
      <trkpt lat="48.18881" lon="6.6091">
        <ele>519.44912</ele>
        <time>2024-04-07T08:05:16.083Z</time>
      </trkpt>
      <trkpt lat="48.18879" lon="6.60927">
        <ele>518.433063</ele>
        <time>2024-04-07T08:05:22.080Z</time>
      </trkpt>
      <trkpt lat="48.18877" lon="6.60941">
        <ele>517.517299</ele>
        <time>2024-04-07T08:05:27.090Z</time>
      </trkpt>
      <trkpt lat="48.18874" lon="6.60955">
        <ele>516.611271</ele>
        <time>2024-04-07T08:05:31.081Z</time>
      </trkpt>
      <trkpt lat="48.18869" lon="6.60969">
        <ele>518.125586</ele>
        <time>2024-04-07T08:05:36.084Z</time>
      </trkpt>
      <trkpt lat="48.18863" lon="6.60981">
        <ele>520.455789</ele>
        <time>2024-04-07T08:05:40.080Z</time>
      </trkpt>
      <trkpt lat="48.18858" lon="6.60996">
        <ele>522.866312</ele>
        <time>2024-04-07T08:05:46.081Z</time>
      </trkpt>
      <trkpt lat="48.18851" lon="6.6101">
        <ele>525.344573</ele>
        <time>2024-04-07T08:05:52.083Z</time>
      </trkpt>
      <trkpt lat="48.18843" lon="6.61019">
        <ele>527.523806</ele>
        <time>2024-04-07T08:05:57.081Z</time>
      </trkpt>
      <trkpt lat="48.18831" lon="6.61028">
        <ele>530.49982</ele>
        <time>2024-04-07T08:06:08.083Z</time>
      </trkpt>
      <trkpt lat="48.18817" lon="6.61037">
        <ele>533.831617</ele>
        <time>2024-04-07T08:06:19.083Z</time>
      </trkpt>
      <trkpt lat="48.18801" lon="6.61045">
        <ele>537.433082</ele>
        <time>2024-04-07T08:06:27.083Z</time>
      </trkpt>
      <trkpt lat="48.18784" lon="6.61054">
        <ele>541.333585</ele>
        <time>2024-04-07T08:06:36.085Z</time>
      </trkpt>
      <trkpt lat="48.18774" lon="6.61055">
        <ele>543.58873</ele>
        <time>2024-04-07T08:06:41.081Z</time>
      </trkpt>
      <trkpt lat="48.18764" lon="6.61054">
        <ele>545.838018</ele>
        <time>2024-04-07T08:06:46.082Z</time>
      </trkpt>
      <trkpt lat="48.18755" lon="6.61056">
        <ele>547.85988</ele>
        <time>2024-04-07T08:06:51.082Z</time>
      </trkpt>
      <trkpt lat="48.1874" lon="6.61059">
        <ele>551.089051</ele>
        <time>2024-04-07T08:06:59.080Z</time>
      </trkpt>
      <trkpt lat="48.18729" lon="6.61061">
        <ele>553.511415</ele>
        <time>2024-04-07T08:07:03.079Z</time>
      </trkpt>
      <trkpt lat="48.18718" lon="6.61062">
        <ele>555.664617</ele>
        <time>2024-04-07T08:07:07.082Z</time>
      </trkpt>
      <trkpt lat="48.18708" lon="6.61061">
        <ele>555.998649</ele>
        <time>2024-04-07T08:07:10.083Z</time>
      </trkpt>
      <trkpt lat="48.18698" lon="6.61063">
        <ele>556.347659</ele>
        <time>2024-04-07T08:07:13.080Z</time>
      </trkpt>
      <trkpt lat="48.18689" lon="6.61065">
        <ele>556.689024</ele>
        <time>2024-04-07T08:07:16.090Z</time>
      </trkpt>
      <trkpt lat="48.18681" lon="6.61072">
        <ele>557.006054</ele>
        <time>2024-04-07T08:07:21.091Z</time>
      </trkpt>
      <trkpt lat="48.18674" lon="6.61083">
        <ele>557.346691</ele>
        <time>2024-04-07T08:07:25.088Z</time>
      </trkpt>
      <trkpt lat="48.18668" lon="6.61096">
        <ele>557.736508</ele>
        <time>2024-04-07T08:07:29.086Z</time>
      </trkpt>
      <trkpt lat="48.18663" lon="6.61109">
        <ele>558.073836</ele>
        <time>2024-04-07T08:07:33.089Z</time>
      </trkpt>
      <trkpt lat="48.18659" lon="6.61123">
        <ele>558.436477</ele>
        <time>2024-04-07T08:07:37.089Z</time>
      </trkpt>
      <trkpt lat="48.18654" lon="6.61138">
        <ele>558.820803</ele>
        <time>2024-04-07T08:07:41.078Z</time>
      </trkpt>
      <trkpt lat="48.18649" lon="6.61149">
        <ele>559.14389</ele>
        <time>2024-04-07T08:07:45.088Z</time>
      </trkpt>
      <trkpt lat="48.18642" lon="6.61158">
        <ele>559.470337</ele>
        <time>2024-04-07T08:07:49.089Z</time>
      </trkpt>
      <trkpt lat="48.18639" lon="6.61171">
        <ele>559.796493</ele>
        <time>2024-04-07T08:07:54.089Z</time>
      </trkpt>
      <trkpt lat="48.18637" lon="6.61198">
        <ele>560.41207</ele>
        <time>2024-04-07T08:08:05.081Z</time>
      </trkpt>
      <trkpt lat="48.18637" lon="6.61217">
        <ele>560.872805</ele>
        <time>2024-04-07T08:08:15.082Z</time>
      </trkpt>
      <trkpt lat="48.18639" lon="6.61241">
        <ele>561.419577</ele>
        <time>2024-04-07T08:08:24.081Z</time>
      </trkpt>
      <trkpt lat="48.1864" lon="6.61263">
        <ele>561.918093</ele>
        <time>2024-04-07T08:08:34.080Z</time>
      </trkpt>
      <trkpt lat="48.18641" lon="6.6128">
        <ele>561.847919</ele>
        <time>2024-04-07T08:08:41.064Z</time>
      </trkpt>
      <trkpt lat="48.18642" lon="6.61297">
        <ele>561.781548</ele>
        <time>2024-04-07T08:08:47.079Z</time>
      </trkpt>
      <trkpt lat="48.18642" lon="6.61312">
        <ele>561.723131</ele>
        <time>2024-04-07T08:08:53.081Z</time>
      </trkpt>
      <trkpt lat="48.1864" lon="6.61325">
        <ele>561.667394</ele>
        <time>2024-04-07T08:08:57.080Z</time>
      </trkpt>
      <trkpt lat="48.18643" lon="6.61339">
        <ele>561.609571</ele>
        <time>2024-04-07T08:09:02.082Z</time>
      </trkpt>
      <trkpt lat="48.18651" lon="6.61356">
        <ele>561.529365</ele>
        <time>2024-04-07T08:09:10.080Z</time>
      </trkpt>
      <trkpt lat="48.18656" lon="6.61368">
        <ele>561.472581</ele>
        <time>2024-04-07T08:09:13.079Z</time>
      </trkpt>
      <trkpt lat="48.18662" lon="6.61379">
        <ele>561.417322</ele>
        <time>2024-04-07T08:09:18.082Z</time>
      </trkpt>
      <trkpt lat="48.18671" lon="6.61386">
        <ele>561.355926</ele>
        <time>2024-04-07T08:09:23.078Z</time>
      </trkpt>
      <trkpt lat="48.18679" lon="6.61393">
        <ele>561.299799</ele>
        <time>2024-04-07T08:09:28.080Z</time>
      </trkpt>
      <trkpt lat="48.18685" lon="6.61405">
        <ele>561.239771</ele>
        <time>2024-04-07T08:09:32.080Z</time>
      </trkpt>
      <trkpt lat="48.18692" lon="6.61418">
        <ele>561.175901</ele>
        <time>2024-04-07T08:09:36.065Z</time>
      </trkpt>
      <trkpt lat="48.187" lon="6.61428">
        <ele>561.11452</ele>
        <time>2024-04-07T08:09:40.074Z</time>
      </trkpt>
      <trkpt lat="48.18707" lon="6.6144">
        <ele>561.050087</ele>
        <time>2024-04-07T08:09:44.082Z</time>
      </trkpt>
      <trkpt lat="48.18714" lon="6.61452">
        <ele>560.986278</ele>
        <time>2024-04-07T08:09:49.079Z</time>
      </trkpt>
      <trkpt lat="48.18696" lon="6.615">
        <ele>560.726399</ele>
        <time>2024-04-07T08:11:15.087Z</time>
      </trkpt>
      <trkpt lat="48.18688" lon="6.61507">
        <ele>560.63991</ele>
        <time>2024-04-07T08:11:20.079Z</time>
      </trkpt>
      <trkpt lat="48.1868" lon="6.61517">
        <ele>560.547954</ele>
        <time>2024-04-07T08:11:26.087Z</time>
      </trkpt>
      <trkpt lat="48.18672" lon="6.61527">
        <ele>560.456748</ele>
        <time>2024-04-07T08:11:31.090Z</time>
      </trkpt>
      <trkpt lat="48.18664" lon="6.61532">
        <ele>560.376861</ele>
        <time>2024-04-07T08:11:36.090Z</time>
      </trkpt>
      <trkpt lat="48.18654" lon="6.61539">
        <ele>560.287062</ele>
        <time>2024-04-07T08:11:41.088Z</time>
      </trkpt>
      <trkpt lat="48.18644" lon="6.61542">
        <ele>560.191469</ele>
        <time>2024-04-07T08:11:46.088Z</time>
      </trkpt>
      <trkpt lat="48.18633" lon="6.61546">
        <ele>560.095809</ele>
        <time>2024-04-07T08:11:50.089Z</time>
      </trkpt>
      <trkpt lat="48.18622" lon="6.6155">
        <ele>559.993868</ele>
        <time>2024-04-07T08:11:54.090Z</time>
      </trkpt>
      <trkpt lat="48.18613" lon="6.61555">
        <ele>559.908236</ele>
        <time>2024-04-07T08:11:57.090Z</time>
      </trkpt>
      <trkpt lat="48.18603" lon="6.61562">
        <ele>559.810792</ele>
        <time>2024-04-07T08:12:01.089Z</time>
      </trkpt>
      <trkpt lat="48.18594" lon="6.61571">
        <ele>559.713226</ele>
        <time>2024-04-07T08:12:05.089Z</time>
      </trkpt>
      <trkpt lat="48.18588" lon="6.61584">
        <ele>559.621506</ele>
        <time>2024-04-07T08:12:08.071Z</time>
      </trkpt>
      <trkpt lat="48.18582" lon="6.61594">
        <ele>559.541334</ele>
        <time>2024-04-07T08:12:10.081Z</time>
      </trkpt>
      <trkpt lat="48.18572" lon="6.61605">
        <ele>559.431463</ele>
        <time>2024-04-07T08:12:12.080Z</time>
      </trkpt>
      <trkpt lat="48.18563" lon="6.61622">
        <ele>559.310178</ele>
        <time>2024-04-07T08:12:15.081Z</time>
      </trkpt>
      <trkpt lat="48.18551" lon="6.6163">
        <ele>558.50873</ele>
        <time>2024-04-07T08:12:17.088Z</time>
      </trkpt>
      <trkpt lat="48.18542" lon="6.61644">
        <ele>557.337177</ele>
        <time>2024-04-07T08:12:20.089Z</time>
      </trkpt>
      <trkpt lat="48.18532" lon="6.61652">
        <ele>556.289607</ele>
        <time>2024-04-07T08:12:22.088Z</time>
      </trkpt>
      <trkpt lat="48.18522" lon="6.61661">
        <ele>555.299257</ele>
        <time>2024-04-07T08:12:24.088Z</time>
      </trkpt>
      <trkpt lat="48.18515" lon="6.61669">
        <ele>554.473998</ele>
        <time>2024-04-07T08:12:26.089Z</time>
      </trkpt>
      <trkpt lat="48.1851" lon="6.6168">
        <ele>553.639492</ele>
        <time>2024-04-07T08:12:28.073Z</time>
      </trkpt>
      <trkpt lat="48.18504" lon="6.61693">
        <ele>552.731805</ele>
        <time>2024-04-07T08:12:30.087Z</time>
      </trkpt>
      <trkpt lat="48.185" lon="6.61708">
        <ele>551.716989</ele>
        <time>2024-04-07T08:12:32.090Z</time>
      </trkpt>
      <trkpt lat="48.18493" lon="6.61723">
        <ele>550.654117</ele>
        <time>2024-04-07T08:12:34.089Z</time>
      </trkpt>
      <trkpt lat="48.18489" lon="6.6174">
        <ele>549.582471</ele>
        <time>2024-04-07T08:12:36.078Z</time>
      </trkpt>
      <trkpt lat="48.18487" lon="6.61758">
        <ele>548.457268</ele>
        <time>2024-04-07T08:12:38.079Z</time>
      </trkpt>
      <trkpt lat="48.18484" lon="6.61777">
        <ele>547.289614</ele>
        <time>2024-04-07T08:12:40.082Z</time>
      </trkpt>
      <trkpt lat="48.18483" lon="6.61792">
        <ele>546.392342</ele>
        <time>2024-04-07T08:12:42.077Z</time>
      </trkpt>
      <trkpt lat="48.18481" lon="6.6181">
        <ele>545.275211</ele>
        <time>2024-04-07T08:12:44.083Z</time>
      </trkpt>
      <trkpt lat="48.18479" lon="6.61829">
        <ele>544.171544</ele>
        <time>2024-04-07T08:12:46.079Z</time>
      </trkpt>
      <trkpt lat="48.1848" lon="6.61843">
        <ele>543.314923</ele>
        <time>2024-04-07T08:12:48.076Z</time>
      </trkpt>
      <trkpt lat="48.18481" lon="6.61859">
        <ele>544.017718</ele>
        <time>2024-04-07T08:12:51.089Z</time>
      </trkpt>
      <trkpt lat="48.18488" lon="6.6187">
        <ele>545.32263</ele>
        <time>2024-04-07T08:12:55.090Z</time>
      </trkpt>
      <trkpt lat="48.18494" lon="6.61881">
        <ele>546.588857</ele>
        <time>2024-04-07T08:13:01.082Z</time>
      </trkpt>
      <trkpt lat="48.18518" lon="6.6194">
        <ele>552.786361</ele>
        <time>2024-04-07T08:14:23.094Z</time>
      </trkpt>
      <trkpt lat="48.18522" lon="6.61954">
        <ele>554.168185</ele>
        <time>2024-04-07T08:14:28.052Z</time>
      </trkpt>
      <trkpt lat="48.1852" lon="6.6197">
        <ele>555.593961</ele>
        <time>2024-04-07T08:14:34.092Z</time>
      </trkpt>
      <trkpt lat="48.18517" lon="6.61983">
        <ele>556.849905</ele>
        <time>2024-04-07T08:14:38.075Z</time>
      </trkpt>
      <trkpt lat="48.18516" lon="6.61997">
        <ele>558.077939</ele>
        <time>2024-04-07T08:14:42.092Z</time>
      </trkpt>
      <trkpt lat="48.18517" lon="6.62011">
        <ele>559.313336</ele>
        <time>2024-04-07T08:14:48.071Z</time>
      </trkpt>
      <trkpt lat="48.18518" lon="6.62026">
        <ele>560.677512</ele>
        <time>2024-04-07T08:14:56.088Z</time>
      </trkpt>
      <trkpt lat="48.18523" lon="6.62044">
        <ele>562.423619</ele>
        <time>2024-04-07T08:15:05.089Z</time>
      </trkpt>
      <trkpt lat="48.18527" lon="6.62057">
        <ele>563.771405</ele>
        <time>2024-04-07T08:15:11.087Z</time>
      </trkpt>
      <trkpt lat="48.18527" lon="6.62075">
        <ele>565.342164</ele>
        <time>2024-04-07T08:15:18.070Z</time>
      </trkpt>
      <trkpt lat="48.18528" lon="6.62092">
        <ele>566.916601</ele>
        <time>2024-04-07T08:15:23.086Z</time>
      </trkpt>
      <trkpt lat="48.18528" lon="6.62109">
        <ele>566.538643</ele>
        <time>2024-04-07T08:15:27.089Z</time>
      </trkpt>
      <trkpt lat="48.18532" lon="6.62123">
        <ele>565.854988</ele>
        <time>2024-04-07T08:15:32.088Z</time>
      </trkpt>
      <trkpt lat="48.18534" lon="6.62137">
        <ele>565.155105</ele>
        <time>2024-04-07T08:15:36.089Z</time>
      </trkpt>
      <trkpt lat="48.18527" lon="6.62148">
        <ele>564.461832</ele>
        <time>2024-04-07T08:15:43.090Z</time>
      </trkpt>
      <trkpt lat="48.18518" lon="6.62155">
        <ele>563.756599</ele>
        <time>2024-04-07T08:15:47.084Z</time>
      </trkpt>
      <trkpt lat="48.18509" lon="6.62167">
        <ele>562.900111</ele>
        <time>2024-04-07T08:15:51.088Z</time>
      </trkpt>
      <trkpt lat="48.18501" lon="6.6218">
        <ele>562.074787</ele>
        <time>2024-04-07T08:15:55.071Z</time>
      </trkpt>
      <trkpt lat="48.18492" lon="6.62194">
        <ele>561.187684</ele>
        <time>2024-04-07T08:15:59.087Z</time>
      </trkpt>
      <trkpt lat="48.18485" lon="6.62203">
        <ele>560.512593</ele>
        <time>2024-04-07T08:16:02.091Z</time>
      </trkpt>
      <trkpt lat="48.18478" lon="6.62213">
        <ele>559.83514</ele>
        <time>2024-04-07T08:16:05.089Z</time>
      </trkpt>
      <trkpt lat="48.18467" lon="6.62224">
        <ele>558.973146</ele>
        <time>2024-04-07T08:16:09.091Z</time>
      </trkpt>
      <trkpt lat="48.1846" lon="6.62236">
        <ele>558.194094</ele>
        <time>2024-04-07T08:16:12.089Z</time>
      </trkpt>
      <trkpt lat="48.18453" lon="6.62246">
        <ele>557.497602</ele>
        <time>2024-04-07T08:16:15.089Z</time>
      </trkpt>
      <trkpt lat="48.18445" lon="6.62255">
        <ele>556.828352</ele>
        <time>2024-04-07T08:16:18.090Z</time>
      </trkpt>
      <trkpt lat="48.18437" lon="6.62265">
        <ele>556.123107</ele>
        <time>2024-04-07T08:16:22.087Z</time>
      </trkpt>
      <trkpt lat="48.18434" lon="6.6228">
        <ele>555.369876</ele>
        <time>2024-04-07T08:16:28.073Z</time>
      </trkpt>
      <trkpt lat="48.18429" lon="6.62295">
        <ele>554.656546</ele>
        <time>2024-04-07T08:16:32.087Z</time>
      </trkpt>
      <trkpt lat="48.18425" lon="6.62309">
        <ele>554.611222</ele>
        <time>2024-04-07T08:16:35.086Z</time>
      </trkpt>
      <trkpt lat="48.18421" lon="6.62324">
        <ele>554.559967</ele>
        <time>2024-04-07T08:16:39.091Z</time>
      </trkpt>
      <trkpt lat="48.18417" lon="6.62338">
        <ele>554.511101</ele>
        <time>2024-04-07T08:16:44.088Z</time>
      </trkpt>
      <trkpt lat="48.18411" lon="6.62349">
        <ele>554.465742</ele>
        <time>2024-04-07T08:16:48.089Z</time>
      </trkpt>
      <trkpt lat="48.18402" lon="6.62356">
        <ele>554.416958</ele>
        <time>2024-04-07T08:16:53.088Z</time>
      </trkpt>
      <trkpt lat="48.18392" lon="6.62358">
        <ele>554.37226</ele>
        <time>2024-04-07T08:16:57.091Z</time>
      </trkpt>
      <trkpt lat="48.18382" lon="6.62357">
        <ele>554.325309</ele>
        <time>2024-04-07T08:17:02.090Z</time>
      </trkpt>
      <trkpt lat="48.18372" lon="6.62354">
        <ele>554.275513</ele>
        <time>2024-04-07T08:17:08.072Z</time>
      </trkpt>
      <trkpt lat="48.1836" lon="6.6236">
        <ele>554.217579</ele>
        <time>2024-04-07T08:17:12.087Z</time>
      </trkpt>
      <trkpt lat="48.1835" lon="6.62368">
        <ele>554.164146</ele>
        <time>2024-04-07T08:17:15.089Z</time>
      </trkpt>
      <trkpt lat="48.18341" lon="6.62373">
        <ele>554.121672</ele>
        <time>2024-04-07T08:17:17.088Z</time>
      </trkpt>
      <trkpt lat="48.18331" lon="6.62382">
        <ele>554.064904</ele>
        <time>2024-04-07T08:17:20.088Z</time>
      </trkpt>
      <trkpt lat="48.18322" lon="6.62386">
        <ele>554.01995</ele>
        <time>2024-04-07T08:17:25.088Z</time>
      </trkpt>
      <trkpt lat="48.18312" lon="6.62385">
        <ele>553.976337</ele>
        <time>2024-04-07T08:17:29.070Z</time>
      </trkpt>
      <trkpt lat="48.18302" lon="6.62384">
        <ele>553.929817</ele>
        <time>2024-04-07T08:17:35.087Z</time>
      </trkpt>
      <trkpt lat="48.18285" lon="6.62383">
        <ele>553.850064</ele>
        <time>2024-04-07T08:17:44.085Z</time>
      </trkpt>
      <trkpt lat="48.18269" lon="6.62379">
        <ele>554.82398</ele>
        <time>2024-04-07T08:17:54.088Z</time>
      </trkpt>
      <trkpt lat="48.18256" lon="6.62379">
        <ele>556.076695</ele>
        <time>2024-04-07T08:18:01.091Z</time>
      </trkpt>
      <trkpt lat="48.18246" lon="6.62379">
        <ele>557.08944</ele>
        <time>2024-04-07T08:18:08.091Z</time>
      </trkpt>
      <trkpt lat="48.18143" lon="6.62361">
        <ele>567.519939</ele>
        <time>2024-04-07T08:21:28.090Z</time>
      </trkpt>
      <trkpt lat="48.18132" lon="6.62363">
        <ele>568.579072</ele>
        <time>2024-04-07T08:21:33.089Z</time>
      </trkpt>
      <trkpt lat="48.18122" lon="6.62366">
        <ele>569.601098</ele>
        <time>2024-04-07T08:21:37.086Z</time>
      </trkpt>
      <trkpt lat="48.18113" lon="6.62366">
        <ele>570.513686</ele>
        <time>2024-04-07T08:21:40.068Z</time>
      </trkpt>
      <trkpt lat="48.18103" lon="6.62365">
        <ele>571.566052</ele>
        <time>2024-04-07T08:21:43.086Z</time>
      </trkpt>
      <trkpt lat="48.18093" lon="6.62366">
        <ele>570.952939</ele>
        <time>2024-04-07T08:21:45.089Z</time>
      </trkpt>
      <trkpt lat="48.1808" lon="6.62366">
        <ele>569.352914</ele>
        <time>2024-04-07T08:21:47.078Z</time>
      </trkpt>
      <trkpt lat="48.18065" lon="6.62365">
        <ele>567.477613</ele>
        <time>2024-04-07T08:21:49.082Z</time>
      </trkpt>
      <trkpt lat="48.18054" lon="6.62364">
        <ele>566.063114</ele>
        <time>2024-04-07T08:21:51.084Z</time>
      </trkpt>
      <trkpt lat="48.18042" lon="6.62366">
        <ele>564.560269</ele>
        <time>2024-04-07T08:21:53.083Z</time>
      </trkpt>
      <trkpt lat="48.18028" lon="6.62367">
        <ele>562.779516</ele>
        <time>2024-04-07T08:21:55.080Z</time>
      </trkpt>
      <trkpt lat="48.1801" lon="6.6237">
        <ele>560.578484</ele>
        <time>2024-04-07T08:21:57.088Z</time>
      </trkpt>
      <trkpt lat="48.17994" lon="6.62375">
        <ele>558.519707</ele>
        <time>2024-04-07T08:21:59.086Z</time>
      </trkpt>
      <trkpt lat="48.17979" lon="6.62379">
        <ele>556.615912</ele>
        <time>2024-04-07T08:22:01.068Z</time>
      </trkpt>
      <trkpt lat="48.17963" lon="6.62388">
        <ele>554.536121</ele>
        <time>2024-04-07T08:22:03.084Z</time>
      </trkpt>
      <trkpt lat="48.17948" lon="6.62397">
        <ele>552.464683</ele>
        <time>2024-04-07T08:22:05.071Z</time>
      </trkpt>
      <trkpt lat="48.17935" lon="6.6241">
        <ele>550.529654</ele>
        <time>2024-04-07T08:22:07.086Z</time>
      </trkpt>
      <trkpt lat="48.17929" lon="6.62423">
        <ele>549.282316</ele>
        <time>2024-04-07T08:22:10.063Z</time>
      </trkpt>
      <trkpt lat="48.17922" lon="6.62433">
        <ele>548.726302</ele>
        <time>2024-04-07T08:22:13.084Z</time>
      </trkpt>
      <trkpt lat="48.17913" lon="6.62441">
        <ele>548.086554</ele>
        <time>2024-04-07T08:22:16.085Z</time>
      </trkpt>
      <trkpt lat="48.17904" lon="6.62448">
        <ele>547.538268</ele>
        <time>2024-04-07T08:22:18.082Z</time>
      </trkpt>
      <trkpt lat="48.17895" lon="6.62454">
        <ele>546.920996</ele>
        <time>2024-04-07T08:22:20.086Z</time>
      </trkpt>
      <trkpt lat="48.17885" lon="6.62459">
        <ele>546.321809</ele>
        <time>2024-04-07T08:22:22.087Z</time>
      </trkpt>
      <trkpt lat="48.17875" lon="6.62464">
        <ele>545.671637</ele>
        <time>2024-04-07T08:22:24.082Z</time>
      </trkpt>
      <trkpt lat="48.17862" lon="6.62466">
        <ele>544.913922</ele>
        <time>2024-04-07T08:22:26.070Z</time>
      </trkpt>
      <trkpt lat="48.17849" lon="6.62467">
        <ele>544.127543</ele>
        <time>2024-04-07T08:22:28.076Z</time>
      </trkpt>
      <trkpt lat="48.17836" lon="6.62468">
        <ele>543.375539</ele>
        <time>2024-04-07T08:22:30.072Z</time>
      </trkpt>
      <trkpt lat="48.17823" lon="6.6247">
        <ele>542.571908</ele>
        <time>2024-04-07T08:22:32.085Z</time>
      </trkpt>
      <trkpt lat="48.17809" lon="6.62471">
        <ele>541.785598</ele>
        <time>2024-04-07T08:22:34.078Z</time>
      </trkpt>
      <trkpt lat="48.17798" lon="6.62468">
        <ele>541.104527</ele>
        <time>2024-04-07T08:22:36.071Z</time>
      </trkpt>
      <trkpt lat="48.17788" lon="6.62465">
        <ele>540.480214</ele>
        <time>2024-04-07T08:22:38.074Z</time>
      </trkpt>
      <trkpt lat="48.17778" lon="6.62457">
        <ele>539.846428</ele>
        <time>2024-04-07T08:22:40.073Z</time>
      </trkpt>
      <trkpt lat="48.17771" lon="6.62443">
        <ele>539.140149</ele>
        <time>2024-04-07T08:22:42.080Z</time>
      </trkpt>
      <trkpt lat="48.17764" lon="6.62425">
        <ele>538.25018</ele>
        <time>2024-04-07T08:22:44.083Z</time>
      </trkpt>
      <trkpt lat="48.17759" lon="6.62403">
        <ele>537.170148</ele>
        <time>2024-04-07T08:22:46.067Z</time>
      </trkpt>
      <trkpt lat="48.17754" lon="6.62378">
        <ele>535.984682</ele>
        <time>2024-04-07T08:22:48.078Z</time>
      </trkpt>
      <trkpt lat="48.17747" lon="6.62354">
        <ele>534.810131</ele>
        <time>2024-04-07T08:22:50.083Z</time>
      </trkpt>
      <trkpt lat="48.17738" lon="6.62331">
        <ele>533.598952</ele>
        <time>2024-04-07T08:22:52.087Z</time>
      </trkpt>
      <trkpt lat="48.17728" lon="6.6231">
        <ele>532.383651</ele>
        <time>2024-04-07T08:22:54.084Z</time>
      </trkpt>
      <trkpt lat="48.17717" lon="6.6229">
        <ele>531.199368</ele>
        <time>2024-04-07T08:22:56.088Z</time>
      </trkpt>
      <trkpt lat="48.17707" lon="6.6227">
        <ele>530.073107</ele>
        <time>2024-04-07T08:22:58.075Z</time>
      </trkpt>
      <trkpt lat="48.17699" lon="6.6225">
        <ele>528.999215</ele>
        <time>2024-04-07T08:23:00.087Z</time>
      </trkpt>
      <trkpt lat="48.17692" lon="6.62231">
        <ele>528.002712</ele>
        <time>2024-04-07T08:23:02.084Z</time>
      </trkpt>
      <trkpt lat="48.17686" lon="6.6221">
        <ele>526.924623</ele>
        <time>2024-04-07T08:23:04.080Z</time>
      </trkpt>
      <trkpt lat="48.1768" lon="6.6219">
        <ele>525.779184</ele>
        <time>2024-04-07T08:23:06.068Z</time>
      </trkpt>
      <trkpt lat="48.17671" lon="6.6217">
        <ele>524.300201</ele>
        <time>2024-04-07T08:23:08.072Z</time>
      </trkpt>
      <trkpt lat="48.17659" lon="6.62153">
        <ele>522.796618</ele>
        <time>2024-04-07T08:23:10.080Z</time>
      </trkpt>
      <trkpt lat="48.17647" lon="6.62139">
        <ele>521.366346</ele>
        <time>2024-04-07T08:23:12.087Z</time>
      </trkpt>
      <trkpt lat="48.17634" lon="6.62123">
        <ele>519.816061</ele>
        <time>2024-04-07T08:23:14.071Z</time>
      </trkpt>
      <trkpt lat="48.17623" lon="6.62105">
        <ele>518.347048</ele>
        <time>2024-04-07T08:23:16.092Z</time>
      </trkpt>
      <trkpt lat="48.17614" lon="6.62086">
        <ele>516.908214</ele>
        <time>2024-04-07T08:23:18.079Z</time>
      </trkpt>
      <trkpt lat="48.17606" lon="6.62065">
        <ele>515.406194</ele>
        <time>2024-04-07T08:23:20.088Z</time>
      </trkpt>
      <trkpt lat="48.17597" lon="6.62047">
        <ele>513.974776</ele>
        <time>2024-04-07T08:23:22.084Z</time>
      </trkpt>
      <trkpt lat="48.17584" lon="6.62035">
        <ele>512.617525</ele>
        <time>2024-04-07T08:23:24.083Z</time>
      </trkpt>
      <trkpt lat="48.17571" lon="6.62028">
        <ele>511.328253</ele>
        <time>2024-04-07T08:23:26.086Z</time>
      </trkpt>
      <trkpt lat="48.1756" lon="6.6202">
        <ele>510.176013</ele>
        <time>2024-04-07T08:23:28.079Z</time>
      </trkpt>
      <trkpt lat="48.17546" lon="6.62013">
        <ele>509.204674</ele>
        <time>2024-04-07T08:23:30.080Z</time>
      </trkpt>
      <trkpt lat="48.1753" lon="6.62006">
        <ele>508.326746</ele>
        <time>2024-04-07T08:23:32.084Z</time>
      </trkpt>
      <trkpt lat="48.17516" lon="6.62004">
        <ele>507.587202</ele>
        <time>2024-04-07T08:23:34.080Z</time>
      </trkpt>
      <trkpt lat="48.17504" lon="6.62008">
        <ele>506.898118</ele>
        <time>2024-04-07T08:23:36.080Z</time>
      </trkpt>
      <trkpt lat="48.17492" lon="6.62016">
        <ele>506.219097</ele>
        <time>2024-04-07T08:23:38.070Z</time>
      </trkpt>
      <trkpt lat="48.17484" lon="6.62029">
        <ele>505.588545</ele>
        <time>2024-04-07T08:23:40.084Z</time>
      </trkpt>
      <trkpt lat="48.17476" lon="6.62043">
        <ele>504.942156</ele>
        <time>2024-04-07T08:23:42.085Z</time>
      </trkpt>
      <trkpt lat="48.17468" lon="6.62058">
        <ele>504.260312</ele>
        <time>2024-04-07T08:23:44.071Z</time>
      </trkpt>
      <trkpt lat="48.17458" lon="6.62074">
        <ele>503.505359</ele>
        <time>2024-04-07T08:23:46.089Z</time>
      </trkpt>
      <trkpt lat="48.1745" lon="6.62091">
        <ele>502.734444</ele>
        <time>2024-04-07T08:23:48.084Z</time>
      </trkpt>
      <trkpt lat="48.17442" lon="6.6211">
        <ele>501.959552</ele>
        <time>2024-04-07T08:23:50.092Z</time>
      </trkpt>
      <trkpt lat="48.17436" lon="6.62129">
        <ele>501.220261</ele>
        <time>2024-04-07T08:23:52.089Z</time>
      </trkpt>
      <trkpt lat="48.1743" lon="6.62146">
        <ele>500.541208</ele>
        <time>2024-04-07T08:23:54.079Z</time>
      </trkpt>
      <trkpt lat="48.17422" lon="6.62157">
        <ele>500.229046</ele>
        <time>2024-04-07T08:23:56.077Z</time>
      </trkpt>
      <trkpt lat="48.17414" lon="6.62166">
        <ele>500.357943</ele>
        <time>2024-04-07T08:23:58.084Z</time>
      </trkpt>
      <trkpt lat="48.17404" lon="6.62174">
        <ele>500.505062</ele>
        <time>2024-04-07T08:24:00.050Z</time>
      </trkpt>
      <trkpt lat="48.17393" lon="6.6218">
        <ele>500.653196</ele>
        <time>2024-04-07T08:24:02.070Z</time>
      </trkpt>
      <trkpt lat="48.17382" lon="6.62184">
        <ele>500.796442</ele>
        <time>2024-04-07T08:24:04.076Z</time>
      </trkpt>
      <trkpt lat="48.17371" lon="6.62186">
        <ele>500.935547</ele>
        <time>2024-04-07T08:24:06.089Z</time>
      </trkpt>
      <trkpt lat="48.17361" lon="6.62185">
        <ele>501.061054</ele>
        <time>2024-04-07T08:24:08.083Z</time>
      </trkpt>
      <trkpt lat="48.17352" lon="6.62185">
        <ele>501.185061</ele>
        <time>2024-04-07T08:24:10.088Z</time>
      </trkpt>
      <trkpt lat="48.17342" lon="6.62185">
        <ele>501.302691</ele>
        <time>2024-04-07T08:24:12.091Z</time>
      </trkpt>
      <trkpt lat="48.17329" lon="6.62186">
        <ele>501.472713</ele>
        <time>2024-04-07T08:24:15.093Z</time>
      </trkpt>
      <trkpt lat="48.17316" lon="6.62185">
        <ele>501.636344</ele>
        <time>2024-04-07T08:24:18.088Z</time>
      </trkpt>
      <trkpt lat="48.17307" lon="6.62186">
        <ele>501.756579</ele>
        <time>2024-04-07T08:24:20.090Z</time>
      </trkpt>
      <trkpt lat="48.17298" lon="6.62187">
        <ele>501.872334</ele>
        <time>2024-04-07T08:24:22.093Z</time>
      </trkpt>
      <trkpt lat="48.17285" lon="6.62189">
        <ele>502.038941</ele>
        <time>2024-04-07T08:24:25.091Z</time>
      </trkpt>
      <trkpt lat="48.17272" lon="6.6219">
        <ele>502.206764</ele>
        <time>2024-04-07T08:24:28.080Z</time>
      </trkpt>
      <trkpt lat="48.17261" lon="6.6219">
        <ele>502.341009</ele>
        <time>2024-04-07T08:24:30.091Z</time>
      </trkpt>
      <trkpt lat="48.1725" lon="6.62186">
        <ele>502.547173</ele>
        <time>2024-04-07T08:24:32.088Z</time>
      </trkpt>
      <trkpt lat="48.17239" lon="6.62177">
        <ele>503.203973</ele>
        <time>2024-04-07T08:24:34.091Z</time>
      </trkpt>
      <trkpt lat="48.17229" lon="6.62165">
        <ele>503.921071</ele>
        <time>2024-04-07T08:24:36.088Z</time>
      </trkpt>
      <trkpt lat="48.17217" lon="6.62153">
        <ele>504.694763</ele>
        <time>2024-04-07T08:24:38.080Z</time>
      </trkpt>
      <trkpt lat="48.17208" lon="6.62141">
        <ele>505.353206</ele>
        <time>2024-04-07T08:24:40.090Z</time>
      </trkpt>
      <trkpt lat="48.17199" lon="6.62129">
        <ele>505.989782</ele>
        <time>2024-04-07T08:24:42.091Z</time>
      </trkpt>
      <trkpt lat="48.17191" lon="6.62118">
        <ele>506.600826</ele>
        <time>2024-04-07T08:24:44.088Z</time>
      </trkpt>
      <trkpt lat="48.17183" lon="6.6211">
        <ele>507.10643</ele>
        <time>2024-04-07T08:24:46.088Z</time>
      </trkpt>
      <trkpt lat="48.17176" lon="6.62101">
        <ele>507.631603</ele>
        <time>2024-04-07T08:24:49.088Z</time>
      </trkpt>
      <trkpt lat="48.1717" lon="6.62091">
        <ele>508.133907</ele>
        <time>2024-04-07T08:24:54.081Z</time>
      </trkpt>
      <trkpt lat="48.17181" lon="6.62072">
        <ele>509.050668</ele>
        <time>2024-04-07T08:34:27.081Z</time>
      </trkpt>
      <trkpt lat="48.17199" lon="6.62057">
        <ele>510.195755</ele>
        <time>2024-04-07T08:35:08.093Z</time>
      </trkpt>
      <trkpt lat="48.17207" lon="6.62047">
        <ele>510.766111</ele>
        <time>2024-04-07T08:35:14.088Z</time>
      </trkpt>
      <trkpt lat="48.17213" lon="6.62036">
        <ele>511.288241</ele>
        <time>2024-04-07T08:35:19.084Z</time>
      </trkpt>
      <trkpt lat="48.1722" lon="6.62026">
        <ele>511.81474</ele>
        <time>2024-04-07T08:35:24.091Z</time>
      </trkpt>
      <trkpt lat="48.17225" lon="6.62013">
        <ele>512.307442</ele>
        <time>2024-04-07T08:35:28.073Z</time>
      </trkpt>
      <trkpt lat="48.17232" lon="6.62001">
        <ele>512.517626</ele>
        <time>2024-04-07T08:35:33.092Z</time>
      </trkpt>
      <trkpt lat="48.17238" lon="6.61989">
        <ele>512.721561</ele>
        <time>2024-04-07T08:35:38.064Z</time>
      </trkpt>
      <trkpt lat="48.17245" lon="6.61977">
        <ele>512.942955</ele>
        <time>2024-04-07T08:35:43.086Z</time>
      </trkpt>
      <trkpt lat="48.17251" lon="6.61966">
        <ele>513.141913</ele>
        <time>2024-04-07T08:35:48.082Z</time>
      </trkpt>
      <trkpt lat="48.17257" lon="6.61956">
        <ele>513.332792</ele>
        <time>2024-04-07T08:35:53.088Z</time>
      </trkpt>
      <trkpt lat="48.17263" lon="6.61944">
        <ele>513.528781</ele>
        <time>2024-04-07T08:35:58.069Z</time>
      </trkpt>
      <trkpt lat="48.17269" lon="6.61933">
        <ele>513.732596</ele>
        <time>2024-04-07T08:36:03.069Z</time>
      </trkpt>
      <trkpt lat="48.17277" lon="6.6192">
        <ele>513.970699</ele>
        <time>2024-04-07T08:36:08.088Z</time>
      </trkpt>
      <trkpt lat="48.17283" lon="6.6191">
        <ele>514.161188</ele>
        <time>2024-04-07T08:36:11.089Z</time>
      </trkpt>
      <trkpt lat="48.17292" lon="6.61901">
        <ele>514.386163</ele>
        <time>2024-04-07T08:36:15.092Z</time>
      </trkpt>
      <trkpt lat="48.17299" lon="6.61891">
        <ele>514.581544</ele>
        <time>2024-04-07T08:36:18.090Z</time>
      </trkpt>
      <trkpt lat="48.17307" lon="6.6188">
        <ele>514.811397</ele>
        <time>2024-04-07T08:36:21.088Z</time>
      </trkpt>
      <trkpt lat="48.17315" lon="6.61871">
        <ele>515.011534</ele>
        <time>2024-04-07T08:36:24.082Z</time>
      </trkpt>
      <trkpt lat="48.17322" lon="6.61857">
        <ele>515.262813</ele>
        <time>2024-04-07T08:36:27.090Z</time>
      </trkpt>
      <trkpt lat="48.17327" lon="6.6184">
        <ele>515.513754</ele>
        <time>2024-04-07T08:36:30.075Z</time>
      </trkpt>
      <trkpt lat="48.17329" lon="6.61826">
        <ele>515.704237</ele>
        <time>2024-04-07T08:36:32.086Z</time>
      </trkpt>
      <trkpt lat="48.1733" lon="6.61806">
        <ele>515.985985</ele>
        <time>2024-04-07T08:36:35.077Z</time>
      </trkpt>
      <trkpt lat="48.17331" lon="6.61792">
        <ele>516.652467</ele>
        <time>2024-04-07T08:36:37.086Z</time>
      </trkpt>
      <trkpt lat="48.17332" lon="6.61773">
        <ele>517.597435</ele>
        <time>2024-04-07T08:36:40.069Z</time>
      </trkpt>
      <trkpt lat="48.17332" lon="6.61755">
        <ele>518.487119</ele>
        <time>2024-04-07T08:36:43.087Z</time>
      </trkpt>
      <trkpt lat="48.17333" lon="6.61742">
        <ele>519.163513</ele>
        <time>2024-04-07T08:36:46.088Z</time>
      </trkpt>
      <trkpt lat="48.17335" lon="6.61727">
        <ele>519.895943</ele>
        <time>2024-04-07T08:36:50.087Z</time>
      </trkpt>
      <trkpt lat="48.17339" lon="6.61714">
        <ele>520.602412</ele>
        <time>2024-04-07T08:36:54.088Z</time>
      </trkpt>
      <trkpt lat="48.17343" lon="6.61699">
        <ele>521.433246</ele>
        <time>2024-04-07T08:36:59.087Z</time>
      </trkpt>
      <trkpt lat="48.17349" lon="6.61686">
        <ele>522.236727</ele>
        <time>2024-04-07T08:37:04.086Z</time>
      </trkpt>
      <trkpt lat="48.17355" lon="6.61674">
        <ele>522.968015</ele>
        <time>2024-04-07T08:37:09.085Z</time>
      </trkpt>
      <trkpt lat="48.1736" lon="6.61661">
        <ele>523.720434</ele>
        <time>2024-04-07T08:37:14.088Z</time>
      </trkpt>
      <trkpt lat="48.17363" lon="6.61646">
        <ele>524.470072</ele>
        <time>2024-04-07T08:37:20.088Z</time>
      </trkpt>
      <trkpt lat="48.17367" lon="6.61632">
        <ele>525.265692</ele>
        <time>2024-04-07T08:37:25.086Z</time>
      </trkpt>
      <trkpt lat="48.1737" lon="6.61619">
        <ele>525.953554</ele>
        <time>2024-04-07T08:37:30.087Z</time>
      </trkpt>
      <trkpt lat="48.17372" lon="6.61605">
        <ele>526.65333</ele>
        <time>2024-04-07T08:37:35.090Z</time>
      </trkpt>
      <trkpt lat="48.17371" lon="6.6159">
        <ele>527.382166</ele>
        <time>2024-04-07T08:37:40.070Z</time>
      </trkpt>
      <trkpt lat="48.17374" lon="6.61576">
        <ele>528.122311</ele>
        <time>2024-04-07T08:37:46.087Z</time>
      </trkpt>
      <trkpt lat="48.17378" lon="6.61562">
        <ele>528.896764</ele>
        <time>2024-04-07T08:37:53.088Z</time>
      </trkpt>
      <trkpt lat="48.17383" lon="6.61549">
        <ele>529.497947</ele>
        <time>2024-04-07T08:37:58.082Z</time>
      </trkpt>
      <trkpt lat="48.17384" lon="6.61535">
        <ele>529.792858</ele>
        <time>2024-04-07T08:38:04.072Z</time>
      </trkpt>
      <trkpt lat="48.17387" lon="6.61519">
        <ele>530.151578</ele>
        <time>2024-04-07T08:38:09.085Z</time>
      </trkpt>
      <trkpt lat="48.17391" lon="6.61507">
        <ele>530.459552</ele>
        <time>2024-04-07T08:38:14.080Z</time>
      </trkpt>
      <trkpt lat="48.17394" lon="6.61491">
        <ele>530.804587</ele>
        <time>2024-04-07T08:38:20.085Z</time>
      </trkpt>
      <trkpt lat="48.17399" lon="6.61479">
        <ele>531.128439</ele>
        <time>2024-04-07T08:38:26.088Z</time>
      </trkpt>
      <trkpt lat="48.17404" lon="6.61465">
        <ele>531.48393</ele>
        <time>2024-04-07T08:38:32.090Z</time>
      </trkpt>
      <trkpt lat="48.1741" lon="6.61451">
        <ele>531.833198</ele>
        <time>2024-04-07T08:38:37.086Z</time>
      </trkpt>
      <trkpt lat="48.17415" lon="6.61438">
        <ele>532.170269</ele>
        <time>2024-04-07T08:38:42.086Z</time>
      </trkpt>
      <trkpt lat="48.17418" lon="6.61424">
        <ele>532.481687</ele>
        <time>2024-04-07T08:38:46.090Z</time>
      </trkpt>
      <trkpt lat="48.17419" lon="6.6141">
        <ele>532.797682</ele>
        <time>2024-04-07T08:38:50.084Z</time>
      </trkpt>
      <trkpt lat="48.17422" lon="6.61393">
        <ele>533.183358</ele>
        <time>2024-04-07T08:38:55.086Z</time>
      </trkpt>
      <trkpt lat="48.17422" lon="6.61375">
        <ele>533.581267</ele>
        <time>2024-04-07T08:38:59.085Z</time>
      </trkpt>
      <trkpt lat="48.17422" lon="6.61356">
        <ele>533.990108</ele>
        <time>2024-04-07T08:39:02.089Z</time>
      </trkpt>
      <trkpt lat="48.1742" lon="6.61338">
        <ele>534.391227</ele>
        <time>2024-04-07T08:39:05.084Z</time>
      </trkpt>
      <trkpt lat="48.17417" lon="6.61318">
        <ele>534.825366</ele>
        <time>2024-04-07T08:39:08.081Z</time>
      </trkpt>
      <trkpt lat="48.17414" lon="6.61304">
        <ele>535.143993</ele>
        <time>2024-04-07T08:39:10.088Z</time>
      </trkpt>
      <trkpt lat="48.17412" lon="6.61285">
        <ele>535.062282</ele>
        <time>2024-04-07T08:39:13.085Z</time>
      </trkpt>
      <trkpt lat="48.17409" lon="6.61272">
        <ele>534.837445</ele>
        <time>2024-04-07T08:39:15.080Z</time>
      </trkpt>
      <trkpt lat="48.17405" lon="6.61256">
        <ele>534.549134</ele>
        <time>2024-04-07T08:39:18.084Z</time>
      </trkpt>
      <trkpt lat="48.17402" lon="6.61243">
        <ele>534.318107</ele>
        <time>2024-04-07T08:39:20.091Z</time>
      </trkpt>
      <trkpt lat="48.17399" lon="6.61223">
        <ele>533.980702</ele>
        <time>2024-04-07T08:39:23.091Z</time>
      </trkpt>
      <trkpt lat="48.17398" lon="6.61207">
        <ele>533.727012</ele>
        <time>2024-04-07T08:39:25.088Z</time>
      </trkpt>
      <trkpt lat="48.17397" lon="6.61193">
        <ele>533.49059</ele>
        <time>2024-04-07T08:39:27.090Z</time>
      </trkpt>
      <trkpt lat="48.17397" lon="6.61178">
        <ele>533.239523</ele>
        <time>2024-04-07T08:39:29.091Z</time>
      </trkpt>
      <trkpt lat="48.17398" lon="6.61163">
        <ele>532.994368</ele>
        <time>2024-04-07T08:39:31.089Z</time>
      </trkpt>
      <trkpt lat="48.17398" lon="6.61149">
        <ele>532.754917</ele>
        <time>2024-04-07T08:39:33.089Z</time>
      </trkpt>
      <trkpt lat="48.174" lon="6.61135">
        <ele>532.516862</ele>
        <time>2024-04-07T08:39:35.089Z</time>
      </trkpt>
      <trkpt lat="48.17402" lon="6.61121">
        <ele>532.279387</ele>
        <time>2024-04-07T08:39:37.088Z</time>
      </trkpt>
      <trkpt lat="48.17405" lon="6.61105">
        <ele>532.016098</ele>
        <time>2024-04-07T08:39:39.088Z</time>
      </trkpt>
      <trkpt lat="48.17407" lon="6.61089">
        <ele>531.749013</ele>
        <time>2024-04-07T08:39:41.088Z</time>
      </trkpt>
      <trkpt lat="48.1741" lon="6.61076">
        <ele>531.513273</ele>
        <time>2024-04-07T08:39:43.087Z</time>
      </trkpt>
      <trkpt lat="48.17412" lon="6.61062">
        <ele>531.28894</ele>
        <time>2024-04-07T08:39:45.085Z</time>
      </trkpt>
      <trkpt lat="48.17413" lon="6.61045">
        <ele>531.004182</ele>
        <time>2024-04-07T08:39:48.080Z</time>
      </trkpt>
      <trkpt lat="48.17414" lon="6.61029">
        <ele>530.945237</ele>
        <time>2024-04-07T08:39:51.091Z</time>
      </trkpt>
      <trkpt lat="48.1741" lon="6.61013">
        <ele>531.29087</ele>
        <time>2024-04-07T08:39:54.090Z</time>
      </trkpt>
      <trkpt lat="48.17406" lon="6.60998">
        <ele>531.613008</ele>
        <time>2024-04-07T08:39:57.086Z</time>
      </trkpt>
      <trkpt lat="48.17402" lon="6.60985">
        <ele>531.898822</ele>
        <time>2024-04-07T08:40:00.088Z</time>
      </trkpt>
      <trkpt lat="48.17397" lon="6.60972">
        <ele>532.215147</ele>
        <time>2024-04-07T08:40:03.091Z</time>
      </trkpt>
      <trkpt lat="48.1739" lon="6.60958">
        <ele>532.556803</ele>
        <time>2024-04-07T08:40:07.087Z</time>
      </trkpt>
      <trkpt lat="48.17387" lon="6.60945">
        <ele>532.841681</ele>
        <time>2024-04-07T08:40:11.088Z</time>
      </trkpt>
      <trkpt lat="48.17384" lon="6.60931">
        <ele>533.144078</ele>
        <time>2024-04-07T08:40:16.088Z</time>
      </trkpt>
      <trkpt lat="48.17381" lon="6.60917">
        <ele>533.436077</ele>
        <time>2024-04-07T08:40:22.090Z</time>
      </trkpt>
      <trkpt lat="48.17379" lon="6.60903">
        <ele>533.736796</ele>
        <time>2024-04-07T08:40:29.091Z</time>
      </trkpt>
      <trkpt lat="48.17378" lon="6.60888">
        <ele>534.031247</ele>
        <time>2024-04-07T08:40:37.090Z</time>
      </trkpt>
      <trkpt lat="48.1738" lon="6.60873">
        <ele>534.341041</ele>
        <time>2024-04-07T08:40:45.090Z</time>
      </trkpt>
      <trkpt lat="48.17381" lon="6.6086">
        <ele>534.619009</ele>
        <time>2024-04-07T08:40:51.093Z</time>
      </trkpt>
      <trkpt lat="48.17384" lon="6.60846">
        <ele>534.909912</ele>
        <time>2024-04-07T08:40:57.091Z</time>
      </trkpt>
      <trkpt lat="48.1739" lon="6.60832">
        <ele>535.23832</ele>
        <time>2024-04-07T08:41:02.088Z</time>
      </trkpt>
      <trkpt lat="48.17394" lon="6.60817">
        <ele>535.567738</ele>
        <time>2024-04-07T08:41:06.090Z</time>
      </trkpt>
      <trkpt lat="48.17397" lon="6.60803">
        <ele>535.885351</ele>
        <time>2024-04-07T08:41:10.073Z</time>
      </trkpt>
      <trkpt lat="48.17403" lon="6.60789">
        <ele>536.202783</ele>
        <time>2024-04-07T08:41:14.091Z</time>
      </trkpt>
      <trkpt lat="48.17409" lon="6.60775">
        <ele>536.758222</ele>
        <time>2024-04-07T08:41:18.073Z</time>
      </trkpt>
      <trkpt lat="48.17413" lon="6.60762">
        <ele>537.285927</ele>
        <time>2024-04-07T08:41:21.076Z</time>
      </trkpt>
      <trkpt lat="48.17415" lon="6.60746">
        <ele>537.900804</ele>
        <time>2024-04-07T08:41:25.090Z</time>
      </trkpt>
      <trkpt lat="48.17414" lon="6.60733">
        <ele>538.412716</ele>
        <time>2024-04-07T08:41:28.078Z</time>
      </trkpt>
      <trkpt lat="48.17411" lon="6.60718">
        <ele>539.010872</ele>
        <time>2024-04-07T08:41:32.089Z</time>
      </trkpt>
      <trkpt lat="48.17405" lon="6.60702">
        <ele>539.699042</ele>
        <time>2024-04-07T08:41:36.081Z</time>
      </trkpt>
      <trkpt lat="48.17396" lon="6.6069">
        <ele>540.357964</ele>
        <time>2024-04-07T08:41:40.085Z</time>
      </trkpt>
      <trkpt lat="48.17389" lon="6.60676">
        <ele>541.044623</ele>
        <time>2024-04-07T08:41:44.088Z</time>
      </trkpt>
      <trkpt lat="48.17381" lon="6.60664">
        <ele>541.6411</ele>
        <time>2024-04-07T08:41:48.072Z</time>
      </trkpt>
      <trkpt lat="48.17374" lon="6.60652">
        <ele>542.27779</ele>
        <time>2024-04-07T08:41:52.089Z</time>
      </trkpt>
      <trkpt lat="48.17367" lon="6.60638">
        <ele>542.928445</ele>
        <time>2024-04-07T08:41:56.073Z</time>
      </trkpt>
      <trkpt lat="48.17361" lon="6.60624">
        <ele>543.552287</ele>
        <time>2024-04-07T08:42:00.091Z</time>
      </trkpt>
      <trkpt lat="48.17356" lon="6.60612">
        <ele>544.085456</ele>
        <time>2024-04-07T08:42:03.088Z</time>
      </trkpt>
      <trkpt lat="48.17354" lon="6.60598">
        <ele>544.624783</ele>
        <time>2024-04-07T08:42:06.089Z</time>
      </trkpt>
      <trkpt lat="48.17355" lon="6.60584">
        <ele>545.141222</ele>
        <time>2024-04-07T08:42:11.090Z</time>
      </trkpt>
      <trkpt lat="48.17357" lon="6.60569">
        <ele>545.73283</ele>
        <time>2024-04-07T08:42:16.092Z</time>
      </trkpt>
      <trkpt lat="48.1736" lon="6.60554">
        <ele>546.3221</ele>
        <time>2024-04-07T08:42:20.085Z</time>
      </trkpt>
      <trkpt lat="48.17359" lon="6.60538">
        <ele>545.512312</ele>
        <time>2024-04-07T08:42:24.089Z</time>
      </trkpt>
      <trkpt lat="48.1736" lon="6.60524">
        <ele>544.460793</ele>
        <time>2024-04-07T08:42:28.091Z</time>
      </trkpt>
      <trkpt lat="48.17361" lon="6.6051">
        <ele>543.366519</ele>
        <time>2024-04-07T08:42:32.051Z</time>
      </trkpt>
      <trkpt lat="48.17364" lon="6.60496">
        <ele>542.267528</ele>
        <time>2024-04-07T08:42:36.075Z</time>
      </trkpt>
      <trkpt lat="48.17366" lon="6.60483">
        <ele>541.166322</ele>
        <time>2024-04-07T08:42:39.089Z</time>
      </trkpt>
      <trkpt lat="48.17368" lon="6.60468">
        <ele>540.045742</ele>
        <time>2024-04-07T08:42:41.088Z</time>
      </trkpt>
      <trkpt lat="48.17369" lon="6.60453">
        <ele>538.835652</ele>
        <time>2024-04-07T08:42:43.088Z</time>
      </trkpt>
      <trkpt lat="48.17368" lon="6.60436">
        <ele>537.580374</ele>
        <time>2024-04-07T08:42:45.078Z</time>
      </trkpt>
      <trkpt lat="48.17367" lon="6.60421">
        <ele>536.3843</ele>
        <time>2024-04-07T08:42:47.088Z</time>
      </trkpt>
      <trkpt lat="48.17362" lon="6.60407">
        <ele>535.18487</ele>
        <time>2024-04-07T08:42:49.089Z</time>
      </trkpt>
      <trkpt lat="48.17356" lon="6.60394">
        <ele>533.966694</ele>
        <time>2024-04-07T08:42:51.088Z</time>
      </trkpt>
      <trkpt lat="48.17346" lon="6.60381">
        <ele>532.458388</ele>
        <time>2024-04-07T08:42:54.089Z</time>
      </trkpt>
      <trkpt lat="48.17338" lon="6.6037">
        <ele>531.217878</ele>
        <time>2024-04-07T08:42:56.090Z</time>
      </trkpt>
      <trkpt lat="48.1733" lon="6.60362">
        <ele>530.110637</ele>
        <time>2024-04-07T08:42:58.071Z</time>
      </trkpt>
      <trkpt lat="48.17319" lon="6.60349">
        <ele>528.423225</ele>
        <time>2024-04-07T08:43:01.083Z</time>
      </trkpt>
      <trkpt lat="48.17309" lon="6.60337">
        <ele>527.011372</ele>
        <time>2024-04-07T08:43:03.088Z</time>
      </trkpt>
      <trkpt lat="48.17299" lon="6.60324">
        <ele>525.698959</ele>
        <time>2024-04-07T08:43:05.069Z</time>
      </trkpt>
      <trkpt lat="48.17288" lon="6.60309">
        <ele>525.528978</ele>
        <time>2024-04-07T08:43:07.087Z</time>
      </trkpt>
      <trkpt lat="48.17282" lon="6.60298">
        <ele>525.414494</ele>
        <time>2024-04-07T08:43:08.080Z</time>
      </trkpt>
      <trkpt lat="48.17275" lon="6.60288">
        <ele>525.303609</ele>
        <time>2024-04-07T08:43:09.088Z</time>
      </trkpt>
      <trkpt lat="48.17266" lon="6.60267">
        <ele>525.107572</ele>
        <time>2024-04-07T08:43:11.080Z</time>
      </trkpt>
      <trkpt lat="48.17263" lon="6.60254">
        <ele>524.999854</ele>
        <time>2024-04-07T08:43:12.086Z</time>
      </trkpt>
      <trkpt lat="48.1726" lon="6.6023">
        <ele>524.809957</ele>
        <time>2024-04-07T08:43:14.086Z</time>
      </trkpt>
      <trkpt lat="48.1726" lon="6.60208">
        <ele>524.638273</ele>
        <time>2024-04-07T08:43:16.087Z</time>
      </trkpt>
      <trkpt lat="48.17258" lon="6.60193">
        <ele>524.518554</ele>
        <time>2024-04-07T08:43:18.083Z</time>
      </trkpt>
      <trkpt lat="48.17263" lon="6.60182">
        <ele>524.411445</ele>
        <time>2024-04-07T08:43:24.087Z</time>
      </trkpt>
      <trkpt lat="48.17273" lon="6.60184">
        <ele>524.294575</ele>
        <time>2024-04-07T08:43:29.091Z</time>
      </trkpt>
      <trkpt lat="48.17284" lon="6.60183">
        <ele>524.173948</ele>
        <time>2024-04-07T08:43:32.088Z</time>
      </trkpt>
      <trkpt lat="48.17296" lon="6.60179">
        <ele>524.021962</ele>
        <time>2024-04-07T08:43:35.087Z</time>
      </trkpt>
      <trkpt lat="48.1731" lon="6.60175">
        <ele>523.856037</ele>
        <time>2024-04-07T08:43:38.084Z</time>
      </trkpt>
      <trkpt lat="48.17322" lon="6.60174">
        <ele>523.723317</ele>
        <time>2024-04-07T08:43:40.085Z</time>
      </trkpt>
      <trkpt lat="48.17332" lon="6.60171">
        <ele>523.481969</ele>
        <time>2024-04-07T08:43:42.086Z</time>
      </trkpt>
      <trkpt lat="48.17343" lon="6.60169">
        <ele>522.731522</ele>
        <time>2024-04-07T08:43:44.090Z</time>
      </trkpt>
      <trkpt lat="48.17353" lon="6.60169">
        <ele>522.083981</ele>
        <time>2024-04-07T08:43:46.083Z</time>
      </trkpt>
      <trkpt lat="48.17364" lon="6.6017">
        <ele>521.340903</ele>
        <time>2024-04-07T08:43:48.068Z</time>
      </trkpt>
      <trkpt lat="48.17374" lon="6.6017">
        <ele>520.666246</ele>
        <time>2024-04-07T08:43:50.089Z</time>
      </trkpt>
      <trkpt lat="48.17384" lon="6.6017">
        <ele>519.978234</ele>
        <time>2024-04-07T08:43:52.087Z</time>
      </trkpt>
      <trkpt lat="48.17395" lon="6.6017">
        <ele>519.249625</ele>
        <time>2024-04-07T08:43:54.085Z</time>
      </trkpt>
      <trkpt lat="48.17407" lon="6.60171">
        <ele>518.439587</ele>
        <time>2024-04-07T08:43:56.084Z</time>
      </trkpt>
      <trkpt lat="48.17417" lon="6.60172">
        <ele>517.73601</ele>
        <time>2024-04-07T08:43:58.072Z</time>
      </trkpt>
      <trkpt lat="48.17427" lon="6.60172">
        <ele>517.087704</ele>
        <time>2024-04-07T08:44:00.084Z</time>
      </trkpt>
      <trkpt lat="48.1744" lon="6.60168">
        <ele>516.218296</ele>
        <time>2024-04-07T08:44:02.083Z</time>
      </trkpt>
      <trkpt lat="48.1745" lon="6.60165">
        <ele>515.490756</ele>
        <time>2024-04-07T08:44:04.084Z</time>
      </trkpt>
      <trkpt lat="48.17462" lon="6.6016">
        <ele>514.669485</ele>
        <time>2024-04-07T08:44:06.084Z</time>
      </trkpt>
      <trkpt lat="48.17471" lon="6.60155">
        <ele>514.045731</ele>
        <time>2024-04-07T08:44:08.072Z</time>
      </trkpt>
      <trkpt lat="48.17479" lon="6.60149">
        <ele>513.412034</ele>
        <time>2024-04-07T08:44:10.087Z</time>
      </trkpt>
      <trkpt lat="48.17487" lon="6.60143">
        <ele>512.778345</ele>
        <time>2024-04-07T08:44:12.086Z</time>
      </trkpt>
      <trkpt lat="48.17498" lon="6.60137">
        <ele>512.044112</ele>
        <time>2024-04-07T08:44:14.085Z</time>
      </trkpt>
      <trkpt lat="48.17507" lon="6.6013">
        <ele>511.185513</ele>
        <time>2024-04-07T08:44:16.086Z</time>
      </trkpt>
      <trkpt lat="48.17516" lon="6.60125">
        <ele>509.605244</ele>
        <time>2024-04-07T08:44:18.074Z</time>
      </trkpt>
      <trkpt lat="48.17529" lon="6.60122">
        <ele>507.351347</ele>
        <time>2024-04-07T08:44:20.090Z</time>
      </trkpt>
      <trkpt lat="48.17541" lon="6.6012">
        <ele>505.314289</ele>
        <time>2024-04-07T08:44:22.088Z</time>
      </trkpt>
      <trkpt lat="48.17553" lon="6.60117">
        <ele>503.334275</ele>
        <time>2024-04-07T08:44:24.085Z</time>
      </trkpt>
      <trkpt lat="48.17566" lon="6.60117">
        <ele>501.259577</ele>
        <time>2024-04-07T08:44:26.082Z</time>
      </trkpt>
      <trkpt lat="48.17576" lon="6.60115">
        <ele>499.565858</ele>
        <time>2024-04-07T08:44:28.080Z</time>
      </trkpt>
      <trkpt lat="48.17587" lon="6.60114">
        <ele>497.749099</ele>
        <time>2024-04-07T08:44:30.090Z</time>
      </trkpt>
      <trkpt lat="48.17598" lon="6.60114">
        <ele>495.986496</ele>
        <time>2024-04-07T08:44:32.093Z</time>
      </trkpt>
      <trkpt lat="48.17608" lon="6.60118">
        <ele>494.300607</ele>
        <time>2024-04-07T08:44:34.088Z</time>
      </trkpt>
      <trkpt lat="48.1762" lon="6.60124">
        <ele>492.217884</ele>
        <time>2024-04-07T08:44:36.086Z</time>
      </trkpt>
      <trkpt lat="48.17632" lon="6.60131">
        <ele>490.116189</ele>
        <time>2024-04-07T08:44:38.073Z</time>
      </trkpt>
      <trkpt lat="48.17644" lon="6.60138">
        <ele>487.872912</ele>
        <time>2024-04-07T08:44:40.087Z</time>
      </trkpt>
      <trkpt lat="48.17658" lon="6.60147">
        <ele>485.392944</ele>
        <time>2024-04-07T08:44:42.088Z</time>
      </trkpt>
      <trkpt lat="48.17669" lon="6.60154">
        <ele>483.389534</ele>
        <time>2024-04-07T08:44:44.090Z</time>
      </trkpt>
      <trkpt lat="48.17677" lon="6.60162">
        <ele>481.882242</ele>
        <time>2024-04-07T08:44:46.085Z</time>
      </trkpt>
      <trkpt lat="48.17686" lon="6.60172">
        <ele>482.363505</ele>
        <time>2024-04-07T08:44:49.089Z</time>
      </trkpt>
      <trkpt lat="48.17693" lon="6.60183">
        <ele>482.789917</ele>
        <time>2024-04-07T08:44:52.086Z</time>
      </trkpt>
      <trkpt lat="48.17701" lon="6.60196">
        <ele>483.29532</ele>
        <time>2024-04-07T08:44:55.088Z</time>
      </trkpt>
      <trkpt lat="48.17709" lon="6.60209">
        <ele>483.809853</ele>
        <time>2024-04-07T08:44:58.067Z</time>
      </trkpt>
      <trkpt lat="48.17716" lon="6.60224">
        <ele>484.341426</ele>
        <time>2024-04-07T08:45:01.085Z</time>
      </trkpt>
      <trkpt lat="48.1772" lon="6.60241">
        <ele>484.844431</ele>
        <time>2024-04-07T08:45:04.091Z</time>
      </trkpt>
      <trkpt lat="48.17727" lon="6.60251">
        <ele>485.266074</ele>
        <time>2024-04-07T08:45:07.085Z</time>
      </trkpt>
      <trkpt lat="48.17738" lon="6.60245">
        <ele>485.746153</ele>
        <time>2024-04-07T08:45:11.085Z</time>
      </trkpt>
      <trkpt lat="48.17745" lon="6.60238">
        <ele>486.133466</ele>
        <time>2024-04-07T08:45:13.088Z</time>
      </trkpt>
      <trkpt lat="48.17756" lon="6.60228">
        <ele>486.658874</ele>
        <time>2024-04-07T08:45:15.090Z</time>
      </trkpt>
      <trkpt lat="48.17766" lon="6.60223">
        <ele>487.133644</ele>
        <time>2024-04-07T08:45:17.088Z</time>
      </trkpt>
      <trkpt lat="48.17777" lon="6.60215">
        <ele>487.647441</ele>
        <time>2024-04-07T08:45:20.090Z</time>
      </trkpt>
      <trkpt lat="48.17787" lon="6.60209">
        <ele>488.095057</ele>
        <time>2024-04-07T08:45:26.089Z</time>
      </trkpt>
      <trkpt lat="48.17797" lon="6.60204">
        <ele>488.575136</ele>
        <time>2024-04-07T08:45:32.089Z</time>
      </trkpt>
      <trkpt lat="48.17806" lon="6.60197">
        <ele>488.996657</ele>
        <time>2024-04-07T08:45:37.092Z</time>
      </trkpt>
      <trkpt lat="48.17814" lon="6.60188">
        <ele>489.43325</ele>
        <time>2024-04-07T08:45:42.092Z</time>
      </trkpt>
      <trkpt lat="48.17822" lon="6.60177">
        <ele>490.266708</ele>
        <time>2024-04-07T08:45:48.084Z</time>
      </trkpt>
      <trkpt lat="48.1783" lon="6.60168">
        <ele>491.190479</ele>
        <time>2024-04-07T08:45:55.088Z</time>
      </trkpt>
      <trkpt lat="48.17839" lon="6.60162">
        <ele>492.117941</ele>
        <time>2024-04-07T08:46:01.090Z</time>
      </trkpt>
      <trkpt lat="48.17848" lon="6.60156">
        <ele>493.062984</ele>
        <time>2024-04-07T08:46:09.091Z</time>
      </trkpt>
      <trkpt lat="48.17857" lon="6.60148">
        <ele>494.077736</ele>
        <time>2024-04-07T08:46:16.086Z</time>
      </trkpt>
      <trkpt lat="48.17864" lon="6.60136">
        <ele>495.070053</ele>
        <time>2024-04-07T08:46:25.091Z</time>
      </trkpt>
      <trkpt lat="48.17871" lon="6.60119">
        <ele>496.3622</ele>
        <time>2024-04-07T08:46:34.092Z</time>
      </trkpt>
      <trkpt lat="48.17879" lon="6.60112">
        <ele>497.254238</ele>
        <time>2024-04-07T08:46:39.086Z</time>
      </trkpt>
      <trkpt lat="48.17887" lon="6.60102">
        <ele>498.250787</ele>
        <time>2024-04-07T08:46:47.071Z</time>
      </trkpt>
      <trkpt lat="48.17894" lon="6.6009">
        <ele>499.209985</ele>
        <time>2024-04-07T08:46:52.073Z</time>
      </trkpt>
      <trkpt lat="48.17913" lon="6.60046">
        <ele>502.576897</ele>
        <time>2024-04-07T08:47:14.090Z</time>
      </trkpt>
      <trkpt lat="48.17921" lon="6.60033">
        <ele>503.729415</ele>
        <time>2024-04-07T08:47:24.088Z</time>
      </trkpt>
      <trkpt lat="48.17932" lon="6.60028">
        <ele>504.844453</ele>
        <time>2024-04-07T08:47:40.086Z</time>
      </trkpt>
      <trkpt lat="48.17941" lon="6.60022">
        <ele>505.738175</ele>
        <time>2024-04-07T08:47:50.089Z</time>
      </trkpt>
      <trkpt lat="48.1795" lon="6.60013">
        <ele>506.7655</ele>
        <time>2024-04-07T08:47:58.074Z</time>
      </trkpt>
      <trkpt lat="48.17959" lon="6.60006">
        <ele>506.852071</ele>
        <time>2024-04-07T08:48:04.083Z</time>
      </trkpt>
      <trkpt lat="48.17967" lon="6.59998">
        <ele>506.938585</ele>
        <time>2024-04-07T08:48:10.090Z</time>
      </trkpt>
      <trkpt lat="48.17976" lon="6.59991">
        <ele>507.026576</ele>
        <time>2024-04-07T08:48:17.085Z</time>
      </trkpt>
      <trkpt lat="48.17984" lon="6.59983">
        <ele>507.114882</ele>
        <time>2024-04-07T08:48:24.089Z</time>
      </trkpt>
      <trkpt lat="48.17993" lon="6.5997">
        <ele>507.221951</ele>
        <time>2024-04-07T08:48:31.090Z</time>
      </trkpt>
      <trkpt lat="48.17997" lon="6.59957">
        <ele>507.304836</ele>
        <time>2024-04-07T08:48:35.092Z</time>
      </trkpt>
      <trkpt lat="48.18001" lon="6.59941">
        <ele>507.406899</ele>
        <time>2024-04-07T08:48:38.083Z</time>
      </trkpt>
      <trkpt lat="48.18003" lon="6.59923">
        <ele>507.512034</ele>
        <time>2024-04-07T08:48:41.090Z</time>
      </trkpt>
      <trkpt lat="48.18003" lon="6.59909">
        <ele>507.593931</ele>
        <time>2024-04-07T08:48:43.089Z</time>
      </trkpt>
      <trkpt lat="48.18001" lon="6.59891">
        <ele>507.700513</ele>
        <time>2024-04-07T08:48:46.086Z</time>
      </trkpt>
      <trkpt lat="48.18" lon="6.59872">
        <ele>507.810782</ele>
        <time>2024-04-07T08:48:49.090Z</time>
      </trkpt>
      <trkpt lat="48.17999" lon="6.59851">
        <ele>507.932549</ele>
        <time>2024-04-07T08:48:52.087Z</time>
      </trkpt>
      <trkpt lat="48.18" lon="6.59835">
        <ele>508.030959</ele>
        <time>2024-04-07T08:48:54.088Z</time>
      </trkpt>
      <trkpt lat="48.18" lon="6.5982">
        <ele>508.115809</ele>
        <time>2024-04-07T08:48:56.089Z</time>
      </trkpt>
      <trkpt lat="48.17998" lon="6.59804">
        <ele>508.209264</ele>
        <time>2024-04-07T08:48:58.072Z</time>
      </trkpt>
      <trkpt lat="48.17997" lon="6.59788">
        <ele>508.304969</ele>
        <time>2024-04-07T08:49:00.093Z</time>
      </trkpt>
      <trkpt lat="48.17999" lon="6.59769">
        <ele>507.963695</ele>
        <time>2024-04-07T08:49:02.089Z</time>
      </trkpt>
      <trkpt lat="48.18" lon="6.59751">
        <ele>507.424497</ele>
        <time>2024-04-07T08:49:04.090Z</time>
      </trkpt>
      <trkpt lat="48.18001" lon="6.59733">
        <ele>506.897871</ele>
        <time>2024-04-07T08:49:06.090Z</time>
      </trkpt>
      <trkpt lat="48.18" lon="6.59715">
        <ele>506.366611</ele>
        <time>2024-04-07T08:49:08.090Z</time>
      </trkpt>
      <trkpt lat="48.17999" lon="6.59695">
        <ele>505.776037</ele>
        <time>2024-04-07T08:49:10.090Z</time>
      </trkpt>
      <trkpt lat="48.18" lon="6.59674">
        <ele>505.176709</ele>
        <time>2024-04-07T08:49:12.090Z</time>
      </trkpt>
      <trkpt lat="48.18002" lon="6.59652">
        <ele>504.521141</ele>
        <time>2024-04-07T08:49:14.089Z</time>
      </trkpt>
      <trkpt lat="48.18008" lon="6.59632">
        <ele>503.888575</ele>
        <time>2024-04-07T08:49:16.088Z</time>
      </trkpt>
      <trkpt lat="48.18014" lon="6.59612">
        <ele>503.225053</ele>
        <time>2024-04-07T08:49:18.083Z</time>
      </trkpt>
      <trkpt lat="48.1802" lon="6.59593">
        <ele>502.614714</ele>
        <time>2024-04-07T08:49:20.090Z</time>
      </trkpt>
      <trkpt lat="48.18021" lon="6.59573">
        <ele>502.03269</ele>
        <time>2024-04-07T08:49:22.064Z</time>
      </trkpt>
      <trkpt lat="48.18021" lon="6.59552">
        <ele>501.412505</ele>
        <time>2024-04-07T08:49:24.086Z</time>
      </trkpt>
      <trkpt lat="48.18015" lon="6.59536">
        <ele>500.897878</ele>
        <time>2024-04-07T08:49:26.086Z</time>
      </trkpt>
      <trkpt lat="48.18007" lon="6.59524">
        <ele>500.460018</ele>
        <time>2024-04-07T08:49:28.070Z</time>
      </trkpt>
      <trkpt lat="48.18" lon="6.59514">
        <ele>500.43716</ele>
        <time>2024-04-07T08:49:30.085Z</time>
      </trkpt>
      <trkpt lat="48.17993" lon="6.59501">
        <ele>500.411608</ele>
        <time>2024-04-07T08:49:33.090Z</time>
      </trkpt>
      <trkpt lat="48.17987" lon="6.59486">
        <ele>500.384489</ele>
        <time>2024-04-07T08:49:36.085Z</time>
      </trkpt>
      <trkpt lat="48.17983" lon="6.59474">
        <ele>500.36188</ele>
        <time>2024-04-07T08:49:39.088Z</time>
      </trkpt>
      <trkpt lat="48.17975" lon="6.59464">
        <ele>500.338401</ele>
        <time>2024-04-07T08:49:42.087Z</time>
      </trkpt>
      <trkpt lat="48.17965" lon="6.5946">
        <ele>500.315259</ele>
        <time>2024-04-07T08:49:45.090Z</time>
      </trkpt>
      <trkpt lat="48.17956" lon="6.59461">
        <ele>500.293034</ele>
        <time>2024-04-07T08:49:49.087Z</time>
      </trkpt>
      <trkpt lat="48.17944" lon="6.59462">
        <ele>500.26632</ele>
        <time>2024-04-07T08:49:53.082Z</time>
      </trkpt>
      <trkpt lat="48.17934" lon="6.59466">
        <ele>500.241535</ele>
        <time>2024-04-07T08:49:59.089Z</time>
      </trkpt>
      <trkpt lat="48.17924" lon="6.59467">
        <ele>500.218844</ele>
        <time>2024-04-07T08:50:04.085Z</time>
      </trkpt>
      <trkpt lat="48.17913" lon="6.5947">
        <ele>500.192341</ele>
        <time>2024-04-07T08:50:08.070Z</time>
      </trkpt>
      <trkpt lat="48.17904" lon="6.59474">
        <ele>500.169029</ele>
        <time>2024-04-07T08:50:13.088Z</time>
      </trkpt>
      <trkpt lat="48.17894" lon="6.59476">
        <ele>500.145919</ele>
        <time>2024-04-07T08:50:18.087Z</time>
      </trkpt>
      <trkpt lat="48.17885" lon="6.59479">
        <ele>500.123816</ele>
        <time>2024-04-07T08:50:23.090Z</time>
      </trkpt>
      <trkpt lat="48.17872" lon="6.59486">
        <ele>500.091981</ele>
        <time>2024-04-07T08:50:33.091Z</time>
      </trkpt>
      <trkpt lat="48.17862" lon="6.59489">
        <ele>500.068669</ele>
        <time>2024-04-07T08:50:38.092Z</time>
      </trkpt>
      <trkpt lat="48.1785" lon="6.59497">
        <ele>500.234323</ele>
        <time>2024-04-07T08:50:47.088Z</time>
      </trkpt>
      <trkpt lat="48.17841" lon="6.59501">
        <ele>501.246222</ele>
        <time>2024-04-07T08:50:52.088Z</time>
      </trkpt>
      <trkpt lat="48.1783" lon="6.59507">
        <ele>502.51664</ele>
        <time>2024-04-07T08:50:59.091Z</time>
      </trkpt>
      <trkpt lat="48.1782" lon="6.59511">
        <ele>503.685019</ele>
        <time>2024-04-07T08:51:04.090Z</time>
      </trkpt>
      <trkpt lat="48.1781" lon="6.59517">
        <ele>504.877232</ele>
        <time>2024-04-07T08:51:09.091Z</time>
      </trkpt>
      <trkpt lat="48.178" lon="6.59523">
        <ele>505.968285</ele>
        <time>2024-04-07T08:51:14.091Z</time>
      </trkpt>
      <trkpt lat="48.17791" lon="6.59532">
        <ele>507.146456</ele>
        <time>2024-04-07T08:51:20.091Z</time>
      </trkpt>
      <trkpt lat="48.17783" lon="6.5954">
        <ele>508.257165</ele>
        <time>2024-04-07T08:51:25.089Z</time>
      </trkpt>
      <trkpt lat="48.17779" lon="6.59553">
        <ele>509.251354</ele>
        <time>2024-04-07T08:51:29.087Z</time>
      </trkpt>
      <trkpt lat="48.17781" lon="6.59567">
        <ele>510.271436</ele>
        <time>2024-04-07T08:51:33.053Z</time>
      </trkpt>
      <trkpt lat="48.17785" lon="6.59582">
        <ele>511.405718</ele>
        <time>2024-04-07T08:51:38.066Z</time>
      </trkpt>
      <trkpt lat="48.17787" lon="6.59596">
        <ele>512.462043</ele>
        <time>2024-04-07T08:51:42.086Z</time>
      </trkpt>
      <trkpt lat="48.17791" lon="6.59609">
        <ele>513.526467</ele>
        <time>2024-04-07T08:51:49.088Z</time>
      </trkpt>
      <trkpt lat="48.17796" lon="6.59621">
        <ele>514.525496</ele>
        <time>2024-04-07T08:51:55.092Z</time>
      </trkpt>
      <trkpt lat="48.17797" lon="6.59635">
        <ele>515.549721</ele>
        <time>2024-04-07T08:52:03.090Z</time>
      </trkpt>
      <trkpt lat="48.17829" lon="6.59739">
        <ele>516.205501</ele>
        <time>2024-04-07T08:53:09.091Z</time>
      </trkpt>
      <trkpt lat="48.17837" lon="6.59807">
        <ele>512.310034</ele>
        <time>2024-04-07T08:53:46.094Z</time>
      </trkpt>
      <trkpt lat="48.17834" lon="6.5982">
        <ele>511.518554</ele>
        <time>2024-04-07T08:53:51.092Z</time>
      </trkpt>
      <trkpt lat="48.17827" lon="6.5983">
        <ele>510.700329</ele>
        <time>2024-04-07T08:53:55.090Z</time>
      </trkpt>
      <trkpt lat="48.17818" lon="6.59833">
        <ele>509.906714</ele>
        <time>2024-04-07T08:54:00.091Z</time>
      </trkpt>
      <trkpt lat="48.17809" lon="6.59828">
        <ele>509.077057</ele>
        <time>2024-04-07T08:54:05.090Z</time>
      </trkpt>
      <trkpt lat="48.17798" lon="6.59826">
        <ele>508.182265</ele>
        <time>2024-04-07T08:54:08.078Z</time>
      </trkpt>
      <trkpt lat="48.17788" lon="6.59827">
        <ele>507.308889</ele>
        <time>2024-04-07T08:54:10.091Z</time>
      </trkpt>
      <trkpt lat="48.17778" lon="6.59831">
        <ele>506.449009</ele>
        <time>2024-04-07T08:54:12.088Z</time>
      </trkpt>
      <trkpt lat="48.17767" lon="6.5983">
        <ele>505.492902</ele>
        <time>2024-04-07T08:54:16.087Z</time>
      </trkpt>
      <trkpt lat="48.17759" lon="6.59823">
        <ele>504.723705</ele>
        <time>2024-04-07T08:54:20.089Z</time>
      </trkpt>
      <trkpt lat="48.1775" lon="6.59821">
        <ele>503.514146</ele>
        <time>2024-04-07T08:54:24.088Z</time>
      </trkpt>
      <trkpt lat="48.1774" lon="6.59821">
        <ele>501.748932</ele>
        <time>2024-04-07T08:54:28.086Z</time>
      </trkpt>
      <trkpt lat="48.17731" lon="6.5983">
        <ele>499.692359</ele>
        <time>2024-04-07T08:54:32.075Z</time>
      </trkpt>
      <trkpt lat="48.17721" lon="6.59846">
        <ele>497.105592</ele>
        <time>2024-04-07T08:54:35.092Z</time>
      </trkpt>
      <trkpt lat="48.17714" lon="6.59856">
        <ele>495.158033</ele>
        <time>2024-04-07T08:54:37.086Z</time>
      </trkpt>
      <trkpt lat="48.17705" lon="6.59869">
        <ele>492.905861</ele>
        <time>2024-04-07T08:54:39.088Z</time>
      </trkpt>
      <trkpt lat="48.17696" lon="6.59882">
        <ele>490.558086</ele>
        <time>2024-04-07T08:54:41.090Z</time>
      </trkpt>
      <trkpt lat="48.17689" lon="6.59894">
        <ele>488.60123</ele>
        <time>2024-04-07T08:54:43.091Z</time>
      </trkpt>
      <trkpt lat="48.1768" lon="6.59904">
        <ele>486.489991</ele>
        <time>2024-04-07T08:54:46.086Z</time>
      </trkpt>
      <trkpt lat="48.1767" lon="6.59901">
        <ele>484.647185</ele>
        <time>2024-04-07T08:54:50.088Z</time>
      </trkpt>
      <trkpt lat="48.17659" lon="6.59892">
        <ele>482.258082</ele>
        <time>2024-04-07T08:54:53.087Z</time>
      </trkpt>
      <trkpt lat="48.1765" lon="6.59884">
        <ele>480.362739</ele>
        <time>2024-04-07T08:54:55.089Z</time>
      </trkpt>
      <trkpt lat="48.1764" lon="6.59877">
        <ele>478.362098</ele>
        <time>2024-04-07T08:54:57.094Z</time>
      </trkpt>
      <trkpt lat="48.17632" lon="6.59866">
        <ele>476.42278</ele>
        <time>2024-04-07T08:54:59.088Z</time>
      </trkpt>
      <trkpt lat="48.17624" lon="6.59854">
        <ele>474.197618</ele>
        <time>2024-04-07T08:55:01.091Z</time>
      </trkpt>
      <trkpt lat="48.17616" lon="6.59841">
        <ele>472.067705</ele>
        <time>2024-04-07T08:55:03.092Z</time>
      </trkpt>
      <trkpt lat="48.17609" lon="6.59827">
        <ele>470.913011</ele>
        <time>2024-04-07T08:55:05.078Z</time>
      </trkpt>
      <trkpt lat="48.17601" lon="6.59812">
        <ele>470.940748</ele>
        <time>2024-04-07T08:55:07.091Z</time>
      </trkpt>
      <trkpt lat="48.17595" lon="6.59799">
        <ele>470.965687</ele>
        <time>2024-04-07T08:55:09.090Z</time>
      </trkpt>
      <trkpt lat="48.17587" lon="6.59787">
        <ele>470.990965</ele>
        <time>2024-04-07T08:55:11.089Z</time>
      </trkpt>
      <trkpt lat="48.17577" lon="6.59775">
        <ele>471.01925</ele>
        <time>2024-04-07T08:55:13.091Z</time>
      </trkpt>
      <trkpt lat="48.17565" lon="6.59764">
        <ele>471.052348</ele>
        <time>2024-04-07T08:55:15.079Z</time>
      </trkpt>
      <trkpt lat="48.17551" lon="6.59749">
        <ele>471.090464</ele>
        <time>2024-04-07T08:55:17.082Z</time>
      </trkpt>
      <trkpt lat="48.17543" lon="6.59741">
        <ele>471.112321</ele>
        <time>2024-04-07T08:55:18.080Z</time>
      </trkpt>
      <trkpt lat="48.1753" lon="6.59724">
        <ele>471.150175</ele>
        <time>2024-04-07T08:55:20.081Z</time>
      </trkpt>
      <trkpt lat="48.17519" lon="6.59709">
        <ele>471.184448</ele>
        <time>2024-04-07T08:55:22.088Z</time>
      </trkpt>
      <trkpt lat="48.1751" lon="6.59696">
        <ele>471.21361</ele>
        <time>2024-04-07T08:55:24.091Z</time>
      </trkpt>
      <trkpt lat="48.175" lon="6.59682">
        <ele>471.243356</ele>
        <time>2024-04-07T08:55:26.089Z</time>
      </trkpt>
      <trkpt lat="48.17491" lon="6.59669">
        <ele>471.272198</ele>
        <time>2024-04-07T08:55:28.092Z</time>
      </trkpt>
      <trkpt lat="48.17481" lon="6.59656">
        <ele>471.301728</ele>
        <time>2024-04-07T08:55:30.086Z</time>
      </trkpt>
      <trkpt lat="48.17471" lon="6.59645">
        <ele>471.328902</ele>
        <time>2024-04-07T08:55:32.078Z</time>
      </trkpt>
      <trkpt lat="48.17461" lon="6.59636">
        <ele>471.356043</ele>
        <time>2024-04-07T08:55:34.085Z</time>
      </trkpt>
      <trkpt lat="48.17449" lon="6.59628">
        <ele>471.384088</ele>
        <time>2024-04-07T08:55:36.088Z</time>
      </trkpt>
      <trkpt lat="48.17439" lon="6.5962">
        <ele>471.408957</ele>
        <time>2024-04-07T08:55:38.084Z</time>
      </trkpt>
      <trkpt lat="48.1743" lon="6.59612">
        <ele>471.432863</ele>
        <time>2024-04-07T08:55:40.083Z</time>
      </trkpt>
      <trkpt lat="48.17423" lon="6.59603">
        <ele>471.452927</ele>
        <time>2024-04-07T08:55:42.087Z</time>
      </trkpt>
      <trkpt lat="48.17415" lon="6.59595">
        <ele>471.47441</ele>
        <time>2024-04-07T08:55:44.090Z</time>
      </trkpt>
      <trkpt lat="48.17404" lon="6.59584">
        <ele>471.503292</ele>
        <time>2024-04-07T08:55:47.086Z</time>
      </trkpt>
      <trkpt lat="48.17395" lon="6.59572">
        <ele>471.529866</ele>
        <time>2024-04-07T08:55:50.087Z</time>
      </trkpt>
      <trkpt lat="48.17387" lon="6.59562">
        <ele>471.552498</ele>
        <time>2024-04-07T08:55:52.088Z</time>
      </trkpt>
      <trkpt lat="48.17379" lon="6.59554">
        <ele>471.573563</ele>
        <time>2024-04-07T08:55:54.087Z</time>
      </trkpt>
      <trkpt lat="48.17369" lon="6.59543">
        <ele>471.601264</ele>
        <time>2024-04-07T08:55:57.091Z</time>
      </trkpt>
      <trkpt lat="48.17359" lon="6.59531">
        <ele>471.62985</ele>
        <time>2024-04-07T08:56:00.089Z</time>
      </trkpt>
      <trkpt lat="48.1735" lon="6.59521">
        <ele>471.655784</ele>
        <time>2024-04-07T08:56:03.092Z</time>
      </trkpt>
      <trkpt lat="48.1734" lon="6.5951">
        <ele>471.681716</ele>
        <time>2024-04-07T08:56:06.091Z</time>
      </trkpt>
      <trkpt lat="48.17331" lon="6.595">
        <ele>471.675005</ele>
        <time>2024-04-07T08:56:09.084Z</time>
      </trkpt>
      <trkpt lat="48.17321" lon="6.59489">
        <ele>471.371977</ele>
        <time>2024-04-07T08:56:12.091Z</time>
      </trkpt>
      <trkpt lat="48.17312" lon="6.59478">
        <ele>471.062775</ele>
        <time>2024-04-07T08:56:15.088Z</time>
      </trkpt>
      <trkpt lat="48.17303" lon="6.59467">
        <ele>470.782134</ele>
        <time>2024-04-07T08:56:18.082Z</time>
      </trkpt>
      <trkpt lat="48.17295" lon="6.59455">
        <ele>470.491998</ele>
        <time>2024-04-07T08:56:21.092Z</time>
      </trkpt>
      <trkpt lat="48.17285" lon="6.59441">
        <ele>470.155521</ele>
        <time>2024-04-07T08:56:24.091Z</time>
      </trkpt>
      <trkpt lat="48.17275" lon="6.59427">
        <ele>469.816157</ele>
        <time>2024-04-07T08:56:27.093Z</time>
      </trkpt>
      <trkpt lat="48.17267" lon="6.59415">
        <ele>469.512948</ele>
        <time>2024-04-07T08:56:30.088Z</time>
      </trkpt>
      <trkpt lat="48.17258" lon="6.59403">
        <ele>469.223727</ele>
        <time>2024-04-07T08:56:33.094Z</time>
      </trkpt>
      <trkpt lat="48.17249" lon="6.5939">
        <ele>468.905615</ele>
        <time>2024-04-07T08:56:36.092Z</time>
      </trkpt>
      <trkpt lat="48.17241" lon="6.59382">
        <ele>468.67497</ele>
        <time>2024-04-07T08:56:38.088Z</time>
      </trkpt>
      <trkpt lat="48.17234" lon="6.59372">
        <ele>468.431674</ele>
        <time>2024-04-07T08:56:40.090Z</time>
      </trkpt>
      <trkpt lat="48.17227" lon="6.59362">
        <ele>468.179434</ele>
        <time>2024-04-07T08:56:42.089Z</time>
      </trkpt>
      <trkpt lat="48.1722" lon="6.59351">
        <ele>467.911885</ele>
        <time>2024-04-07T08:56:44.093Z</time>
      </trkpt>
      <trkpt lat="48.17212" lon="6.59339">
        <ele>467.634251</ele>
        <time>2024-04-07T08:56:46.090Z</time>
      </trkpt>
      <trkpt lat="48.17203" lon="6.59328">
        <ele>467.348393</ele>
        <time>2024-04-07T08:56:48.092Z</time>
      </trkpt>
      <trkpt lat="48.17193" lon="6.59317">
        <ele>467.113063</ele>
        <time>2024-04-07T08:56:50.088Z</time>
      </trkpt>
      <trkpt lat="48.17181" lon="6.59304">
        <ele>466.953088</ele>
        <time>2024-04-07T08:56:52.091Z</time>
      </trkpt>
      <trkpt lat="48.1717" lon="6.59291">
        <ele>466.793072</ele>
        <time>2024-04-07T08:56:54.089Z</time>
      </trkpt>
      <trkpt lat="48.17161" lon="6.59282">
        <ele>466.675587</ele>
        <time>2024-04-07T08:56:56.091Z</time>
      </trkpt>
      <trkpt lat="48.17149" lon="6.59279">
        <ele>466.538813</ele>
        <time>2024-04-07T08:56:59.083Z</time>
      </trkpt>
      <trkpt lat="48.17138" lon="6.5928">
        <ele>466.420074</ele>
        <time>2024-04-07T08:57:01.094Z</time>
      </trkpt>
      <trkpt lat="48.17127" lon="6.59284">
        <ele>466.296992</ele>
        <time>2024-04-07T08:57:03.091Z</time>
      </trkpt>
      <trkpt lat="48.17116" lon="6.59286">
        <ele>466.170786</ele>
        <time>2024-04-07T08:57:05.087Z</time>
      </trkpt>
      <trkpt lat="48.17105" lon="6.59295">
        <ele>466.032416</ele>
        <time>2024-04-07T08:57:07.091Z</time>
      </trkpt>
      <trkpt lat="48.17095" lon="6.59302">
        <ele>465.905597</ele>
        <time>2024-04-07T08:57:09.073Z</time>
      </trkpt>
      <trkpt lat="48.17084" lon="6.59313">
        <ele>465.764679</ele>
        <time>2024-04-07T08:57:11.090Z</time>
      </trkpt>
      <trkpt lat="48.17077" lon="6.59326">
        <ele>465.638988</ele>
        <time>2024-04-07T08:57:13.087Z</time>
      </trkpt>
      <trkpt lat="48.17068" lon="6.59339">
        <ele>465.502819</ele>
        <time>2024-04-07T08:57:15.093Z</time>
      </trkpt>
      <trkpt lat="48.17059" lon="6.59354">
        <ele>465.350071</ele>
        <time>2024-04-07T08:57:17.089Z</time>
      </trkpt>
      <trkpt lat="48.17048" lon="6.59367">
        <ele>465.194027</ele>
        <time>2024-04-07T08:57:19.091Z</time>
      </trkpt>
      <trkpt lat="48.17035" lon="6.59382">
        <ele>464.736251</ele>
        <time>2024-04-07T08:57:21.089Z</time>
      </trkpt>
      <trkpt lat="48.17026" lon="6.594">
        <ele>464.274293</ele>
        <time>2024-04-07T08:57:23.092Z</time>
      </trkpt>
      <trkpt lat="48.17018" lon="6.59419">
        <ele>463.812714</ele>
        <time>2024-04-07T08:57:25.090Z</time>
      </trkpt>
      <trkpt lat="48.1701" lon="6.59438">
        <ele>463.354645</ele>
        <time>2024-04-07T08:57:27.094Z</time>
      </trkpt>
      <trkpt lat="48.16999" lon="6.59449">
        <ele>462.963269</ele>
        <time>2024-04-07T08:57:29.091Z</time>
      </trkpt>
      <trkpt lat="48.16986" lon="6.5945">
        <ele>462.542628</ele>
        <time>2024-04-07T08:57:31.073Z</time>
      </trkpt>
      <trkpt lat="48.16971" lon="6.5944">
        <ele>462.071387</ele>
        <time>2024-04-07T08:57:33.088Z</time>
      </trkpt>
      <trkpt lat="48.16959" lon="6.59433">
        <ele>461.656324</ele>
        <time>2024-04-07T08:57:35.089Z</time>
      </trkpt>
      <trkpt lat="48.16944" lon="6.5943">
        <ele>461.216163</ele>
        <time>2024-04-07T08:57:37.092Z</time>
      </trkpt>
      <trkpt lat="48.1693" lon="6.59431">
        <ele>460.777315</ele>
        <time>2024-04-07T08:57:39.091Z</time>
      </trkpt>
      <trkpt lat="48.16916" lon="6.59429">
        <ele>460.363407</ele>
        <time>2024-04-07T08:57:41.088Z</time>
      </trkpt>
      <trkpt lat="48.16902" lon="6.5942">
        <ele>459.897004</ele>
        <time>2024-04-07T08:57:43.091Z</time>
      </trkpt>
      <trkpt lat="48.16889" lon="6.5941">
        <ele>459.451851</ele>
        <time>2024-04-07T08:57:45.090Z</time>
      </trkpt>
      <trkpt lat="48.16877" lon="6.594">
        <ele>459.048939</ele>
        <time>2024-04-07T08:57:47.091Z</time>
      </trkpt>
      <trkpt lat="48.16866" lon="6.59386">
        <ele>458.642269</ele>
        <time>2024-04-07T08:57:49.092Z</time>
      </trkpt>
      <trkpt lat="48.16861" lon="6.5937">
        <ele>458.303041</ele>
        <time>2024-04-07T08:57:51.095Z</time>
      </trkpt>
      <trkpt lat="48.16863" lon="6.5935">
        <ele>457.915118</ele>
        <time>2024-04-07T08:57:53.091Z</time>
      </trkpt>
      <trkpt lat="48.16866" lon="6.59331">
        <ele>457.528391</ele>
        <time>2024-04-07T08:57:55.085Z</time>
      </trkpt>
      <trkpt lat="48.16867" lon="6.59311">
        <ele>457.134808</ele>
        <time>2024-04-07T08:57:57.088Z</time>
      </trkpt>
      <trkpt lat="48.1686" lon="6.59294">
        <ele>456.751667</ele>
        <time>2024-04-07T08:57:59.089Z</time>
      </trkpt>
      <trkpt lat="48.1685" lon="6.59287">
        <ele>456.42233</ele>
        <time>2024-04-07T08:58:01.092Z</time>
      </trkpt>
      <trkpt lat="48.16842" lon="6.59279">
        <ele>456.143941</ele>
        <time>2024-04-07T08:58:03.091Z</time>
      </trkpt>
      <trkpt lat="48.16845" lon="6.59262">
        <ele>455.816118</ele>
        <time>2024-04-07T08:58:05.092Z</time>
      </trkpt>
      <trkpt lat="48.16851" lon="6.59247">
        <ele>455.474391</ele>
        <time>2024-04-07T08:58:07.093Z</time>
      </trkpt>
      <trkpt lat="48.16859" lon="6.59234">
        <ele>455.123759</ele>
        <time>2024-04-07T08:58:09.089Z</time>
      </trkpt>
      <trkpt lat="48.16868" lon="6.59223">
        <ele>454.78713</ele>
        <time>2024-04-07T08:58:11.089Z</time>
      </trkpt>
      <trkpt lat="48.16877" lon="6.5921">
        <ele>454.450549</ele>
        <time>2024-04-07T08:58:13.092Z</time>
      </trkpt>
      <trkpt lat="48.16884" lon="6.59197">
        <ele>454.25874</ele>
        <time>2024-04-07T08:58:15.093Z</time>
      </trkpt>
      <trkpt lat="48.16893" lon="6.59185">
        <ele>454.057217</ele>
        <time>2024-04-07T08:58:17.082Z</time>
      </trkpt>
      <trkpt lat="48.16903" lon="6.59171">
        <ele>453.815389</ele>
        <time>2024-04-07T08:58:19.091Z</time>
      </trkpt>
      <trkpt lat="48.16912" lon="6.59157">
        <ele>453.588059</ele>
        <time>2024-04-07T08:58:21.088Z</time>
      </trkpt>
      <trkpt lat="48.16922" lon="6.59146">
        <ele>453.376755</ele>
        <time>2024-04-07T08:58:23.089Z</time>
      </trkpt>
      <trkpt lat="48.16931" lon="6.59134">
        <ele>453.162062</ele>
        <time>2024-04-07T08:58:25.089Z</time>
      </trkpt>
      <trkpt lat="48.16939" lon="6.5912">
        <ele>452.952454</ele>
        <time>2024-04-07T08:58:27.091Z</time>
      </trkpt>
      <trkpt lat="48.16946" lon="6.59104">
        <ele>452.736475</ele>
        <time>2024-04-07T08:58:29.089Z</time>
      </trkpt>
      <trkpt lat="48.1695" lon="6.59084">
        <ele>452.495184</ele>
        <time>2024-04-07T08:58:31.090Z</time>
      </trkpt>
      <trkpt lat="48.16953" lon="6.59066">
        <ele>452.280197</ele>
        <time>2024-04-07T08:58:33.094Z</time>
      </trkpt>
      <trkpt lat="48.16956" lon="6.59049">
        <ele>452.073923</ele>
        <time>2024-04-07T08:58:35.089Z</time>
      </trkpt>
      <trkpt lat="48.16959" lon="6.59032">
        <ele>451.867917</ele>
        <time>2024-04-07T08:58:37.058Z</time>
      </trkpt>
      <trkpt lat="48.16962" lon="6.59016">
        <ele>451.67756</ele>
        <time>2024-04-07T08:58:39.091Z</time>
      </trkpt>
      <trkpt lat="48.16966" lon="6.59">
        <ele>451.480649</ele>
        <time>2024-04-07T08:58:41.086Z</time>
      </trkpt>
      <trkpt lat="48.1697" lon="6.58985">
        <ele>451.363979</ele>
        <time>2024-04-07T08:58:43.066Z</time>
      </trkpt>
      <trkpt lat="48.16974" lon="6.58971">
        <ele>451.356393</ele>
        <time>2024-04-07T08:58:45.090Z</time>
      </trkpt>
      <trkpt lat="48.16977" lon="6.58956">
        <ele>451.348761</ele>
        <time>2024-04-07T08:58:47.085Z</time>
      </trkpt>
      <trkpt lat="48.16983" lon="6.58943">
        <ele>451.340894</ele>
        <time>2024-04-07T08:58:49.089Z</time>
      </trkpt>
      <trkpt lat="48.1699" lon="6.58931">
        <ele>451.332974</ele>
        <time>2024-04-07T08:58:51.088Z</time>
      </trkpt>
      <trkpt lat="48.16999" lon="6.58921">
        <ele>451.324776</ele>
        <time>2024-04-07T08:58:53.090Z</time>
      </trkpt>
      <trkpt lat="48.17007" lon="6.58909">
        <ele>451.316419</ele>
        <time>2024-04-07T08:58:55.089Z</time>
      </trkpt>
      <trkpt lat="48.17012" lon="6.58893">
        <ele>451.307967</ele>
        <time>2024-04-07T08:58:57.088Z</time>
      </trkpt>
      <trkpt lat="48.17014" lon="6.58876">
        <ele>451.299212</ele>
        <time>2024-04-07T08:58:59.090Z</time>
      </trkpt>
      <trkpt lat="48.17016" lon="6.58859">
        <ele>451.29073</ele>
        <time>2024-04-07T08:59:01.090Z</time>
      </trkpt>
      <trkpt lat="48.17019" lon="6.58842">
        <ele>451.282039</ele>
        <time>2024-04-07T08:59:03.088Z</time>
      </trkpt>
      <trkpt lat="48.17021" lon="6.58825">
        <ele>451.273356</ele>
        <time>2024-04-07T08:59:05.090Z</time>
      </trkpt>
      <trkpt lat="48.17024" lon="6.58808">
        <ele>451.264604</ele>
        <time>2024-04-07T08:59:07.091Z</time>
      </trkpt>
      <trkpt lat="48.17028" lon="6.58792">
        <ele>451.256107</ele>
        <time>2024-04-07T08:59:09.093Z</time>
      </trkpt>
      <trkpt lat="48.17034" lon="6.58777">
        <ele>451.24777</ele>
        <time>2024-04-07T08:59:11.088Z</time>
      </trkpt>
      <trkpt lat="48.17041" lon="6.58765">
        <ele>451.239725</ele>
        <time>2024-04-07T08:59:13.091Z</time>
      </trkpt>
      <trkpt lat="48.17051" lon="6.58758">
        <ele>451.354875</ele>
        <time>2024-04-07T08:59:15.093Z</time>
      </trkpt>
      <trkpt lat="48.1706" lon="6.58752">
        <ele>451.831224</ele>
        <time>2024-04-07T08:59:17.092Z</time>
      </trkpt>
      <trkpt lat="48.1707" lon="6.58746">
        <ele>452.321635</ele>
        <time>2024-04-07T08:59:19.095Z</time>
      </trkpt>
      <trkpt lat="48.17079" lon="6.58739">
        <ele>452.774632</ele>
        <time>2024-04-07T08:59:21.080Z</time>
      </trkpt>
      <trkpt lat="48.17087" lon="6.58731">
        <ele>453.191029</ele>
        <time>2024-04-07T08:59:23.078Z</time>
      </trkpt>
      <trkpt lat="48.17094" lon="6.58722">
        <ele>453.625343</ele>
        <time>2024-04-07T08:59:25.089Z</time>
      </trkpt>
      <trkpt lat="48.17101" lon="6.58706">
        <ele>454.195005</ele>
        <time>2024-04-07T08:59:28.071Z</time>
      </trkpt>
      <trkpt lat="48.17099" lon="6.5869">
        <ele>454.694425</ele>
        <time>2024-04-07T08:59:31.090Z</time>
      </trkpt>
      <trkpt lat="48.17091" lon="6.58678">
        <ele>455.208279</ele>
        <time>2024-04-07T08:59:34.089Z</time>
      </trkpt>
      <trkpt lat="48.17084" lon="6.58667">
        <ele>455.662385</ele>
        <time>2024-04-07T08:59:37.090Z</time>
      </trkpt>
      <trkpt lat="48.17076" lon="6.58657">
        <ele>456.119739</ele>
        <time>2024-04-07T08:59:40.090Z</time>
      </trkpt>
      <trkpt lat="48.17069" lon="6.58646">
        <ele>456.568533</ele>
        <time>2024-04-07T08:59:43.093Z</time>
      </trkpt>
      <trkpt lat="48.17062" lon="6.58633">
        <ele>457.095811</ele>
        <time>2024-04-07T08:59:46.065Z</time>
      </trkpt>
      <trkpt lat="48.17055" lon="6.58618">
        <ele>457.632684</ele>
        <time>2024-04-07T08:59:49.090Z</time>
      </trkpt>
      <trkpt lat="48.17049" lon="6.58603">
        <ele>458.170177</ele>
        <time>2024-04-07T08:59:52.089Z</time>
      </trkpt>
      <trkpt lat="48.17044" lon="6.58588">
        <ele>458.679927</ele>
        <time>2024-04-07T08:59:55.092Z</time>
      </trkpt>
      <trkpt lat="48.17038" lon="6.58572">
        <ele>459.210522</ele>
        <time>2024-04-07T08:59:58.077Z</time>
      </trkpt>
      <trkpt lat="48.17032" lon="6.58558">
        <ele>459.861953</ele>
        <time>2024-04-07T09:00:01.080Z</time>
      </trkpt>
      <trkpt lat="48.17027" lon="6.58541">
        <ele>460.603083</ele>
        <time>2024-04-07T09:00:04.092Z</time>
      </trkpt>
      <trkpt lat="48.17021" lon="6.58525">
        <ele>461.347848</ele>
        <time>2024-04-07T09:00:07.091Z</time>
      </trkpt>
      <trkpt lat="48.17016" lon="6.58509">
        <ele>462.057174</ele>
        <time>2024-04-07T09:00:10.088Z</time>
      </trkpt>
      <trkpt lat="48.17011" lon="6.58493">
        <ele>462.810174</ele>
        <time>2024-04-07T09:00:13.090Z</time>
      </trkpt>
      <trkpt lat="48.17007" lon="6.58478">
        <ele>463.449918</ele>
        <time>2024-04-07T09:00:16.084Z</time>
      </trkpt>
      <trkpt lat="48.17004" lon="6.58462">
        <ele>464.128828</ele>
        <time>2024-04-07T09:00:19.086Z</time>
      </trkpt>
      <trkpt lat="48.17" lon="6.58445">
        <ele>464.869533</ele>
        <time>2024-04-07T09:00:22.093Z</time>
      </trkpt>
      <trkpt lat="48.16996" lon="6.58427">
        <ele>465.633952</ele>
        <time>2024-04-07T09:00:25.090Z</time>
      </trkpt>
      <trkpt lat="48.16994" lon="6.5841">
        <ele>466.349795</ele>
        <time>2024-04-07T09:00:28.073Z</time>
      </trkpt>
      <trkpt lat="48.16994" lon="6.58394">
        <ele>466.989888</ele>
        <time>2024-04-07T09:00:31.082Z</time>
      </trkpt>
      <trkpt lat="48.16993" lon="6.58377">
        <ele>467.677741</ele>
        <time>2024-04-07T09:00:35.085Z</time>
      </trkpt>
      <trkpt lat="48.16994" lon="6.58364">
        <ele>468.247794</ele>
        <time>2024-04-07T09:00:40.088Z</time>
      </trkpt>
      <trkpt lat="48.16991" lon="6.58349">
        <ele>468.864973</ele>
        <time>2024-04-07T09:00:45.090Z</time>
      </trkpt>
      <trkpt lat="48.16992" lon="6.58332">
        <ele>469.552636</ele>
        <time>2024-04-07T09:00:51.093Z</time>
      </trkpt>
      <trkpt lat="48.16995" lon="6.58318">
        <ele>470.13905</ele>
        <time>2024-04-07T09:00:58.069Z</time>
      </trkpt>
      <trkpt lat="48.17004" lon="6.58318">
        <ele>471.19366</ele>
        <time>2024-04-07T09:01:15.089Z</time>
      </trkpt>
      <trkpt lat="48.17028" lon="6.5832">
        <ele>474.96611</ele>
        <time>2024-04-07T09:02:41.090Z</time>
      </trkpt>
      <trkpt lat="48.17037" lon="6.58317">
        <ele>476.390707</ele>
        <time>2024-04-07T09:02:49.091Z</time>
      </trkpt>
      <trkpt lat="48.17098" lon="6.58298">
        <ele>486.005504</ele>
        <time>2024-04-07T09:04:47.091Z</time>
      </trkpt>
      <trkpt lat="48.1716" lon="6.58294">
        <ele>495.66801</ele>
        <time>2024-04-07T09:05:43.096Z</time>
      </trkpt>
      <trkpt lat="48.17234" lon="6.58308">
        <ele>498.437711</ele>
        <time>2024-04-07T09:06:59.089Z</time>
      </trkpt>
      <trkpt lat="48.1725" lon="6.58313">
        <ele>498.495906</ele>
        <time>2024-04-07T09:07:10.091Z</time>
      </trkpt>
      <trkpt lat="48.17259" lon="6.58316">
        <ele>498.527181</ele>
        <time>2024-04-07T09:07:15.088Z</time>
      </trkpt>
      <trkpt lat="48.17268" lon="6.58323">
        <ele>498.562269</ele>
        <time>2024-04-07T09:07:21.090Z</time>
      </trkpt>
      <trkpt lat="48.17302" lon="6.58328">
        <ele>498.678767</ele>
        <time>2024-04-07T09:07:48.071Z</time>
      </trkpt>
      <trkpt lat="48.17315" lon="6.58326">
        <ele>498.724056</ele>
        <time>2024-04-07T09:07:51.086Z</time>
      </trkpt>
      <trkpt lat="48.17327" lon="6.58324">
        <ele>498.767502</ele>
        <time>2024-04-07T09:07:54.090Z</time>
      </trkpt>
      <trkpt lat="48.17337" lon="6.58325">
        <ele>498.801608</ele>
        <time>2024-04-07T09:07:56.074Z</time>
      </trkpt>
      <trkpt lat="48.1735" lon="6.58327">
        <ele>498.845721</ele>
        <time>2024-04-07T09:07:58.072Z</time>
      </trkpt>
      <trkpt lat="48.17363" lon="6.58328">
        <ele>498.380708</ele>
        <time>2024-04-07T09:08:00.089Z</time>
      </trkpt>
      <trkpt lat="48.17375" lon="6.58332">
        <ele>497.726855</ele>
        <time>2024-04-07T09:08:02.088Z</time>
      </trkpt>
      <trkpt lat="48.17387" lon="6.58339">
        <ele>497.021625</ele>
        <time>2024-04-07T09:08:04.088Z</time>
      </trkpt>
      <trkpt lat="48.17399" lon="6.58345">
        <ele>496.352666</ele>
        <time>2024-04-07T09:08:06.088Z</time>
      </trkpt>
      <trkpt lat="48.17411" lon="6.58346">
        <ele>495.711935</ele>
        <time>2024-04-07T09:08:09.092Z</time>
      </trkpt>
      <trkpt lat="48.17424" lon="6.5835">
        <ele>494.985835</ele>
        <time>2024-04-07T09:08:12.088Z</time>
      </trkpt>
      <trkpt lat="48.17436" lon="6.58356">
        <ele>494.315379</ele>
        <time>2024-04-07T09:08:15.087Z</time>
      </trkpt>
      <trkpt lat="48.17447" lon="6.58349">
        <ele>493.702777</ele>
        <time>2024-04-07T09:08:19.084Z</time>
      </trkpt>
      <trkpt lat="48.17456" lon="6.58337">
        <ele>493.044864</ele>
        <time>2024-04-07T09:08:22.091Z</time>
      </trkpt>
      <trkpt lat="48.17465" lon="6.58323">
        <ele>492.374864</ele>
        <time>2024-04-07T09:08:25.088Z</time>
      </trkpt>
      <trkpt lat="48.17472" lon="6.58311">
        <ele>491.80098</ele>
        <time>2024-04-07T09:08:28.071Z</time>
      </trkpt>
      <trkpt lat="48.17479" lon="6.58298">
        <ele>491.17903</ele>
        <time>2024-04-07T09:08:32.083Z</time>
      </trkpt>
      <trkpt lat="48.17482" lon="6.58276">
        <ele>490.380709</ele>
        <time>2024-04-07T09:08:42.090Z</time>
      </trkpt>
      <trkpt lat="48.17476" lon="6.58237">
        <ele>488.841571</ele>
        <time>2024-04-07T09:09:04.083Z</time>
      </trkpt>
      <trkpt lat="48.17475" lon="6.58221">
        <ele>488.017084</ele>
        <time>2024-04-07T09:09:07.090Z</time>
      </trkpt>
      <trkpt lat="48.17474" lon="6.58206">
        <ele>487.269553</ele>
        <time>2024-04-07T09:09:09.072Z</time>
      </trkpt>
      <trkpt lat="48.17472" lon="6.58192">
        <ele>486.573443</ele>
        <time>2024-04-07T09:09:11.090Z</time>
      </trkpt>
      <trkpt lat="48.1747" lon="6.58178">
        <ele>485.816293</ele>
        <time>2024-04-07T09:09:13.086Z</time>
      </trkpt>
      <trkpt lat="48.17469" lon="6.58161">
        <ele>484.975592</ele>
        <time>2024-04-07T09:09:15.089Z</time>
      </trkpt>
      <trkpt lat="48.17467" lon="6.58147">
        <ele>484.252807</ele>
        <time>2024-04-07T09:09:17.091Z</time>
      </trkpt>
      <trkpt lat="48.17469" lon="6.58128">
        <ele>483.320845</ele>
        <time>2024-04-07T09:09:20.090Z</time>
      </trkpt>
      <trkpt lat="48.17466" lon="6.58113">
        <ele>482.550775</ele>
        <time>2024-04-07T09:09:22.091Z</time>
      </trkpt>
      <trkpt lat="48.17462" lon="6.58097">
        <ele>481.647667</ele>
        <time>2024-04-07T09:09:25.090Z</time>
      </trkpt>
      <trkpt lat="48.17453" lon="6.58086">
        <ele>480.829133</ele>
        <time>2024-04-07T09:09:28.090Z</time>
      </trkpt>
      <trkpt lat="48.17444" lon="6.58075">
        <ele>479.905727</ele>
        <time>2024-04-07T09:09:31.089Z</time>
      </trkpt>
      <trkpt lat="48.17432" lon="6.58066">
        <ele>478.918549</ele>
        <time>2024-04-07T09:09:34.090Z</time>
      </trkpt>
      <trkpt lat="48.17423" lon="6.58059">
        <ele>478.183197</ele>
        <time>2024-04-07T09:09:37.088Z</time>
      </trkpt>
      <trkpt lat="48.17412" lon="6.5805">
        <ele>477.192322</ele>
        <time>2024-04-07T09:09:40.089Z</time>
      </trkpt>
      <trkpt lat="48.17402" lon="6.58042">
        <ele>476.386195</ele>
        <time>2024-04-07T09:09:43.068Z</time>
      </trkpt>
      <trkpt lat="48.1739" lon="6.5803">
        <ele>474.765018</ele>
        <time>2024-04-07T09:09:46.089Z</time>
      </trkpt>
      <trkpt lat="48.17377" lon="6.58019">
        <ele>472.333179</ele>
        <time>2024-04-07T09:09:50.088Z</time>
      </trkpt>
      <trkpt lat="48.17366" lon="6.58014">
        <ele>470.579449</ele>
        <time>2024-04-07T09:09:52.089Z</time>
      </trkpt>
      <trkpt lat="48.17357" lon="6.58009">
        <ele>469.087821</ele>
        <time>2024-04-07T09:09:54.090Z</time>
      </trkpt>
      <trkpt lat="48.17343" lon="6.57999">
        <ele>466.708079</ele>
        <time>2024-04-07T09:09:56.086Z</time>
      </trkpt>
      <trkpt lat="48.17332" lon="6.57992">
        <ele>464.774405</ele>
        <time>2024-04-07T09:09:58.073Z</time>
      </trkpt>
      <trkpt lat="48.17322" lon="6.57985">
        <ele>463.062473</ele>
        <time>2024-04-07T09:10:00.088Z</time>
      </trkpt>
      <trkpt lat="48.17314" lon="6.57979">
        <ele>461.6177</ele>
        <time>2024-04-07T09:10:02.086Z</time>
      </trkpt>
      <trkpt lat="48.17304" lon="6.57975">
        <ele>460.026706</ele>
        <time>2024-04-07T09:10:05.088Z</time>
      </trkpt>
      <trkpt lat="48.17293" lon="6.57965">
        <ele>458.026751</ele>
        <time>2024-04-07T09:10:08.080Z</time>
      </trkpt>
      <trkpt lat="48.17285" lon="6.57958">
        <ele>456.534032</ele>
        <time>2024-04-07T09:10:10.087Z</time>
      </trkpt>
      <trkpt lat="48.17275" lon="6.57951">
        <ele>454.743247</ele>
        <time>2024-04-07T09:10:12.054Z</time>
      </trkpt>
      <trkpt lat="48.17266" lon="6.57946">
        <ele>453.247673</ele>
        <time>2024-04-07T09:10:14.083Z</time>
      </trkpt>
      <trkpt lat="48.17253" lon="6.57945">
        <ele>451.280533</ele>
        <time>2024-04-07T09:10:17.064Z</time>
      </trkpt>
      <trkpt lat="48.17243" lon="6.57945">
        <ele>449.675312</ele>
        <time>2024-04-07T09:10:19.086Z</time>
      </trkpt>
      <trkpt lat="48.17232" lon="6.57943">
        <ele>447.938893</ele>
        <time>2024-04-07T09:10:21.088Z</time>
      </trkpt>
      <trkpt lat="48.17222" lon="6.57944">
        <ele>447.589081</ele>
        <time>2024-04-07T09:10:23.075Z</time>
      </trkpt>
      <trkpt lat="48.1721" lon="6.57947">
        <ele>447.814063</ele>
        <time>2024-04-07T09:10:26.084Z</time>
      </trkpt>
      <trkpt lat="48.172" lon="6.57949">
        <ele>447.997233</ele>
        <time>2024-04-07T09:10:29.086Z</time>
      </trkpt>
      <trkpt lat="48.17189" lon="6.57949">
        <ele>448.192215</ele>
        <time>2024-04-07T09:10:32.083Z</time>
      </trkpt>
      <trkpt lat="48.17179" lon="6.5795">
        <ele>448.380134</ele>
        <time>2024-04-07T09:10:35.094Z</time>
      </trkpt>
      <trkpt lat="48.17166" lon="6.5795">
        <ele>448.613348</ele>
        <time>2024-04-07T09:10:39.087Z</time>
      </trkpt>
      <trkpt lat="48.17154" lon="6.57947">
        <ele>448.833848</ele>
        <time>2024-04-07T09:10:42.091Z</time>
      </trkpt>
      <trkpt lat="48.1714" lon="6.57948">
        <ele>449.078213</ele>
        <time>2024-04-07T09:10:45.088Z</time>
      </trkpt>
      <trkpt lat="48.17129" lon="6.57951">
        <ele>449.292408</ele>
        <time>2024-04-07T09:10:48.076Z</time>
      </trkpt>
      <trkpt lat="48.17121" lon="6.57942">
        <ele>449.46737</ele>
        <time>2024-04-07T09:10:53.089Z</time>
      </trkpt>
      <trkpt lat="48.17124" lon="6.57927">
        <ele>449.653142</ele>
        <time>2024-04-07T09:10:56.086Z</time>
      </trkpt>
      <trkpt lat="48.17128" lon="6.57913">
        <ele>449.844614</ele>
        <time>2024-04-07T09:10:59.086Z</time>
      </trkpt>
      <trkpt lat="48.17134" lon="6.57902">
        <ele>450.016858</ele>
        <time>2024-04-07T09:11:04.086Z</time>
      </trkpt>
      <trkpt lat="48.17142" lon="6.57894">
        <ele>450.19248</ele>
        <time>2024-04-07T09:11:09.087Z</time>
      </trkpt>
      <trkpt lat="48.1715" lon="6.57886">
        <ele>450.366284</ele>
        <time>2024-04-07T09:11:12.084Z</time>
      </trkpt>
      <trkpt lat="48.1716" lon="6.5788">
        <ele>450.558338</ele>
        <time>2024-04-07T09:11:15.076Z</time>
      </trkpt>
      <trkpt lat="48.17169" lon="6.57873">
        <ele>450.84785</ele>
        <time>2024-04-07T09:11:18.072Z</time>
      </trkpt>
      <trkpt lat="48.17179" lon="6.57865">
        <ele>452.15576</ele>
        <time>2024-04-07T09:11:22.088Z</time>
      </trkpt>
      <trkpt lat="48.17189" lon="6.57859">
        <ele>453.320082</ele>
        <time>2024-04-07T09:11:26.089Z</time>
      </trkpt>
      <trkpt lat="48.17196" lon="6.57849">
        <ele>454.473724</ele>
        <time>2024-04-07T09:11:30.089Z</time>
      </trkpt>
      <trkpt lat="48.17204" lon="6.5784">
        <ele>455.607167</ele>
        <time>2024-04-07T09:11:34.088Z</time>
      </trkpt>
      <trkpt lat="48.1721" lon="6.57826">
        <ele>456.856165</ele>
        <time>2024-04-07T09:11:39.088Z</time>
      </trkpt>
      <trkpt lat="48.17216" lon="6.57815">
        <ele>457.989699</ele>
        <time>2024-04-07T09:11:45.093Z</time>
      </trkpt>
      <trkpt lat="48.17223" lon="6.57805">
        <ele>459.03175</ele>
        <time>2024-04-07T09:11:50.089Z</time>
      </trkpt>
      <trkpt lat="48.1723" lon="6.57794">
        <ele>460.279769</ele>
        <time>2024-04-07T09:11:56.089Z</time>
      </trkpt>
      <trkpt lat="48.17237" lon="6.57785">
        <ele>461.32967</ele>
        <time>2024-04-07T09:12:01.091Z</time>
      </trkpt>
      <trkpt lat="48.17245" lon="6.57773">
        <ele>462.601958</ele>
        <time>2024-04-07T09:12:07.092Z</time>
      </trkpt>
      <trkpt lat="48.1725" lon="6.5776">
        <ele>463.737683</ele>
        <time>2024-04-07T09:12:13.090Z</time>
      </trkpt>
      <trkpt lat="48.17254" lon="6.57748">
        <ele>464.773105</ele>
        <time>2024-04-07T09:12:20.087Z</time>
      </trkpt>
      <trkpt lat="48.17256" lon="6.57735">
        <ele>465.822227</ele>
        <time>2024-04-07T09:12:27.089Z</time>
      </trkpt>
      <trkpt lat="48.17259" lon="6.5772">
        <ele>466.992684</ele>
        <time>2024-04-07T09:12:33.090Z</time>
      </trkpt>
      <trkpt lat="48.17264" lon="6.57707">
        <ele>468.127134</ele>
        <time>2024-04-07T09:12:39.089Z</time>
      </trkpt>
      <trkpt lat="48.17269" lon="6.57694">
        <ele>469.281177</ele>
        <time>2024-04-07T09:12:45.092Z</time>
      </trkpt>
      <trkpt lat="48.17273" lon="6.5768">
        <ele>470.473955</ele>
        <time>2024-04-07T09:12:51.091Z</time>
      </trkpt>
      <trkpt lat="48.17278" lon="6.57666">
        <ele>471.405122</ele>
        <time>2024-04-07T09:12:57.092Z</time>
      </trkpt>
      <trkpt lat="48.17281" lon="6.57653">
        <ele>471.498992</ele>
        <time>2024-04-07T09:13:02.089Z</time>
      </trkpt>
      <trkpt lat="48.17283" lon="6.5764">
        <ele>471.596138</ele>
        <time>2024-04-07T09:13:08.067Z</time>
      </trkpt>
      <trkpt lat="48.17287" lon="6.57624">
        <ele>471.71218</ele>
        <time>2024-04-07T09:13:14.085Z</time>
      </trkpt>
      <trkpt lat="48.17291" lon="6.57611">
        <ele>471.806829</ele>
        <time>2024-04-07T09:13:18.075Z</time>
      </trkpt>
      <trkpt lat="48.17295" lon="6.57598">
        <ele>471.907155</ele>
        <time>2024-04-07T09:13:22.088Z</time>
      </trkpt>
      <trkpt lat="48.17299" lon="6.57585">
        <ele>472.004686</ele>
        <time>2024-04-07T09:13:26.088Z</time>
      </trkpt>
      <trkpt lat="48.17304" lon="6.57571">
        <ele>472.117522</ele>
        <time>2024-04-07T09:13:31.092Z</time>
      </trkpt>
      <trkpt lat="48.17308" lon="6.57555">
        <ele>472.235186</ele>
        <time>2024-04-07T09:13:37.091Z</time>
      </trkpt>
      <trkpt lat="48.1731" lon="6.5754">
        <ele>472.33605</ele>
        <time>2024-04-07T09:13:41.092Z</time>
      </trkpt>
      <trkpt lat="48.17311" lon="6.57526">
        <ele>472.436899</ele>
        <time>2024-04-07T09:13:46.091Z</time>
      </trkpt>
      <trkpt lat="48.17313" lon="6.57512">
        <ele>472.536095</ele>
        <time>2024-04-07T09:13:51.089Z</time>
      </trkpt>
      <trkpt lat="48.17318" lon="6.57499">
        <ele>472.632272</ele>
        <time>2024-04-07T09:13:56.092Z</time>
      </trkpt>
      <trkpt lat="48.17321" lon="6.57484">
        <ele>472.747682</ele>
        <time>2024-04-07T09:14:01.088Z</time>
      </trkpt>
      <trkpt lat="48.17327" lon="6.57471">
        <ele>472.85292</ele>
        <time>2024-04-07T09:14:05.062Z</time>
      </trkpt>
      <trkpt lat="48.1733" lon="6.57458">
        <ele>472.946478</ele>
        <time>2024-04-07T09:14:08.074Z</time>
      </trkpt>
      <trkpt lat="48.17333" lon="6.57444">
        <ele>473.047392</ele>
        <time>2024-04-07T09:14:12.091Z</time>
      </trkpt>
      <trkpt lat="48.17337" lon="6.57431">
        <ele>473.144522</ele>
        <time>2024-04-07T09:14:15.091Z</time>
      </trkpt>
      <trkpt lat="48.17339" lon="6.57417">
        <ele>473.237247</ele>
        <time>2024-04-07T09:14:19.091Z</time>
      </trkpt>
      <trkpt lat="48.17341" lon="6.57403">
        <ele>473.259094</ele>
        <time>2024-04-07T09:14:23.090Z</time>
      </trkpt>
      <trkpt lat="48.17342" lon="6.57385">
        <ele>473.28763</ele>
        <time>2024-04-07T09:14:27.091Z</time>
      </trkpt>
      <trkpt lat="48.17338" lon="6.57372">
        <ele>473.310873</ele>
        <time>2024-04-07T09:14:32.088Z</time>
      </trkpt>
      <trkpt lat="48.17328" lon="6.57364">
        <ele>473.338209</ele>
        <time>2024-04-07T09:14:37.092Z</time>
      </trkpt>
      <trkpt lat="48.17319" lon="6.57358">
        <ele>473.36067</ele>
        <time>2024-04-07T09:14:42.091Z</time>
      </trkpt>
      <trkpt lat="48.17308" lon="6.5736">
        <ele>473.387519</ele>
        <time>2024-04-07T09:14:48.090Z</time>
      </trkpt>
      <trkpt lat="48.17296" lon="6.57363">
        <ele>473.416159</ele>
        <time>2024-04-07T09:14:53.086Z</time>
      </trkpt>
      <trkpt lat="48.17284" lon="6.57364">
        <ele>473.443448</ele>
        <time>2024-04-07T09:14:57.093Z</time>
      </trkpt>
      <trkpt lat="48.17273" lon="6.57368">
        <ele>473.47046</ele>
        <time>2024-04-07T09:15:01.093Z</time>
      </trkpt>
      <trkpt lat="48.17264" lon="6.57371">
        <ele>473.494064</ele>
        <time>2024-04-07T09:15:05.088Z</time>
      </trkpt>
      <trkpt lat="48.17253" lon="6.57374">
        <ele>473.519581</ele>
        <time>2024-04-07T09:15:09.072Z</time>
      </trkpt>
      <trkpt lat="48.17242" lon="6.57377">
        <ele>473.545368</ele>
        <time>2024-04-07T09:15:14.076Z</time>
      </trkpt>
      <trkpt lat="48.17233" lon="6.57382">
        <ele>473.569196</ele>
        <time>2024-04-07T09:15:18.094Z</time>
      </trkpt>
      <trkpt lat="48.17224" lon="6.57387">
        <ele>473.592221</ele>
        <time>2024-04-07T09:15:21.071Z</time>
      </trkpt>
      <trkpt lat="48.17213" lon="6.57389">
        <ele>473.616787</ele>
        <time>2024-04-07T09:15:24.061Z</time>
      </trkpt>
      <trkpt lat="48.17204" lon="6.57392">
        <ele>473.639693</ele>
        <time>2024-04-07T09:15:27.069Z</time>
      </trkpt>
      <trkpt lat="48.17194" lon="6.57394">
        <ele>473.677918</ele>
        <time>2024-04-07T09:15:30.093Z</time>
      </trkpt>
      <trkpt lat="48.17184" lon="6.57398">
        <ele>474.079918</ele>
        <time>2024-04-07T09:15:34.083Z</time>
      </trkpt>
      <trkpt lat="48.17172" lon="6.57403">
        <ele>474.527081</ele>
        <time>2024-04-07T09:15:38.068Z</time>
      </trkpt>
      <trkpt lat="48.17161" lon="6.57409">
        <ele>474.977302</ele>
        <time>2024-04-07T09:15:41.090Z</time>
      </trkpt>
      <trkpt lat="48.17152" lon="6.57413">
        <ele>475.323589</ele>
        <time>2024-04-07T09:15:44.094Z</time>
      </trkpt>
      <trkpt lat="48.17141" lon="6.57417">
        <ele>475.748999</ele>
        <time>2024-04-07T09:15:48.073Z</time>
      </trkpt>
      <trkpt lat="48.1713" lon="6.57422">
        <ele>476.160104</ele>
        <time>2024-04-07T09:15:52.090Z</time>
      </trkpt>
      <trkpt lat="48.17121" lon="6.57424">
        <ele>476.5035</ele>
        <time>2024-04-07T09:15:55.091Z</time>
      </trkpt>
      <trkpt lat="48.17111" lon="6.57427">
        <ele>476.881923</ele>
        <time>2024-04-07T09:16:00.090Z</time>
      </trkpt>
      <trkpt lat="48.17099" lon="6.57432">
        <ele>477.336931</ele>
        <time>2024-04-07T09:16:07.090Z</time>
      </trkpt>
      <trkpt lat="48.17088" lon="6.57435">
        <ele>477.768237</ele>
        <time>2024-04-07T09:16:11.089Z</time>
      </trkpt>
      <trkpt lat="48.17077" lon="6.5744">
        <ele>478.17703</ele>
        <time>2024-04-07T09:16:16.080Z</time>
      </trkpt>
      <trkpt lat="48.17067" lon="6.57442">
        <ele>478.57193</ele>
        <time>2024-04-07T09:16:20.086Z</time>
      </trkpt>
      <trkpt lat="48.17056" lon="6.57446">
        <ele>478.966907</ele>
        <time>2024-04-07T09:16:24.063Z</time>
      </trkpt>
      <trkpt lat="48.17045" lon="6.57449">
        <ele>479.400478</ele>
        <time>2024-04-07T09:16:28.080Z</time>
      </trkpt>
      <trkpt lat="48.17034" lon="6.57454">
        <ele>479.810801</ele>
        <time>2024-04-07T09:16:32.088Z</time>
      </trkpt>
      <trkpt lat="48.17024" lon="6.57459">
        <ele>480.199672</ele>
        <time>2024-04-07T09:16:36.094Z</time>
      </trkpt>
      <trkpt lat="48.17015" lon="6.57463">
        <ele>480.200764</ele>
        <time>2024-04-07T09:16:39.088Z</time>
      </trkpt>
      <trkpt lat="48.17004" lon="6.57469">
        <ele>479.978773</ele>
        <time>2024-04-07T09:16:43.092Z</time>
      </trkpt>
      <trkpt lat="48.16994" lon="6.57474">
        <ele>479.752157</ele>
        <time>2024-04-07T09:16:48.071Z</time>
      </trkpt>
      <trkpt lat="48.16985" lon="6.57478">
        <ele>479.556807</ele>
        <time>2024-04-07T09:16:52.091Z</time>
      </trkpt>
      <trkpt lat="48.16971" lon="6.57485">
        <ele>479.258375</ele>
        <time>2024-04-07T09:17:00.090Z</time>
      </trkpt>
      <trkpt lat="48.16962" lon="6.57488">
        <ele>479.068384</ele>
        <time>2024-04-07T09:17:03.090Z</time>
      </trkpt>
      <trkpt lat="48.16951" lon="6.57494">
        <ele>478.833501</ele>
        <time>2024-04-07T09:17:07.091Z</time>
      </trkpt>
      <trkpt lat="48.1694" lon="6.57498">
        <ele>478.61003</ele>
        <time>2024-04-07T09:17:11.081Z</time>
      </trkpt>
      <trkpt lat="48.1693" lon="6.57503">
        <ele>478.39906</ele>
        <time>2024-04-07T09:17:15.089Z</time>
      </trkpt>
      <trkpt lat="48.1692" lon="6.57505">
        <ele>478.18669</ele>
        <time>2024-04-07T09:17:19.090Z</time>
      </trkpt>
      <trkpt lat="48.1691" lon="6.57507">
        <ele>477.98499</ele>
        <time>2024-04-07T09:17:22.086Z</time>
      </trkpt>
      <trkpt lat="48.169" lon="6.57506">
        <ele>477.775978</ele>
        <time>2024-04-07T09:17:25.071Z</time>
      </trkpt>
      <trkpt lat="48.16889" lon="6.57503">
        <ele>477.554698</ele>
        <time>2024-04-07T09:17:28.072Z</time>
      </trkpt>
      <trkpt lat="48.16879" lon="6.57504">
        <ele>477.333505</ele>
        <time>2024-04-07T09:17:32.090Z</time>
      </trkpt>
      <trkpt lat="48.16866" lon="6.57509">
        <ele>477.072263</ele>
        <time>2024-04-07T09:17:35.087Z</time>
      </trkpt>
      <trkpt lat="48.16857" lon="6.57515">
        <ele>476.870988</ele>
        <time>2024-04-07T09:17:38.072Z</time>
      </trkpt>
      <trkpt lat="48.16847" lon="6.5752">
        <ele>476.600803</ele>
        <time>2024-04-07T09:17:41.084Z</time>
      </trkpt>
      <trkpt lat="48.16835" lon="6.57523">
        <ele>475.545944</ele>
        <time>2024-04-07T09:17:44.084Z</time>
      </trkpt>
      <trkpt lat="48.16823" lon="6.57522">
        <ele>474.451969</ele>
        <time>2024-04-07T09:17:47.088Z</time>
      </trkpt>
      <trkpt lat="48.16811" lon="6.57515">
        <ele>473.33356</ele>
        <time>2024-04-07T09:17:50.089Z</time>
      </trkpt>
      <trkpt lat="48.16803" lon="6.57508">
        <ele>472.49097</ele>
        <time>2024-04-07T09:17:52.092Z</time>
      </trkpt>
      <trkpt lat="48.16794" lon="6.57501">
        <ele>471.592278</ele>
        <time>2024-04-07T09:17:54.086Z</time>
      </trkpt>
      <trkpt lat="48.16785" lon="6.57495">
        <ele>470.685237</ele>
        <time>2024-04-07T09:17:56.089Z</time>
      </trkpt>
      <trkpt lat="48.16774" lon="6.57489">
        <ele>469.646004</ele>
        <time>2024-04-07T09:17:58.071Z</time>
      </trkpt>
      <trkpt lat="48.16764" lon="6.57483">
        <ele>468.706184</ele>
        <time>2024-04-07T09:18:00.088Z</time>
      </trkpt>
      <trkpt lat="48.16752" lon="6.5748">
        <ele>467.642581</ele>
        <time>2024-04-07T09:18:02.089Z</time>
      </trkpt>
      <trkpt lat="48.16741" lon="6.57482">
        <ele>466.64118</ele>
        <time>2024-04-07T09:18:04.089Z</time>
      </trkpt>
      <trkpt lat="48.16731" lon="6.57485">
        <ele>465.717173</ele>
        <time>2024-04-07T09:18:06.092Z</time>
      </trkpt>
      <trkpt lat="48.16721" lon="6.57486">
        <ele>464.825479</ele>
        <time>2024-04-07T09:18:08.082Z</time>
      </trkpt>
      <trkpt lat="48.16707" lon="6.57487">
        <ele>463.617097</ele>
        <time>2024-04-07T09:18:11.086Z</time>
      </trkpt>
      <trkpt lat="48.16698" lon="6.57486">
        <ele>462.781505</ele>
        <time>2024-04-07T09:18:13.080Z</time>
      </trkpt>
      <trkpt lat="48.16688" lon="6.57488">
        <ele>461.930593</ele>
        <time>2024-04-07T09:18:15.084Z</time>
      </trkpt>
      <trkpt lat="48.16676" lon="6.57488">
        <ele>460.794167</ele>
        <time>2024-04-07T09:18:18.077Z</time>
      </trkpt>
      <trkpt lat="48.16663" lon="6.57483">
        <ele>460.560231</ele>
        <time>2024-04-07T09:18:21.078Z</time>
      </trkpt>
      <trkpt lat="48.16654" lon="6.57478">
        <ele>460.454917</ele>
        <time>2024-04-07T09:18:23.087Z</time>
      </trkpt>
      <trkpt lat="48.16646" lon="6.57473">
        <ele>460.34854</ele>
        <time>2024-04-07T09:18:25.085Z</time>
      </trkpt>
      <trkpt lat="48.16638" lon="6.57466">
        <ele>460.240293</ele>
        <time>2024-04-07T09:18:27.090Z</time>
      </trkpt>
      <trkpt lat="48.16629" lon="6.57458">
        <ele>460.128725</ele>
        <time>2024-04-07T09:18:29.090Z</time>
      </trkpt>
      <trkpt lat="48.1662" lon="6.57448">
        <ele>460.000219</ele>
        <time>2024-04-07T09:18:31.080Z</time>
      </trkpt>
      <trkpt lat="48.16609" lon="6.57439">
        <ele>459.847945</ele>
        <time>2024-04-07T09:18:33.090Z</time>
      </trkpt>
      <trkpt lat="48.16597" lon="6.5743">
        <ele>459.694021</ele>
        <time>2024-04-07T09:18:35.091Z</time>
      </trkpt>
      <trkpt lat="48.16583" lon="6.57422">
        <ele>459.521874</ele>
        <time>2024-04-07T09:18:37.085Z</time>
      </trkpt>
      <trkpt lat="48.16569" lon="6.57418">
        <ele>459.360777</ele>
        <time>2024-04-07T09:18:39.083Z</time>
      </trkpt>
      <trkpt lat="48.16557" lon="6.57416">
        <ele>459.223134</ele>
        <time>2024-04-07T09:18:41.087Z</time>
      </trkpt>
      <trkpt lat="48.16546" lon="6.57412">
        <ele>459.096693</ele>
        <time>2024-04-07T09:18:43.085Z</time>
      </trkpt>
      <trkpt lat="48.16535" lon="6.57408">
        <ele>458.967685</ele>
        <time>2024-04-07T09:18:45.088Z</time>
      </trkpt>
      <trkpt lat="48.16525" lon="6.574">
        <ele>458.838372</ele>
        <time>2024-04-07T09:18:47.086Z</time>
      </trkpt>
      <trkpt lat="48.16515" lon="6.57394">
        <ele>458.717256</ele>
        <time>2024-04-07T09:18:49.085Z</time>
      </trkpt>
      <trkpt lat="48.16506" lon="6.5739">
        <ele>458.682427</ele>
        <time>2024-04-07T09:18:51.088Z</time>
      </trkpt>
      <trkpt lat="48.16497" lon="6.57384">
        <ele>458.837148</ele>
        <time>2024-04-07T09:18:53.088Z</time>
      </trkpt>
      <trkpt lat="48.16488" lon="6.57377">
        <ele>458.999131</ele>
        <time>2024-04-07T09:18:55.089Z</time>
      </trkpt>
      <trkpt lat="48.16477" lon="6.57366">
        <ele>459.215675</ele>
        <time>2024-04-07T09:18:58.088Z</time>
      </trkpt>
      <trkpt lat="48.16468" lon="6.5736">
        <ele>459.363312</ele>
        <time>2024-04-07T09:19:00.088Z</time>
      </trkpt>
      <trkpt lat="48.16458" lon="6.57354">
        <ele>459.546305</ele>
        <time>2024-04-07T09:19:03.091Z</time>
      </trkpt>
      <trkpt lat="48.16445" lon="6.57348">
        <ele>459.754762</ele>
        <time>2024-04-07T09:19:06.084Z</time>
      </trkpt>
      <trkpt lat="48.16436" lon="6.57343">
        <ele>459.91768</ele>
        <time>2024-04-07T09:19:08.078Z</time>
      </trkpt>
      <trkpt lat="48.16426" lon="6.57337">
        <ele>460.084437</ele>
        <time>2024-04-07T09:19:11.073Z</time>
      </trkpt>
      <trkpt lat="48.16415" lon="6.57333">
        <ele>460.276405</ele>
        <time>2024-04-07T09:19:14.089Z</time>
      </trkpt>
      <trkpt lat="48.16405" lon="6.57328">
        <ele>460.436401</ele>
        <time>2024-04-07T09:19:16.088Z</time>
      </trkpt>
      <trkpt lat="48.16396" lon="6.5732">
        <ele>460.600867</ele>
        <time>2024-04-07T09:19:18.074Z</time>
      </trkpt>
      <trkpt lat="48.16386" lon="6.57318">
        <ele>460.763016</ele>
        <time>2024-04-07T09:19:20.090Z</time>
      </trkpt>
      <trkpt lat="48.16373" lon="6.57319">
        <ele>460.984882</ele>
        <time>2024-04-07T09:19:23.090Z</time>
      </trkpt>
      <trkpt lat="48.16363" lon="6.57321">
        <ele>461.135159</ele>
        <time>2024-04-07T09:19:25.081Z</time>
      </trkpt>
      <trkpt lat="48.16355" lon="6.57328">
        <ele>461.295272</ele>
        <time>2024-04-07T09:19:27.090Z</time>
      </trkpt>
      <trkpt lat="48.16344" lon="6.57337">
        <ele>461.486884</ele>
        <time>2024-04-07T09:19:29.093Z</time>
      </trkpt>
      <trkpt lat="48.16333" lon="6.57347">
        <ele>461.526026</ele>
        <time>2024-04-07T09:19:31.093Z</time>
      </trkpt>
      <trkpt lat="48.16321" lon="6.57359">
        <ele>461.526026</ele>
        <time>2024-04-07T09:19:33.090Z</time>
      </trkpt>
      <trkpt lat="48.1631" lon="6.57373">
        <ele>461.526026</ele>
        <time>2024-04-07T09:19:35.086Z</time>
      </trkpt>
      <trkpt lat="48.16299" lon="6.57384">
        <ele>461.526026</ele>
        <time>2024-04-07T09:19:37.084Z</time>
      </trkpt>
      <trkpt lat="48.16288" lon="6.57397">
        <ele>461.526026</ele>
        <time>2024-04-07T09:19:39.088Z</time>
      </trkpt>
      <trkpt lat="48.16279" lon="6.57411">
        <ele>461.526026</ele>
        <time>2024-04-07T09:19:41.090Z</time>
      </trkpt>
      <trkpt lat="48.16271" lon="6.57426">
        <ele>461.526026</ele>
        <time>2024-04-07T09:19:43.088Z</time>
      </trkpt>
      <trkpt lat="48.16262" lon="6.57441">
        <ele>461.526026</ele>
        <time>2024-04-07T09:19:45.091Z</time>
      </trkpt>
      <trkpt lat="48.16252" lon="6.57455">
        <ele>461.526026</ele>
        <time>2024-04-07T09:19:47.091Z</time>
      </trkpt>
      <trkpt lat="48.16243" lon="6.5747">
        <ele>461.526026</ele>
        <time>2024-04-07T09:19:49.087Z</time>
      </trkpt>
      <trkpt lat="48.16234" lon="6.57486">
        <ele>461.526026</ele>
        <time>2024-04-07T09:19:51.091Z</time>
      </trkpt>
      <trkpt lat="48.16226" lon="6.57501">
        <ele>461.526026</ele>
        <time>2024-04-07T09:19:53.067Z</time>
      </trkpt>
      <trkpt lat="48.16218" lon="6.57515">
        <ele>461.526026</ele>
        <time>2024-04-07T09:19:55.090Z</time>
      </trkpt>
      <trkpt lat="48.16211" lon="6.57528">
        <ele>461.526026</ele>
        <time>2024-04-07T09:19:57.087Z</time>
      </trkpt>
      <trkpt lat="48.16205" lon="6.57537">
        <ele>461.526026</ele>
        <time>2024-04-07T09:19:59.088Z</time>
      </trkpt>
      <trkpt lat="48.16198" lon="6.57546">
        <ele>461.526026</ele>
        <time>2024-04-07T09:20:02.085Z</time>
      </trkpt>
      <trkpt lat="48.16188" lon="6.57539">
        <ele>461.526026</ele>
        <time>2024-04-07T09:20:07.089Z</time>
      </trkpt>
      <trkpt lat="48.16184" lon="6.57526">
        <ele>461.526026</ele>
        <time>2024-04-07T09:20:10.085Z</time>
      </trkpt>
      <trkpt lat="48.16179" lon="6.57515">
        <ele>461.526026</ele>
        <time>2024-04-07T09:20:13.088Z</time>
      </trkpt>
      <trkpt lat="48.16173" lon="6.57503">
        <ele>461.526026</ele>
        <time>2024-04-07T09:20:17.090Z</time>
      </trkpt>
      <trkpt lat="48.16162" lon="6.57505">
        <ele>461.526026</ele>
        <time>2024-04-07T09:20:23.074Z</time>
      </trkpt>
      <trkpt lat="48.16154" lon="6.5751">
        <ele>461.526026</ele>
        <time>2024-04-07T09:20:27.090Z</time>
      </trkpt>
      <trkpt lat="48.16151" lon="6.57512">
        <ele>461.526026</ele>
        <time>2024-04-07T09:21:10.188Z</time>
      </trkpt>
    </trkseg>
  </trk>
</gpx>